     2              OBSERVATION DATA    GPS                 RINEX VERSION / TYPE
teqc 2000Jul20 Karen Wendt 20030414 22:25:46UTC             PGM / RUN BY / DATE
                                                            COMMENT
L2: 1 -> 1; 150 -> 5; 250 -> 9                              COMMENT
L2: 1 -> 1; 150 -> 5; 250 -> 9                              COMMENT
L2: 1 -> 1; 150 -> 5; 250 -> 9                              COMMENT
L2: 1 -> 1; 150 -> 5; 250 -> 9                              COMMENT
L2: 1 -> 1; 150 -> 5; 250 -> 9                              COMMENT
L2: 1 -> 1; 150 -> 5; 250 -> 9                              COMMENT
L2: 1 -> 1; 150 -> 5; 250 -> 9                              COMMENT
L2: 1 -> 1; 150 -> 5; 250 -> 9                              COMMENT
L2: 1 -> 1; 150 -> 5; 250 -> 9                              COMMENT
L2: 1 -> 1; 150 -> 5; 250 -> 9                              COMMENT
L2: 1 -> 1; 150 -> 5; 250 -> 9                              COMMENT
L2: 1 -> 1; 150 -> 5; 250 -> 9                              COMMENT
L2: 1 -> 1; 150 -> 5; 250 -> 9                              COMMENT
L2: 1 -> 1; 150 -> 5; 250 -> 9                              COMMENT
Original Marker Name: pnt2 Point2_stmpd_A_45_Unknown        COMMENT
Campaign Name: USGS 2003                                    COMMENT
4-Character Station Name: PNT2                              COMMENT
6-Character Antenna Code: DMRCHT                            COMMENT
Vertical Measurement Point: BCR                             COMMENT
Vertical Offset to Rinex Ref. Point: 0.0348                 COMMENT
Radial Measurement Point: ECF                               COMMENT
Radial Offset to Rinex Ref. Point: 0.1897                   COMMENT
Antenna Height from Field Measurement: 0.9900 m             COMMENT
Additional Antenna Identification Info.:                    COMMENT
Turborogue and Ashtech Choke Ring                           COMMENT
Original XYZ: -2675226.4712 -4461078.5434 3678465.5235      COMMENT
New XYZ position is based on association with SCEC monument COMMENT
E1F0I7Z2+0011. Position of that monument is believed to be  COMMENT
valid to within 1 m horizontally; vertical accuracy         COMMENT
should be no worse than 3-times this value.                 COMMENT
                                                            COMMENT
Revised Rinex header created by UCSD GPS archive for        COMMENT
GSAC on 17-Jul-2003 (2003:198) 20:59:27 GMT                 COMMENT
For assistance contact dagnew@ucsd.edu                      COMMENT
or anderson@python.ucsd.edu                                 COMMENT
                                                            COMMENT
A 45                                                        MARKER NAME
JMS US GEOLOGICAL SURVEY                                    OBSERVER / AGENCY
LP020000801 ASHTECH Z-XII3 CD00                             REC # / TYPE / VERS
CR620022601 DORNE-MARGOL. TYPE T                            ANT # / TYPE
 -2675246.3425 -4461064.9629  3678459.7183                  APPROX POSITION XYZ
        0.9369        0.0000        0.0000                  ANTENNA: DELTA H/E/N
     1     1     0                                          WAVELENGTH FACT L1/2
     5    C1    L1    L2    P1    P2                        # / TYPES OF OBSERV
    30                                                      INTERVAL
  2003     4    10    16    22    0.000000                  TIME OF FIRST OBS
  2003     4    10    22    30   30.000000                  TIME OF LAST OBS
                                                            END OF HEADER
 03  4 10 16 22  0.0000000  0  5G24G 4G 5G 7G 9
  20717434.542      -20939.79949    -15010.08548  20717434.249    20717441.485
  21552115.696      199771.43049    143642.61347  21552115.661    21552122.245
  21382055.015     -168601.70249   -118002.54747  21382054.462    21382061.248
  23944348.985      212620.98249    150434.51345  23944346.894    23944356.106
  21847863.627      192390.80549    142179.09847  21847863.259    21847870.211
 03  4 10 16 22 29.9990000  0  6G24G30G 4G 5G 7G 9
  20416421.283      -27356.72749    -20010.28448  20416420.696
  20416427.934     -293170.11149   -193414.41143                  21264613.189
                    264356.29049    193968.45847  21264613.345    21264619.930
  21071549.256     -224899.16349   -161870.68047  21071548.950    21071555.759
  23658245.514      284552.12749    206484.66845  23658242.789    23658251.603
  21560236.508      256320.05849    191994.07647  21560236.159    21560243.123
 03  4 10 16 23  0.0000000  0  6G24G30G 4G 5G 7G 9
  20453280.525    -1409079.37249  -1096677.27348  20453280.059
  20453287.330    -1761708.41349  -1114856.64443                  21314965.342
                  -1046461.71449   -827448.19247  21314965.446    21314972.044
  21098865.809    -1656770.81949  -1277614.80847  21098865.319    21098872.133
  23709911.576    -1019356.93049   -809548.43645  23709909.631    23709918.509
  21610463.138    -1055157.52449   -829936.53047  21610462.778    21610469.762
 03  4 10 16 23 30.0000000  0  6G24G30G 4G 5G 7G 9
  20451644.122    -1417678.53349  -1103377.91448  20451643.732    20451651.000
  23371034.631    -1857614.72349  -1189589.05845  23371034.480    23371041.301
  21326801.981     -984260.24049   -778979.53347  21326802.042    21326808.634
  21087636.373    -1715782.39249  -1323597.83547  21087635.804    21087642.617
  23722979.608     -950681.75249   -756035.40445  23722978.104    23722986.989
  21622173.546     -993618.97349   -781984.43247  21622173.171    21622180.174
 03  4 10 16 24  0.0000000  0  6G24G30G 4G 5G 7G 9
  20450113.852    -1425720.19749  -1109644.14148  20450113.471    20450120.768
  23352796.827    -1953455.23349  -1264269.97045  23352797.225    23352803.664
  21338724.980     -921604.90949   -730157.21447  21338725.008    21338731.622
  21076462.981    -1774498.91849  -1369350.94947  21076462.399    21076469.247
  23736051.903     -881985.72949   -702506.12645  23736050.624    23736059.508
  21633969.632     -931630.19249   -733681.50947  21633969.285    21633976.306
 03  4 10 16 24 30.0000000  0  6G24G30G 4G 5G 7G 9
  20448689.441    -1433205.40349  -1115476.77048  20448689.097    20448696.420
  23334571.748    -2049229.07449  -1338898.96846  23334572.292    23334578.523
  21350733.618     -858499.14049   -680983.91347  21350733.655    21350740.278
  21065345.995    -1832919.27749  -1414873.29247  21065345.435    21065352.247
  23749128.047     -813269.65449   -648961.22445  23749126.871    23749135.847
  21645850.746     -869194.63549   -685030.44647  21645850.419    21645857.445
 03  4 10 16 25  0.0000000  0  6G24G30G 4G 5G 7G 9
  20447371.021    -1440133.91849  -1120875.60948  20447370.690    20447378.015
  23316359.846    -2144933.79549  -1413474.08446  23316360.280    23316366.639
  21362827.709     -794944.65649   -631460.96047  21362827.712    21362834.356
  21054285.872    -1891040.87449  -1460162.83547  21054285.292    21054292.084
  23762208.168     -744533.08949   -595400.35145  23762207.066    23762216.043
  21657816.515     -806314.01249   -636032.58747  21657816.216    21657823.232
 03  4 10 16 25 30.0000000  0  6G24G30G 4G 5G 7G 9
  20446158.508    -1446505.81949  -1125840.72748  20446158.169    20446165.453
  23298161.424    -2240567.48249  -1487993.84646  23298161.808    23298168.216
  21375006.669     -730943.81849   -581590.19647  21375006.691    21375013.340
  21043283.060    -1948861.38449  -1505217.75247  21043282.459    21043289.247
  23775292.236     -675775.97449   -541823.48445  23775291.208    23775300.161
  21669866.636     -742990.62649   -586689.71147  21669866.314    21669873.333
 03  4 10 16 26  0.0000000  0  6G24G30G 4G 5G 7G 9
  20445051.797    -1452321.81949  -1130372.67648  20445051.465    20445058.746
  23279976.868    -2336128.50449  -1562456.99146  23279977.137    23279983.562
  21387270.084     -666499.39649   -531373.79147  21387270.111    21387276.738
  21032337.801    -2006379.25349  -1550036.86047  21032337.186    21032343.955
  23788380.069     -606998.91649   -488231.04345  23788379.167    23788388.201
  21682000.472     -679227.21649   -537003.97247  21682000.163    21682007.169
 03  4 10 16 26 30.0000000  0  6G24G30G 4G 5G 7G 9
  20444050.624    -1457583.13249  -1134472.40648  20444050.288    20444057.571
  23261806.361    -2431615.70049  -1636862.61946  23261806.556    23261812.976
  21399617.393     -601614.39749   -480814.06847  21399617.383    21399624.018
  21021450.385    -2063592.98349  -1594618.97247  21021449.783    21021456.565
  23801471.726     -538202.22249   -434623.34445  23801470.844    23801479.861
  21694217.540     -615026.51249   -486977.45747  21694217.206    21694224.204
 03  4 10 16 27  0.0000000  0  6G24G30G 4G 5G 7G 9
  20443155.095    -1462289.24449  -1138139.50448  20443154.748    20443162.042
  23243650.174    -2527026.71149  -1711208.86145  23243650.436    23243657.029
  21412048.109     -536290.93149   -429912.69547  21412048.097    21412054.666
  21010621.314    -2120500.14649  -1638962.20447  21010620.700    21010627.479
  23814567.199     -469385.58449   -381000.07645  23814566.389    23814575.328
  21706517.297     -550390.83349   -436612.03947  21706516.991    21706524.001
 03  4 10 16 27 30.0000000  0  6G24G30G 4G 5G 7G 9
  20442365.058    -1466441.07749  -1141374.69948  20442364.715    20442371.953
  23225508.859    -2622359.84449  -1785494.42846  23225509.194    23225515.835
  21424561.794     -470531.37849   -378671.49747  21424561.784    21424568.326
  20999851.028    -2177098.72149  -1683064.98447  20999850.396    20999857.139
  23827666.308     -400549.34349   -327361.53545  23827665.510    23827674.419
  21718899.429     -485322.77649   -385909.68847  21718899.099    21718906.070
 03  4 10 16 28  0.0000000  0  6G24G30G 4G 5G 7G 9
  20441680.374    -1470039.15049  -1144178.39348  20441680.039    20441687.297
  23207382.855    -2717613.35149  -1859717.95246  23207383.123    23207389.856
  21437157.920     -404338.62349   -327092.76147  21437157.894    21437164.471
  20989139.743    -2233386.90749  -1726925.88847  20989139.101    20989145.805
  23840769.204     -331693.61949   -273707.83145  23840768.390    23840777.336
  21731363.283     -419825.04249   -334872.51947  21731362.940    21731369.905
 03  4 10 16 28 30.0000000  0  6G24G30G 4G 5G 7G 9
  20441101.002    -1473083.89649  -1146550.92548  20441100.650    20441107.910
  23189272.251    -2812785.42749  -1933878.01646  23189272.451    23189279.134
  21449836.031     -337714.83549   -275178.14147  21449836.007    21449842.605
  20978487.979    -2289362.55049  -1770543.26447  20978487.335    20978494.015
  23853875.721     -262818.40349   -220038.93845  23853874.996    23853884.018
  21743908.421     -353900.05049   -283502.42947  21743908.096    21743915.062
 03  4 10 16 29  0.0000000  0  6G24G30G 4G 5G 7G 9
  20440626.900    -1475575.60649  -1148492.52148  20440626.549    20440633.782
  23171177.552    -2907874.01349  -2007973.02646  23171177.747    23171184.477
  21462595.632     -270662.72549   -222929.76747  21462595.644    21462602.245
  20967896.050    -2345023.65349  -1813915.54547  20967895.398    20967902.064
  23866986.064     -193923.75849   -166354.88845  23866985.280    23866994.358
  21756534.405     -287550.29249   -231801.35247  21756534.075    21756541.055
 03  4 10 16 29 30.0000000  0  6G24G30G 4G 5G 7G 9
  20440257.730    -1477515.60849  -1150004.21548  20440257.384    20440264.623
  23153099.083    -3002877.71749  -2082001.89946  23153099.173    23153105.978
  21475436.187     -203185.29649   -170349.97147  21475436.195    21475442.815
  20957364.242    -2400368.64149  -1857041.50347  20957363.589    20957370.270
  23880099.988     -125010.07149   -112656.01745  23880099.201    23880108.357
  21769240.702     -220778.50249   -179771.41647  21769240.378    21769247.369
 03  4 10 16 30  0.0000000  0  7G24G30G 4G 5G 7G 9G10
  20439993.243    -1478905.52149  -1151087.26948  20439992.907    20440000.157
  23135036.740    -3097796.03849  -2155964.23346  23135036.787    23135043.571
  21488356.981     -135286.22149   -117441.62447  21488356.980    21488363.587
  20946892.738    -2455396.80449  -1899920.58547  20946892.098    20946898.815
  23893217.215      -56078.92049    -58943.52845  23893216.440    23893225.613
  21782026.489     -153588.80849   -127415.84347  21782026.207    21782033.210
  24582680.796    -3020903.39149  -2331980.64545  24582679.835    24582691.226
 03  4 10 16 30 30.0000000  0  7G24G30G 4G 5G 7G 9G10
  20439832.558    -1479750.09449  -1151745.38448  20439832.229    20439839.478
  23116990.171    -3192631.22949  -2229861.80046  23116990.270    23116997.097
  21501356.728      -66972.27449    -64210.00147  21501356.730    21501363.342
  20936481.115    -2510110.22749  -1942554.41947  20936480.466    20936487.222
  23906337.023       12865.69749     -5220.54945  23906336.227    23906345.535
  21794890.556      -85987.83549    -74739.79147  21794890.281    21794897.272
  24563982.224    -3119164.29749  -2408547.49445  24563981.320    24563992.626
 03  4 10 16 31  0.0000000  0  7G24G30G 4G 5G 7G 9G10
  20439777.190    -1480041.01549  -1151972.08048  20439776.877    20439784.118
  23098961.486    -3287371.99649  -2303685.77546  23098961.681    23098968.608
  21514436.703        1763.31149    -10649.83047  21514436.715    21514443.343
  20926131.517    -2564497.64049  -1984934.21847  20926130.891    20926137.645
  23919461.088       81832.88649     48520.01945  23919460.302    23919469.579
  21807834.169      -17969.01049    -21738.14447  21807833.871    21807840.902
  24545271.342    -3217490.12649  -2485164.87045  24545270.433    24545281.816
 03  4 10 16 31 30.0000000  0  7G24G30G 4G 5G 7G 9G10
  20439826.791    -1479780.39249  -1151769.00248  20439826.483    20439833.730
  23080950.941    -3382018.25149  -2377436.09846  23080951.101    23080958.017
  21527596.090       70916.38049     43235.65447  21527596.145    21527602.763
  20915844.052    -2618558.85349  -2027059.83847  20915843.443    20915850.154
  23932589.201      150820.90649    102276.80345  23932588.513    23932597.732
  21820856.440       50463.41049     31585.78247  21820856.155    21820863.212
  24526548.365    -3315879.64049  -2561831.88745  24526547.385    24526558.954
 03  4 10 16 32  0.0000000  0  7G24G30G 4G 5G 7G 9G10
  20439981.090    -1478969.71049  -1151137.30548  20439980.796    20439988.050
  23062958.488    -3476569.12849  -2451112.10346  23062958.665    23062965.547
  21540834.227      140483.05949     97443.43447  21540834.281    21540840.921
  20905618.855    -2672292.81549  -2068930.45547  20905618.232    20905624.923
  23945721.052      219828.66449    156049.00545  23945720.343    23945729.539
  21833956.757      119305.90749     85229.24847  21833956.486    21833963.577
  24507813.552    -3414331.09649  -2638547.14845  24507812.615    24507824.128
 03  4 10 16 32 30.0000000  0  7G24G30G 4G 5G 7G 9G10
  20440239.790    -1477610.27949  -1150078.00848  20440239.497    20440246.749
  23044984.584    -3571023.09149  -2524712.59246  23044984.738    23044991.674
  21554150.496      210460.29649    151971.12747  21554150.552    21554157.189
  20895456.210    -2725697.97949  -2110544.86247  20895455.597    20895462.286
  23958856.534      288855.63749    209836.12945  23958855.839    23958865.100
  21847134.477      188555.25349    139189.73547  21847134.214    21847141.350
  24489067.562    -3512841.81449  -2715308.63245  24489066.772    24489078.175
 03  4 10 16 33  0.0000000  0  7G24G30G 4G 5G 7G 9G10
  20440602.686    -1475703.15149  -1148591.93748  20440602.405    20440609.672
  23027029.417    -3665378.81949  -2598236.53546  23027029.549    23027036.391
  21567544.382      280845.31649    206816.57447  21567544.420    21567551.095
  20885356.442    -2778772.62049  -2151901.72147  20885355.829    20885362.504
  23971995.641      357901.59149    263638.06245  23971994.943    23972004.262
  21860389.078      258208.38749    193464.87547  21860388.818    21860395.939
  24470310.747    -3611409.27049  -2792114.30345  24470309.997    24470321.331
 03  4 10 16 33 30.0000000  0  7G24G30G 4G 5G 7G 9G10
  20441069.696    -1473249.15249  -1146679.73148  20441069.432    20441076.699
  23009093.190    -3759634.21849  -2671682.29346  23009093.386    23009100.132
  21581015.296      351635.38749    261977.64547  21581015.334    21581022.052
  20875319.910    -2831515.01149  -2192999.68247  20875319.287    20875325.982
  23985138.336      426966.01749    317454.39645  23985137.594    23985146.906
  21873719.958      328262.34949    248052.35047  21873719.679    21873726.779
  24451543.687    -3710030.54849  -2868961.87145  24451542.899    24451554.251
 03  4 10 16 34  0.0000000  0  7G24G30G 4G 5G 7G 9G10
  20441640.556    -1470249.18049  -1144342.08848  20441640.297    20441647.580
  22991176.333    -3853787.60449  -2745048.54346  22991176.520    22991183.375
  21594562.793      422827.86849    317452.28647  21594562.825    21594569.581
  20865346.942    -2883923.33749  -2233837.32947  20865346.321    20865353.027
  23998284.489      496049.08349    371285.24245  23998283.704    23998293.059
  21887126.576      398714.65649    302950.21547  21887126.328    21887133.466
  24432766.892    -3808702.92449  -2945849.30745  24432766.088    24432777.309
 03  4 10 16 34 30.0000000  0  7G24G30G 4G 5G 7G 9G10
  20442315.405    -1466702.92749  -1141578.77348  20442315.140    20442322.414
  22973279.496    -3947836.06349  -2818333.03746  22973279.760    22973286.633
  21608186.543      494421.01549    373239.13347  21608186.584    21608193.329
  20855438.126    -2935994.58349  -2274412.32147  20855437.501    20855444.215
  24011434.341      565151.63049    425131.25845  24011433.580    24011443.031
  21900608.771      469563.77649    358157.28747  21900608.514    21900615.662
  24413981.066    -3907422.24949  -3022773.32545  24413980.234    24413991.339
 03  4 10 16 35  0.0000000  0  7G24G30G 4G 5G 7G 9G10
  20443093.858    -1462612.24049  -1138391.22548  20443093.601    20443100.894
  22955402.903    -4041778.64349  -2891535.02746  22955403.085    22955410.064
  21621885.820      566411.13649    429335.30347  21621885.870    21621892.648
  20845593.587    -2987727.80249  -2314723.91447  20845592.976    20845599.709
  24024587.686      634272.62749    478991.66945  24024586.934    24024596.341
  21914165.746      540805.83749    413670.55047  21914165.469    21914172.619
  24395186.696    -4006186.71249  -3099732.50145  24395185.864    24395196.936
 03  4 10 16 35 30.0000000  0  7G24G30G 4G 5G 7G 9G10
  20443975.767    -1457977.80849  -1134779.98048  20443975.510    20443982.792
  22937546.873    -4135613.26849  -2964652.91846  22937546.967    22937553.879
  21635660.129      638795.66949    485738.81647  21635660.194    21635666.951
  20835813.822    -3039120.90849  -2354770.48247  20835813.207    20835819.954
  24037744.563      703412.08849    532866.45045  24037743.786    24037753.349
  21927796.943      612438.23549    469487.97847  21927796.672    21927803.852
  24376384.354    -4104993.07149  -3176724.31345  24376383.511    24376394.716
 03  4 10 16 36  0.0000000  0  7G24G30G 4G 5G 7G 9G10
  20444960.992    -1452800.50849  -1130745.71848  20444960.738    20444968.035
  22919711.674    -4229337.92749  -3037685.11546  22919711.804    22919718.679
  21649509.098      711572.26949    542447.82447  21649509.157    21649515.929
  20826099.161    -3090171.73149  -2394550.33247  20826098.552    20826105.304
  24050905.050      772570.21749    586755.79245  24050904.255    24050913.834
  21941501.895      684458.16649    525607.37247  21941501.635    21941508.877
  24357574.536    -4203838.52649  -3253746.59445  24357573.653    24357584.942
 03  4 10 16 36 30.0000000  0  7G24G30G 4G 5G 7G 9G10
  20446049.320    -1447081.41449  -1126289.27848  20446049.065    20446056.359
  22901897.624    -4322950.91249  -3110630.29446  22901897.856    22901904.707
  21663432.127      784738.10749    599460.13847  21663432.168    21663438.933
  20816449.983    -3140878.43249  -2434062.03447  20816449.372    20816456.126
  24064068.960      841746.58749    640659.32645  24064068.183    24064077.837
  21955280.059      756862.75449    582026.49147  21955279.816    21955287.065
  24338757.986    -4302720.25749  -3330797.20345  24338757.159    24338768.192
 03  4 10 16 37  0.0000000  0  7G24G30G 4G 5G 7G 9G10
  20447240.574    -1440821.39849  -1121411.34248  20447240.320    20447247.610
  22884105.332    -4416449.93349  -3183486.66246  22884105.584    22884112.424
  21677428.789      858290.56149    656773.71547  21677428.828    21677435.561
  20806866.683    -3191238.99449  -2473304.01948  20806866.096    20806872.818
  24077236.390      910941.48249    694577.29745  24077235.646    24077245.425
  21969130.979      829649.55649    638743.44147  21969130.737    21969137.984
  24319935.064    -4401635.01949  -3407873.51145  24319934.170    24319945.170
 03  4 10 16 37 30.0000000  0  7G24G30G 4G 5G 7G 9G10
  20448534.622    -1434021.18649  -1116112.47648  20448534.354    20448541.649
  22866335.108    -4509832.96449  -3256252.65146  22866335.355    22866342.235
  21691498.522      932227.23949    714386.67847  21691498.558    21691505.234
  20797349.675    -3241251.45649  -2512274.76148  20797349.065    20797355.770
  24090407.362      980155.05349    748509.82245  24090406.638    24090416.330
  21983054.108      902815.73549    695756.01247  21983053.849    21983061.093
  24301106.401    -4500579.69049  -3484973.10245  24301105.565    24301116.648
 03  4 10 16 38  0.0000000  0  8G24G30G 4G 5G 6G 7G 9G10
  20449930.708    -1426684.69449  -1110395.72948  20449930.458    20449937.734
  22848586.760    -4603101.16149  -3328929.14446  22848586.942    22848593.882
  21705640.188     1006542.12049    772294.34447  21705640.258    21705646.949
  20787898.674    -3290916.99849  -2550975.17448  20787898.058    20787904.750
  24825476.856    -3899291.67549  -3011900.87445  24825476.719    24825485.571
  24103581.316     1049384.16049    802454.44745  24103580.638    24103590.322
  21997048.271      976355.53449    753059.71947  21997048.030    21997055.254
  24282272.001    -4599554.24249  -3562096.00845  24282271.143    24282282.275
 03  4 10 16 38 30.0000000  0  8G24G30G 4G 5G 6G 7G 9G10
  20451429.169    -1418810.46649  -1104259.96348  20451428.910    20451436.188
  22830861.172    -4696250.00949  -3401512.66246  22830861.353    22830868.210
  21719853.825     1081235.25849    830496.76247  21719853.938    21719860.602
  20778514.491    -3340231.14249  -2589401.77048  20778513.904    20778520.576
  24811544.682    -3972506.19949  -3068951.15445  24811544.535    24811553.264
  24116758.674     1118631.03949    856412.92045  24116757.966    24116767.686
  22011113.523     1050268.58049    810654.26947  22011113.263    22011120.485
  24263433.056    -4698553.31149  -3639238.03745  24263432.096    24263443.190
 03  4 10 16 39  0.0000000  0  8G24G30G 4G 5G 6G 7G 9G10
  20453030.031    -1410397.93649  -1097704.74648  20453029.772    20453037.039
  22813158.844    -4789276.06449  -3474000.46946  22813159.058    22813165.882
  21734139.261     1156305.39449    888992.94447  21734139.328    21734146.002
  20769197.883    -3389190.38649  -2627551.82648  20769197.274    20769203.951
  24797624.312    -4045658.32549  -3125952.81545  24797624.062    24797632.953
  24129939.822     1187897.40249    910386.61845  24129939.121    24129948.711
  22025249.573     1124553.81549    868538.82747  22025249.317    22025256.559
  24244590.394    -4797572.13949  -3716395.43945  24244589.410    24244600.423
 03  4 10 16 39 30.0000000  0  8G24G30G 4G 5G 6G 7G 9G10
  20454733.156    -1401448.10349  -1090730.85248  20454732.893    20454740.160
  22795480.347    -4882177.24449  -3546390.99346  22795480.597    22795487.425
  21748495.886     1231749.80549    947780.76247  21748495.969    21748502.617
  20759949.146    -3437792.88549  -2665423.89348  20759948.547    20759955.210
  24783715.697    -4118748.31149  -3182906.01145  24783715.351    24783724.373
  24143124.469     1257183.20749    964375.40445  24143123.832    24143133.503
  22039455.884     1199208.44949    926711.22947  22039455.662    22039462.924
  24225744.320    -4896607.82349  -3793566.00045  24225743.478    24225754.321
 03  4 10 16 40  0.0000000  0  8G24G30G 4G 5G 6G 7G 9G10
  20456538.239    -1391962.40449  -1083339.39848  20456537.973    20456545.245
  22777825.925    -4974952.27349  -3618683.20246  22777826.119    22777832.958
  21762923.089     1307565.16149   1006857.63047  21762923.162    21762929.828
  20750768.563    -3486037.25649  -2703016.90248  20750767.962    20750774.637
  24769818.845    -4191776.92349  -3239811.39345  24769818.541    24769827.584
  24156312.842     1326487.70749   1018378.79245  24156312.243    24156321.932
  22053731.869     1274228.91349    985168.69747  22053731.649    22053738.907
  24206895.532    -4995657.86249  -3870747.74345  24206894.756    24206905.611
 03  4 10 16 40 30.0000000  0  8G24G30G 4G 5G 6G 7G 9G10
  20458445.020    -1381942.20549  -1075531.45148  20458444.743    20458452.040
  22760195.978    -5067598.98149  -3690875.43446  22760196.104    22760202.892
  21777420.392     1383748.90249   1066221.54947  21777420.495    21777427.163
  20741656.499    -3533921.52449  -2740329.31148  20741655.880    20741662.557
  24755933.729    -4264744.26649  -3296669.06145  24755933.314    24755942.256
  24169504.754     1395811.07749   1072396.89745  24169504.090    24169513.699
  22068076.831     1349612.20049   1043908.88147  22068076.618    22068083.879
  24188044.828    -5094719.20449  -3947938.30645  24188044.045    24188054.775
 03  4 10 16 41  0.0000000  0  8G24G30G 4G 5G 6G 7G 9G10
  20460453.272    -1371388.90949  -1067308.10548  20460453.003    20460460.287
  22742590.537    -5160115.93249  -3762966.55446  22742590.712    22742597.506
  21791987.231     1460297.86449   1125870.06147  21791987.311    21791993.997
  20732613.203    -3581444.28249  -2777360.02048  20732612.601    20732619.289
  24742060.156    -4337650.90649  -3353479.44045  24742059.688    24742068.325
  24182700.116     1465152.69749   1126429.19045  24182699.406    24182709.172
  22082490.305     1425355.26149   1102929.41947  22082490.090    22082497.354
  24169192.354    -5193789.44649  -4025135.80545  24169191.487    24169202.301
 03  4 10 16 41 30.0000000  0  8G24G30G 4G 5G 6G 7G 9G10
  20462562.754    -1360303.42449  -1058670.06548  20462562.493    20462569.783
  22725010.317    -5252500.79349  -3834954.74346  22725010.483    22725017.202
  21806623.117     1537209.66549   1185801.30047  21806623.159    21806629.848
  20723639.100    -3628603.42849  -2814107.39748  20723638.514    20723645.182
  24728197.979    -4410496.71349  -3410242.37145  24728197.546    24728206.082
  24195898.991     1534512.99349   1180476.01245  24195898.309    24195908.162
  22096971.729     1501455.47249   1162228.24947  22096971.505    22096978.787
  24150338.784    -5292865.14549  -4102337.53745  24150337.909    24150348.775
 03  4 10 16 42  0.0000000  0  8G24G30G 4G 5G 6G 7G 9G10
  20464773.303    -1348686.97949  -1049618.28848  20464773.042    20464780.327
  22707455.565    -5344751.74049  -3906838.57646  22707455.705    22707462.420
  21821327.475     1614481.31349   1246012.93647  21821327.499    21821334.193
  20714734.565    -3675397.11049  -2850569.99848  20714733.978    20714740.661
  24714347.302    -4483281.91549  -3466958.09245  24714346.923    24714355.619
  24209101.414     1603891.66449   1234537.16845  24209100.748    24209110.542
  22111520.535     1577909.86449   1221803.06047  22111520.293    22111527.599
  24131484.861    -5391943.30049  -4179541.21845  24131484.021    24131494.716
 03  4 10 16 42 30.0000000  0  8G24G30G 4G 5G 6G 7G 9G10
  20467084.686    -1336540.70349  -1040153.66148  20467084.412    20467091.665
  22689926.770    -5436866.68249  -3978616.44346  22689926.851    22689933.526
  21836099.768     1692110.09649   1306502.86147  21836099.822    21836106.508
  20705899.937    -3721823.45349  -2886746.35948  20705899.344    20705906.011
  24700508.277    -4556006.67849  -3523626.71445  24700508.024    24700516.802
  24222307.354     1673288.85849   1288612.73345  24222306.675    24222316.503
  22126136.212     1654715.59749   1281651.64247  22126135.995    22126143.306
  24112630.925    -5491020.99849  -4256744.51845  24112630.134    24112640.723
 03  4 10 16 43  0.0000000  0  8G24G30G 4G 5G 6G 7G 9G10
  20469496.684    -1323865.74449  -1030277.06948  20469496.402    20469503.630
  22672424.099    -5528843.55149  -4050286.70446  22672424.237    22672430.923
  21850939.575     1770093.46149   1367269.08147  21850939.639    21850946.316
  20697135.606    -3767880.43349  -2922634.90548  20697135.022    20697141.666
  24686680.727    -4628671.11249  -3580248.34845  24686680.537    24686689.285
  24235516.869     1742704.43849   1342702.64645  24235516.162    24235525.993
  22140818.225     1731869.70049   1341771.68547  22140817.981    22140825.322
  24093777.767    -5590094.97449  -4333944.93445  24093776.886    24093787.487
 03  4 10 16 43 30.0000000  0  8G24G30G 4G 5G 6G 7G 9G10
  20472009.085    -1310663.14649  -1019989.33248  20472008.803    20472016.015
  22654948.116    -5620680.35849  -4121847.84746  22654948.246    22654954.972
  21865846.296     1848428.62849   1428309.42747  21865846.330    21865853.059
  20688441.884    -3813566.19549  -2958234.19648  20688441.300    20688447.929
  24672864.691    -4701275.31549  -3636823.04645  24672864.392    24672873.025
  24248729.832     1812138.41449   1396806.89445  24248729.173    24248739.094
  22155565.949     1809369.33049   1402160.96247  22155565.711    22155573.049
  24074925.848    -5689162.26549  -4411140.15745  24074924.897    24074935.480
 03  4 10 16 44  0.0000000  0  8G24G30G 4G 5G 6G 7G 9G10
  20474621.610    -1296934.08549  -1009291.36648  20474621.335    20474628.558
  22637499.243    -5712374.60149  -4193297.88546  22637499.406    22637506.099
  21880819.482     1927113.17849   1489622.02747  21880819.534    21880826.258
  20679819.245    -3858878.58049  -2993542.54048  20679818.659    20679825.250
  24659060.070    -4773819.02649  -3693350.59445  24659059.788    24659068.384
  24261946.468     1881591.40049   1450925.95645  24261945.784    24261955.772
  22170378.989     1887212.02049   1462817.56147  22170378.746    22170386.061
  24056075.744    -5788219.44649  -4488327.44445  24056074.736    24056085.381
 03  4 10 16 44 30.0000000  0  8G24G30G 4G 5G 6G 7G 9G10
  20477334.098    -1282679.79849   -998184.13148  20477333.837    20477341.061
  22620077.862    -5803924.57049  -4264635.52446  22620078.046    22620084.738
  21895858.644     2006144.27549   1551204.65847  21895858.673    21895865.448
  20671267.954    -3903816.04649  -3028558.74148  20671267.349    20671273.944
  24645266.786    -4846302.87349  -3749831.49045  24645266.487    24645275.306
  24275166.521     1951062.87349   1505059.41045  24275165.891    24275176.047
  22185256.686     1965394.53049   1523738.95947  22185256.436    22185263.755
  24037228.261    -5887263.56949  -4565504.60245  24037227.284    24037237.826
 03  4 10 16 45  0.0000000  0  8G24G30G 4G 5G 6G 7G 9G10
  20480146.392    -1267901.15349   -986668.30948  20480146.130    20480153.338
  22602684.364    -5895327.85449  -4335858.87346  22602684.587    22602691.192
  21910963.220     2085519.21049   1613055.21547  21910963.286    21910970.059
  20662788.363    -3948376.52649  -3063281.18748  20662787.770    20662794.388
  24631484.805    -4918726.73649  -3806265.64145  24631484.578    24631493.477
  24288390.160     2020553.22949   1559207.58445  24288389.638    24288399.705
  22200198.573     2043914.39849   1584923.23847  22200198.322    22200205.659
  24018383.794    -5986291.55049  -4642669.16545  24018382.930    24018393.354
 03  4 10 16 45 30.0000000  0  8G24G30G 4G 5G 6G 7G 9G10
  20483058.143    -1252599.85549   -974745.22148  20483057.884    20483065.102
  22585319.149    -5986582.77449  -4406966.58146  22585319.349    22585325.987
  21926132.693     2165235.08449   1675171.44147  21926132.724    21926139.521
  20654380.807    -3992558.43049  -3097708.64148  20654380.220    20654386.831
  24617714.366    -4991091.00249  -3862653.37645  24617714.301    24617722.899
  24301617.423     2090062.01349   1613370.11545  24301616.869    24301626.845
  22215203.947     2122768.08649   1646367.63147  22215203.714    22215211.077
  23999542.998    -6085300.41749  -4719818.82545  23999542.153    23999552.555
 03  4 10 16 46  0.0000000  0  8G24G30G 4G 5G 6G 7G 9G10
  20486069.133    -1236777.09249   -962415.80148  20486068.880    20486076.095
  22567982.572    -6077686.94749  -4477956.83746  22567982.781    22567989.441
  21941366.525     2245289.32649   1737551.32347  21941366.568    21941373.408
  20646045.704    -4036359.71349  -3131839.50948  20646045.120    20646051.741
  24603955.390    -5063395.46649  -3918994.52745  24603955.346    24603963.785
  24314848.183     2159589.59449   1667547.29545  24314847.661    24314857.463
  22230272.364     2201953.14749   1708070.23747  22230272.123    22230279.493
  23980706.437    -6184286.68949  -4796950.86345  23980705.613    23980716.121
 03  4 10 16 46 30.0000000  0  8G24G30G 4G 5G 6G 7G 9G10
  20489179.124    -1220434.14949   -949681.04648  20489178.857    20489186.062
  22550674.999    -6168638.54649  -4548828.19046  22550675.213    22550681.897
  21956664.269     2325679.20049   1800192.74047  21956664.317    21956671.104
  20637783.358    -4079778.63549  -3165672.43348  20637782.760    20637789.379
  24590207.637    -5135640.65449  -3975289.44445  24590207.424    24590216.013
  24328082.578     2229135.74249   1721738.93745  24328081.938    24328091.854
  22245403.300     2281466.29549   1770028.49547  22245403.058    22245410.384
  23961874.839    -6283247.50249  -4874063.07945  23961873.990    23961884.346
 03  4 10 16 47  0.0000000  0  8G24G30G 4G 5G 6G 7G 9G10
  20492387.899    -1203572.03149   -936541.74048  20492387.615    20492394.826
  22533396.947    -6259435.05749  -4619578.70546  22533397.213    22533403.919
  21972025.361     2406402.16549   1863093.71347  21972025.413    21972032.249
  20629594.206    -4122812.88249  -3199205.61448  20629593.619    20629600.234
  24576471.156    -5207826.10849  -4031537.82445  24576470.943    24576479.649
  24341320.556     2298700.89349   1775945.37345  24341319.795    24341329.892
  22260596.152     2361305.03249   1832240.45047  22260595.880    22260603.258
  23943048.687    -6382179.22249  -4951152.61145  23943047.893    23943058.179
 03  4 10 16 47 30.0000000  0  8G24G30G 4G 5G 6G 7G 9G10
  20495695.139    -1186192.35349   -922999.13948  20495694.876    20495702.091
  22516148.811    -6350074.63549  -4690206.95046  22516149.084    22516155.774
  21987449.273     2487455.28849   1926251.94247  21987449.346    21987456.179
  20621478.570    -4165460.89149  -3232437.83248  20621477.978    20621484.618
  24562746.011    -5279952.39649  -4087740.10945  24562745.874    24562754.443
  24354562.040     2368284.85749   1830166.47745  24354561.247    24354571.366
  22275850.379     2441466.35749   1894703.77947  22275850.110    22275857.507
  23924228.655    -6481079.07149  -5028217.32645  23924227.772    23924237.954
 03  4 10 16 48  0.0000000  0  8G24G30G 4G 5G 6G 7G 9G10
  20499100.650    -1168296.33849   -909054.20148  20499100.398    20499107.627
  22498930.912    -6440555.09249  -4760711.18646  22498931.174    22498937.899
  22002935.549     2568835.99249   1989665.43547  22002935.595    22002942.464
  20613436.780    -4207720.73849  -3265367.58348  20613436.195    20613442.835
  24549032.122    -5352019.46249  -4143896.25545  24549031.979    24549040.577
  24367807.183     2437887.73649   1884402.29745  24367806.429    24367816.792
  22291165.416     2521947.37949   1957416.22647  22291165.167    22291172.566
  23905415.229    -6579943.91149  -5105254.74045  23905414.426    23905424.495
 03  4 10 16 48 30.0000000  0  8G24G30G 4G 5G 6G 7G 9G10
  20502604.174    -1149885.34749   -894707.98248  20502603.913    20502611.129
  22481743.787    -6530874.28549  -4831089.77946  22481744.032    22481750.681
  22018483.647     2650541.39349   2053331.94047  22018483.681    22018490.503
  20605469.244    -4249590.46449  -3297993.34948  20605468.631    20605475.282
  24535329.503    -5424027.27249  -4200006.21945  24535329.275    24535338.007
  24381055.923     2507509.59949   1938652.93045  24381055.216    24381065.476
  22306540.748     2602745.11749   2020375.46647  22306540.493    22306547.906
  23886609.007    -6678770.50849  -5182262.32645  23886608.116    23886618.253
 03  4 10 16 49  0.0000000  0  8G24G30G 4G 5G 6G 7G 9G10
  20506205.418    -1130960.74549   -879961.54648  20506205.150    20506212.385
  22464587.702    -6621030.11749  -4901341.07146  22464587.920    22464594.642
  22034093.016     2732568.97149   2117249.48947  22034093.055    22034099.867
  20597576.295    -4291068.34349  -3330313.77648  20597575.685    20597582.353
  24521638.130    -5495976.07649  -4256070.21645  24521637.744    24521646.518
  24394308.230     2577150.45149   1992918.33645  24394307.543    24394318.096
  22321975.768     2683856.40449   2083579.02647  22321975.538    22321982.894
  23867810.801    -6777555.64249  -5259237.64045  23867809.879    23867820.009
 03  4 10 16 49 30.0000000  0  8G24G30G 4G 5G 6G 7G 9G10
  20509904.217    -1111523.53149   -864815.67548  20509903.949    20509911.156
  22447463.260    -6711020.18249  -4971463.20746  22447463.425    22447470.064
  22049763.174     2814916.05749   2181416.00647  22049763.227    22049770.031
  20589758.212    -4332152.50649  -3362327.41748  20589757.617    20589764.280
  24507957.953    -5567865.93249  -4312088.27345  24507957.644    24507966.426
  24407564.292     2646810.70849   2047198.87845  24407563.625    24407574.176
  22337470.016     2765278.81849   2147025.01547  22337469.771    22337477.103
  23849020.994    -6876296.06449  -5336178.06345  23849020.008    23849030.374
 03  4 10 16 50  0.0000000  0  8G24G30G 4G 5G 6G 7G 9G10
  20513700.231    -1091575.44449   -849271.71948  20513699.951    20513707.157
  22430370.680    -6800842.53449  -5041454.64846  22430370.857    22430377.464
  22065493.639     2897580.00949   2245829.42847  22065493.687    22065500.522
  20582015.405    -4372841.37649  -3394033.03348  20582014.798    20582021.425
  24494288.951    -5639697.24049  -4368060.70145  24494288.597    24494297.389
  24420823.965     2716490.04549   2101494.28645  24420823.275    24420833.766
  22353022.768     2847009.02949   2210710.85747  22353022.515    22353029.864
  23830240.309    -6974988.75249  -5413081.33045  23830239.259    23830249.622
 03  4 10 16 50 30.0000000  0  8G24G30G 4G 5G 6G 7G 9G10
  20517593.199    -1071117.76149   -833330.67748  20517592.926    20517600.137
  22413310.460    -6890494.64349  -5111313.42046  22413310.648    22413317.235
  22081283.926     2980558.21449   2310487.72847  22081283.975    22081290.800
  20574348.255    -4413132.56349  -3425428.76848  20574347.665    20574354.272
  24480631.017    -5711469.74549  -4423987.32345  24480630.792    24480639.534
  24434087.385     2786188.97749   2155804.96145  24434086.744    24434097.325
  22368633.561     2929044.28849   2274634.39047  22368633.337    22368640.693
  23811469.362    -7073630.25549  -5489944.70245  23811468.403    23811478.627
 03  4 10 16 51  0.0000000  0  8G24G30G 4G 5G 6G 7G 9G10
  20521582.819    -1050152.15449   -816993.84948  20521582.544    20521589.783
  22396283.031    -6979974.73449  -5181038.16946  22396283.136    22396289.723
  22097133.366     3063847.42749   2375388.36747  22097133.413    22097140.249
  20566757.033    -4453024.49549  -3456513.39948  20566756.461    20566763.092
  24466984.189    -5783183.94449  -4479868.50845  24466984.029    24466992.720
  24447354.437     2855907.22949   2210130.70345  24447353.859    24447364.314
  22384301.847     3011381.39549   2338793.13747  22384301.620    22384308.977
  23792708.655    -7172217.69049  -5566765.94545  23792707.762    23792717.991
 03  4 10 16 51 30.0000000  0  8G24G30G 4G 5G 6G 7G 9G10
  20525668.895    -1028679.61849   -800262.01548  20525668.645    20525675.879
  22379288.692    -7069280.15649  -5250626.79846  22379288.860    22379295.432
  22113041.598     3147445.55849   2440529.71747  22113041.650    22113048.505
  20559242.187    -4492515.25449  -3487285.42548  20559241.603    20559248.251
  24453348.678    -5854839.44549  -4535703.93945  24453348.589    24453357.018
  24460625.284     2925645.15849   2264471.76545  24460624.682    24460635.176
  22400027.105     3094017.89349   2403185.17247  22400026.844    22400034.241
  23773958.807    -7270747.55849  -5643542.32545  23773957.961    23773968.222
 03  4 10 16 52  0.0000000  0  8G24G30G 4G 5G 6G 7G 9G10
  20529851.110    -1006702.02949   -783136.62948  20529850.860    20529858.092
  22362327.984    -7158409.07949  -5320077.89746  22362328.182    22362334.792
  22129008.100     3231349.68049   2505909.49947  22129008.107    22129014.971
  20551803.975    -4531603.30049  -3517743.64648  20551803.422    20551810.066
  24439724.189    -5926436.63649  -4591493.94845  24439724.051    24439732.649
  24473899.815     2995402.60449   2318828.05245  24473899.232    24473909.808
  22415808.615     3176950.48349   2467807.92547  22415808.389    22415815.825
  23755220.812    -7369216.65749  -5720271.35745  23755219.963    23755230.029
 03  4 10 16 52 30.0000000  0  8G24G30G 4G 5G 6G 7G 9G10
  20534129.160     -984220.88149   -765618.86248  20534128.918    20534136.144
  22345401.266    -7247359.29349  -5389389.73346  22345401.500    22345408.215
  22145032.209     3315556.94949   2571525.50847  22145032.243    22145039.101
  20544442.826    -4570286.56549  -3547886.45348  20544442.278    20544448.908
  24426110.732    -5997975.68249  -4647238.63845  24426110.546    24426119.326
  24487178.007     3065179.65849   2373199.55145  24487177.498    24487188.127
  22431646.035     3260176.22649   2532659.10847  22431645.804    22431653.201
  23736494.801    -7467621.74349  -5796950.52845  23736494.007    23736503.993
 03  4 10 16 53  0.0000000  0  8G24G30G 4G 5G 6G 7G 9G10
  20538502.791     -961237.41049   -747709.67648  20538502.540    20538509.750
  22328508.912    -7336128.73749  -5458560.70946  22328509.175    22328515.972
  22161113.506     3400064.60149   2637375.58047  22161113.560    22161120.392
  20537158.989    -4608563.48449  -3577712.62648  20537158.431    20537165.053
  24412508.302    -6069456.79449  -4702938.19445  24412508.082    24412516.804
  24500460.086     3134976.42749   2427586.44445  24500459.555    24500470.026
  22447538.640     3343692.18749   2597736.43747  22447538.402    22447545.814
  23717781.554    -7565959.93049  -5873577.56445  23717780.773    23717790.664
 03  4 10 16 53 30.0000000  0  8G24G30G 4G 5G 6G 7G 9G10
  20542971.695     -937753.22149   -729410.31948  20542971.447    20542978.648
  22311651.483    -7424714.92549  -5527588.89646  22311651.775    22311658.544
  22177251.541     3484870.18749   2703457.80447  22177251.588    22177258.436
  20529952.862    -4646432.14949  -3607220.68148  20529952.290    20529958.905
  24398916.955    -6140880.00849  -4758592.63145  24398916.711    24398925.336
  24513745.905     3204792.96549   2481988.73145  24513745.347    24513755.991
  22463485.876     3427495.50149   2663037.66647  22463485.672    22463493.138
  23699081.747    -7664227.85449  -5950149.85245  23699080.878    23699090.799
 03  4 10 16 54  0.0000000  0  8G24G30G 4G 5G 6G 7G 9G10
  20547535.603     -913769.72349   -710721.88948  20547535.347    20547542.560
  22294829.375    -7513115.47849  -5596472.42246  22294829.681    22294836.463
  22193445.691     3569971.01849   2769770.09447  22193445.737    22193452.621
  20522824.770    -4683890.48949  -3636409.00048  20522824.204    20522830.823
  24385336.536    -6212245.24349  -4814201.89445  24385336.243    24385344.993
  24527035.502     3274629.62949   2536406.69745  24527034.966    24527045.442
  22479487.286     3511583.12849   2728560.44247  22479487.075    22479494.531
  23680395.971    -7762422.05349  -6026664.70845  23680395.134    23680404.861
 03  4 10 16 54 30.0000000  0  8G24G30G 4G 5G 6G 7G 9G10
  20552194.268     -889288.36849   -691645.51748  20552194.012    20552201.240
  22278042.962    -7601328.31949  -5665209.68146  22278043.322    22278050.155
  22209695.511     3655364.40349   2836310.34747  22209695.618    22209702.511
  20515775.071    -4720936.91249  -3665276.34248  20515774.505    20515781.095
  24371767.124    -6283552.70049  -4869766.12545  24371766.817    24371775.668
  24540329.101     3344486.47549   2590840.40045  24540328.443    24540338.997
  22495542.232     3595952.17649   2794302.51847  22495542.000    22495549.440
  23661724.680    -7860539.36249  -6103119.62545  23661723.909    23661733.676
 03  4 10 16 55  0.0000000  0  8G24G30G 4G 5G 6G 7G 9G10
  20556947.265     -864311.19149   -672182.79848  20556947.002    20556954.242
  22261292.717    -7689351.51249  -5733799.15846  22261293.078    22261299.857
  22226000.501     3741047.44849   2903076.30547  22226000.580    22226007.513
  20508804.077    -4757569.99749  -3693821.60548  20508803.491    20508810.077
  24358208.748    -6354802.78249  -4925285.63945  24358208.483    24358217.205
  24553626.465     3414363.14949   2645289.51845  24553625.748    24553636.390
  22511650.125     3680599.29549   2860261.26247  22511649.839    22511657.309
  23643068.801    -7958576.53849  -6179512.10245  23643068.024    23643077.814
 03  4 10 16 55 30.0000000  0  8G24G30G 4G 5G 6G 7G 9G10
  20561794.347     -838839.67049   -652334.87048  20561794.106    20561801.352
  22244579.049    -7777182.75849  -5802239.06846  22244579.338    22244586.089
  22242360.036     3827017.27249   2970065.73047  22242360.124    22242367.070
  20501912.118    -4793787.60749  -3722043.12348  20501911.532    20501918.122
  24344661.204    -6425995.41549  -4980760.41545  24344660.922    24344669.630
  24566927.497     3484260.11949   2699754.48145  24566926.870    24566937.678
  22527810.328     3765521.67149   2926434.49647  22527810.111    22527817.562
  23624428.781    -8056530.49949  -6255839.77545  23624427.920    23624437.694
 03  4 10 16 56  0.0000000  0  8G24G30G 4G 5G 6G 7G 9G10
  20566735.266     -812875.06149   -632102.72148  20566735.016    20566742.253
  22227902.346    -7864819.58049  -5870527.48347  22227902.603    22227909.324
  22258773.748     3913271.65549   3037276.88647  22258773.802    22258780.765
  20495099.580    -4829587.84449  -3749939.41748  20495098.978    20495105.578
  24331124.639    -6497130.52449  -5036190.35045  24331124.353    24331133.043
  24580232.546     3554177.56949   2754235.40045  24580231.949    24580242.652
  22544022.471     3850716.66349   2992820.15747  22544022.228    22544029.665
  23605805.064    -8154398.16949  -6332100.16545  23605804.232    23605814.066
 03  4 10 16 56 30.0000000  0  8G24G30G 4G 5G 6G 7G 9G10
  20571769.678     -786419.12649   -611487.72048  20571769.420    20571776.655
  22211263.075    -7952259.89549  -5938662.77347  22211263.272    22211269.965
  22275241.044     3999807.49349   3104707.36747  22275241.131    22275248.089
  20488366.707    -4864969.20849  -3777509.31248  20488366.119    20488372.735
  24317598.951    -6568208.60549  -5091575.84945  24317598.677    24317607.311
  24593541.436     3624115.35049   2808732.17545  24593540.786    24593551.472
  22560285.784     3936180.78849   3059415.53747  22560285.519    22560292.974
  23587198.425    -8252176.26749  -6408290.79345  23587197.523    23587207.281
 03  4 10 16 57  0.0000000  0  8G24G30G 4G 5G 6G 7G 9G10
  20576897.319     -759473.33649   -590491.01548  20576897.061    20576904.312
  22194661.708    -8039501.04649  -6006642.87147  22194661.865    22194668.488
  22291761.396     4086622.57249   3172355.43047  22291761.505    22291768.495
  20481713.922    -4899929.81849  -3804751.34748  20481713.335    20481719.964
  24304084.177    -6639229.24749  -5146916.58745  24304083.903    24304092.501
  24606854.351     3694074.12449   2863245.29545  24606853.640    24606864.409
  22576599.830     4021911.38749   3126218.55247  22576599.575    22576607.045
  23568609.662    -8349860.62149  -6484408.36745  23568608.762    23568618.525
 03  4 10 16 57 30.0000000  0  8G24G30G 4G 5G 6G 7G 9G10
  20582117.814     -732039.51649   -569114.02348  20582117.556    20582124.817
  22178098.533    -8126541.03749  -6074466.21347  22178098.712    22178105.350
  22308334.334     4173713.96949   3240218.79946  22308334.481    22308341.494
  20475141.521    -4934468.19649  -3831664.36748  20475140.935    20475147.554
  24290580.160    -6710192.89349  -5202212.90945  24290579.892    24290588.503
  24620171.166     3764053.62049   2917774.57545  24620170.301    24620181.161
  22592963.933     4107905.32849   3193226.77947  22592963.687    22592971.189
  23550039.137    -8447448.38749  -6560450.68745  23550038.298    23550047.947
 03  4 10 16 58  0.0000000  0  7G24G30G 4G 5G 6G 9G10
  20587431.013     -704118.50449   -547357.40248  20587430.778    20587438.033
  22161574.198    -8213376.92549  -6142130.51547  22161574.371    22161581.005
  22324959.595     4261079.77649   3308296.00646  22324959.692    22324966.690
  20468649.953    -4968581.62249  -3858246.25248  20468649.359    20468655.966
  24277087.109    -6781098.86949  -5257464.29545  24277086.893    24277095.554
  22609377.720     4194160.37049   3260438.45247  22609377.493    22609385.044
  23531487.884    -8544935.84949  -6636414.83445  23531486.941    23531496.730
 03  4 10 16 58 30.0000000  0  7G24G30G 4G 5G 6G 9G10
  20592836.520     -675712.42649   -525222.80948  20592836.286    20592843.545
  22145089.132    -8300006.75249  -6209634.25147  22145089.264    22145095.881
  22341636.531     4348716.98449   3376584.69746  22341636.527    22341643.515
  20462239.468    -5002268.87749  -3884496.06048  20462238.887    20462245.501
  24263605.157    -6851947.44749  -5312670.95045  24263604.845    24263613.513
  22625840.606     4280673.01449   3327850.85647  22625840.337    22625847.869
  23512956.270    -8642319.89049  -6712298.41445  23512955.270    23512965.016
 03  4 10 16 59  0.0000000  0  7G24G30G 4G 5G 6G 9G10
  20598333.893     -646823.68549   -502712.11448  20598333.640    20598340.885
  22128643.491    -8386429.00949  -6276976.23947  22128643.629    22128650.237
  22358364.317     4436622.02349   3445082.08446  22358364.336    22358371.358
  20455910.249    -5035529.14349  -3910413.15148  20455909.688    20455916.300
  24250133.847    -6922739.75449  -5367833.75545  24250133.582    24250142.179
  22642351.831     4367439.80249   3395461.29447  22642351.586    22642359.119
  23494444.689    -8739598.11749  -6788099.54445  23494443.825    23494453.488
 03  4 10 16 59 30.0000000  0  7G24G30G 4G 5G 6G 9G10
  20603922.818     -617453.73549   -479826.45248  20603922.561    20603929.802
  22112237.814    -8472641.32649  -6344154.64947  22112237.966    22112244.512
  22375142.638     4524792.30549   3513786.14946  22375142.671    22375149.701
  20449662.650    -5068360.57649  -3935996.08548  20449662.083    20449668.680
  24236673.222    -6993475.66849  -5422952.63645  24236672.891    24236681.493
  22658910.925     4454457.67949   3463267.38947  22658910.642    22658918.142
  23475954.047    -8836766.92549  -6863815.40145  23475953.087    23475962.776
 03  4 10 17  0  0.0000000  0  7G24G30G 4G 5G 6G 9G10
  20609603.115     -587603.74049   -456566.72848  20609602.859    20609610.112
  22095872.510    -8558641.15649  -6411167.47647  22095872.696    22095879.249
  22391970.929     4613225.50649   3582695.09846  22391971.001    22391978.043
  20443497.029    -5100761.20349  -3961243.32648  20443496.462    20443503.053
  24223223.243    -7064155.01849  -5478027.41145  24223222.962    24223231.626
  22675517.109     4541723.96649   3531267.04047  22675516.876    22675524.418
  23457484.861    -8933823.01949  -6939443.46946  23457483.942    23457493.562
 03  4 10 17  0 30.0000000  0  7G24G30G 4G 5G 6G 9G10
  20615374.333     -557275.84749   -432934.61948  20615374.073    20615381.292
  22079548.150    -8644426.08949  -6478012.86247  22079548.327    22079554.904
  22408848.761     4701919.14649   3651806.97046  22408848.867    22408855.888
  20437413.709    -5132729.23349  -3986153.48348  20437413.133    20437419.743
  24209784.183    -7134777.98249  -5533058.27245  24209783.895    24209792.488
  22692170.069     4629235.70349   3599457.96947  22692169.868    22692177.334
  23439037.691    -9030762.92349  -7014980.96745  23439036.713    23439046.435
 03  4 10 17  1  0.0000000  0  7G24G30G 4G 5G 6G 9G10
  20621236.136     -526471.93449   -408931.58448  20621235.885    20621243.123
  22063265.031    -8729994.10149  -6544689.20547  22063265.249    22063271.829
  22425775.568     4790869.97849   3721119.25946  22425775.668    22425782.719
  20431412.962    -5164263.30149  -4010725.48148  20431412.398    20431419.010
  24196355.787    -7205344.90749  -5588045.45645  24196355.492    24196364.123
  22708869.069     4716989.53049   3667837.52547  22708868.857    22708876.424
  23420613.393    -9127583.46649  -7090425.47946  23420612.388    23420622.049
 03  4 10 17  1 30.0000000  0  7G24G30G 4G 5G 6G 9G10
  20627188.217     -495193.45849   -384558.76148  20627187.985    20627195.205
  22047023.714    -8815342.59649  -6611194.50147  22047023.983    22047030.557
  22442750.958     4880075.87449   3790630.30446  22442751.086    22442758.105
  20425495.215    -5195361.35249  -4034957.72948  20425494.644    20425501.279
  24182938.045    -7275855.59049  -5642988.81245  24182937.721    24182946.374
  22725613.642     4804982.75149   3736403.62646  22725613.455    22725621.030
  23402212.333    -9224281.13049  -7165774.24846  23402211.386    23402221.005
 03  4 10 17  2  0.0000000  0  7G24G30G 4G 5G 6G 9G10
  20633230.287     -463442.28049   -359817.59648  20633230.052    20633237.271
  22030824.599    -8900469.55349  -6677527.17647  22030824.837    22030831.351
  22459774.248     4969533.58149   3860337.56946  22459774.372    22459781.405
  20419660.688    -5226022.16249  -4058849.26948  20419660.133    20419666.753
  24169530.867    -7346310.43949  -5697888.68245  24169530.573    24169539.219
  22742403.150     4893211.97749   3805153.62146  22742402.942    22742410.546
  23383835.274    -9320853.04949  -7241025.02846  23383834.309    23383843.880
 03  4 10 17  2 30.0000000  0  7G24G30G 4G 5G 6G 9G10
  20639362.014     -431219.92249   -334709.28048  20639361.777    20639368.997
  22014668.150    -8985372.34049  -6743685.16947  22014668.362    22014674.899
  22476845.090     5059241.09449   3930239.47246  22476845.183    22476852.223
  20413909.729    -5256243.63949  -4082398.47348  20413909.155    20413915.775
  24156134.395    -7416709.17549  -5752744.81045  24156134.156    24156142.769
  22759237.076     4981674.71749   3874085.57646  22759236.868    22759244.479
  23365482.773    -9417295.59049  -7316174.97045  23365481.854    23365491.430
 03  4 10 17  3  0.0000000  0  7G24G30G 4G 5G 6G 9G10
  20645583.057     -398528.23949   -309235.25748  20645582.820    20645590.043
  21998554.729    -9070048.69849  -6809666.72747  21998554.967    21998561.470
  22493962.996     5149195.56249   4000333.81846  22493962.983    22493969.996
  20408242.643    -5286024.32649  -4105604.20648  20408242.088    20408248.709
  24142748.634    -7487051.95049  -5807557.33945  24142748.394    24142756.937
  22776114.891     5070367.69249   3943196.93346  22776114.644    22776122.306
  23347155.522    -9513605.34249  -7391221.47646  23347154.661    23347164.162
 03  4 10 17  3 30.0000000  0  7G24G30G 4G 5G 6G 9G10
  20651893.001     -365369.23449   -283397.08448  20651892.782    20651900.024
  21982484.832    -9154496.34149  -6875470.06247  21982485.112    21982491.632
  22511127.312     5239394.55749   4070618.69746  22511127.331    22511134.341
  20402659.759    -5315362.50849  -4128465.13048  20402659.193    20402665.840
  24129373.340    -7557338.74349  -5862326.22945  24129373.153    24129381.787
  22793035.867     5159287.97949   4012485.40846  22793035.610    22793043.319
  23328854.224    -9609778.68449  -7466161.67746  23328853.381    23328862.939
 03  4 10 17  4  0.0000000  0  7G24G30G 4G 5G 6G 9G10
  20658291.578     -331744.60549   -257196.09248  20658291.342    20658298.606
  21966458.932    -9238712.98649  -6941093.40547  21966459.207    21966465.737
  22528337.596     5329835.08149   4141091.78346  22528337.646    22528344.690
  20397161.383    -5344256.75549  -4150980.12848  20397160.829    20397167.485
  24116008.746    -7627569.88449  -5917051.76045  24116008.575    24116017.269
  22809999.566     5248432.48449   4081948.61646  22809999.316    22810006.984
  23310579.510    -9705812.92649  -7540993.50646  23310578.702    23310588.158
 03  4 10 17  4 30.0000000  0  7G24G30G 4G 5G 6G 9G10
  20664778.441     -297655.89749   -230633.47748  20664778.222    20664785.501
  21950477.436    -9322696.28549  -7006534.92147  21950477.750    21950484.240
  22545593.334     5420514.56449   4211751.06846  22545593.370    22545600.459
  20391747.781    -5372705.36849  -4173147.88148  20391747.227    20391753.889
  24102654.829    -7697745.67149  -5971734.15745  24102654.589    24102663.177
  22827005.306     5337798.04049   4151584.06846  22827005.033    22827012.739
  23292331.919    -9801704.38749  -7615714.04246  23292331.095    23292340.508
 03  4 10 17  5  0.0000000  0  7G24G30G 4G 5G 6G 9G10
  20671353.232     -263105.15549   -203710.83948  20671353.020    20671360.307
  21934540.849    -9406443.73749  -7071792.65347  21934541.113    21934547.630
  22562894.066     5511430.51049   4282594.60646  22562894.123    22562901.259
  20386419.330    -5400706.65849  -4194967.06948  20386418.766    20386425.424
  24089311.467    -7767865.88449  -6026373.26945  24089311.287    24089319.720
  22844052.463     5427381.78849   4221389.53446  22844052.242    22844060.041
  23274112.157    -9897449.79449  -7690320.78146  23274111.288    23274120.796
 03  4 10 17  5 30.0000000  0  7G24G30G 4G 5G 6G 9G10
  20678015.589     -228094.29949   -176429.67048  20678015.378    20678022.669
  21918649.550    -9489953.12249  -7136864.87947  21918649.804    21918656.339
  22580239.282     5602580.07749   4353620.19646  22580239.315    22580246.480
  20381176.233    -5428259.30649  -4216436.66848  20381175.676    20381182.321
  24075978.592    -7837930.76749  -6080969.25545  24075978.407    24075986.737
  22861140.680     5517180.56849   4291362.56046  22861140.472    22861148.224
  23255920.733    -9993046.03249  -7764811.28946  23255919.842    23255929.327
 03  4 10 17  6  0.0000000  0  7G24G30G 4G 5G 6G 9G10
  20684765.103     -192625.33249   -148791.53148  20684764.895    20684772.199
  21902804.024    -9573222.11349  -7201749.78447  21902804.244    21902810.789
  22597628.527     5693960.91949   4424825.99346  22597628.557    22597635.759
  20376018.844    -5455361.57249  -4237555.31648  20376018.276    20376024.950
  24062656.148    -7907940.30749  -6135522.11945  24062655.930    24062664.443
  22878269.270     5607191.48349   4361500.89146  22878269.034    22878276.764
  23237758.370   -10088489.46349  -7839182.72546  23237757.545    23237766.964
 03  4 10 17  6 30.0000000  0  7G24G30G 4G 5G 6G 9G10
  20691601.486     -156699.98349   -120797.77048  20691601.273    20691608.598
  21887004.690    -9656248.24249  -7266445.44947  21887004.902    21887011.469
  22615061.245     5785570.21649   4496209.80146  22615061.249    22615068.484
  20370947.462    -5482011.83349  -4258321.75548  20370946.917    20370953.583
  24049344.252    -7977894.61249  -6190031.94545  24049343.985    24049352.488
  22895437.606     5697411.52749   4431802.17346  22895437.398    22895445.078
  23219625.760   -10183776.88449  -7913432.59646  23219624.938    23219634.317
 03  4 10 17  7  0.0000000  0  7G24G30G 4G 5G 6G 9G10
  20698524.390     -120319.95749    -92449.71648  20698524.170    20698531.527
  21871251.925    -9739029.29649  -7330950.14147  21871252.157    21871258.746
  22632536.926     5877405.40249   4567769.64646  22632536.951    22632544.154
  20365962.368    -5508208.68249  -4278734.88448  20365961.808    20365968.489
  24036042.866    -8047793.72549  -6244498.74345  24036042.545    24036051.134
  22912645.132     5787837.64649   4502264.02846  22912644.916    22912652.671
  23201523.538   -10278904.95549  -7987558.29746  23201522.680    23201532.003
 03  4 10 17  7 30.0000000  0  7G24G30G 4G 5G 6G 9G10
  20705533.350      -83487.62849    -63749.21948  20705533.148    20705540.521
  21855546.331    -9821562.80249  -7395261.94547  21855546.600    21855553.137
  22650055.117     5969464.07349   4639503.61046  22650055.183    22650062.389
  20361063.858    -5533950.48049  -4298793.43148  20361063.309    20361069.991
  24022751.924    -8117637.74449  -6298922.62745  24022751.665    24022760.349
  22929891.293     5878466.83549   4572884.12746  22929891.057    22929898.899
  23183452.242   -10373869.90549  -8061556.88946  23183451.391    23183460.654
 03  4 10 17  8  0.0000000  0  7G24G30G 4G 5G 6G 9G10
  20712628.105      -46204.63149    -34697.55148  20712627.896    20712635.260
  21839888.244    -9903846.44749  -7459379.05147  21839888.530    21839895.042
  22667615.285     6061743.28449   4711409.44346  22667615.386    22667622.617
  20356252.224    -5559235.82449  -4318496.29748  20356251.680    20356258.361
  24009471.557    -8187426.89249  -6353303.76245  24009471.269    24009479.678
  22947175.465     5969295.84549   4643659.92246  22947175.271    22947183.134
  23165412.494   -10468668.86849  -8135426.11646  23165411.639    23165421.060
 03  4 10 17  8 30.0000000  0  7G24G30G 4G 5G 6G 9G10
  20719808.223       -8472.76749     -5296.11648  20719808.035    20719815.397
  21824278.168    -9985877.88349  -7523299.62947  21824278.427    21824284.989
  22685216.971     6154240.62249   4783485.23946  22685217.141    22685224.390
  20351527.727    -5584063.04049  -4337842.18448  20351527.181    20351533.864
  23996201.413    -8257161.19549  -6407642.13445  23996201.116    23996209.602
  22964497.195     6060321.97749   4714589.33046  22964497.019    22964504.852
  23147404.971   -10563298.50049  -8209163.42146  23147404.076    23147413.459
 03  4 10 17  9  0.0000000  0  7G24G30G 4G 5G 6G 9G10
  20727073.446       29706.21449     24453.72148  20727073.266    20727080.655
  21808716.547   -10067654.54749  -7587021.67847  21808716.800    21808723.403
  22702859.630     6246953.47449   4855728.95646  22702859.828    22702867.068
  20346890.748    -5608430.50949  -4356829.82748  20346890.211    20346896.904
  23982942.009    -8326840.43749  -6461937.63045  23982941.725    23982950.169
  22981856.001     6151542.19749   4785669.97046  22981855.802    22981863.581
  23129430.514   -10657755.02949  -8282765.84046  23129429.590    23129438.970
 03  4 10 17  9 30.0000000  0  7G24G30G 4G 5G 6G 9G10
  20734423.292       68329.90049     54550.08448  20734423.088    20734430.512
  21793203.787   -10149174.56749  -7650543.75147  21793204.039    21793210.640
  22720542.839     6339878.94949   4928138.37146  22720543.006    22720550.244
  20342341.399    -5632337.44949  -4375458.61748  20342340.880    20342347.582
  23969692.810    -8396465.29749  -6516190.74345  23969692.547    23969700.967
  22999250.916     6242952.99749   4856899.10346  22999250.680    22999258.609
  23111489.346   -10752035.75049  -8356231.26946  23111488.479    23111497.900
 03  4 10 17 10  0.0000000  0  7G24G30G 4G 5G 6G 9G10
  20741857.433      107396.59249     84991.64148  20741857.241    20741864.697
  21777740.371   -10230435.01349  -7713863.55847  21777740.644    21777747.242
  22738266.101     6433014.93349   5000711.80046  22738266.226    22738273.455
  20337880.070    -5655781.97749  -4393727.08748  20337879.549    20337886.231
  23956453.965    -8466035.27249  -6570401.08745  23956453.782    23956462.122
  23016681.562     6334551.94049   4928274.85046  23016681.393    23016689.316
  23093582.408   -10846136.84949  -8429556.70946  23093581.567    23093591.042
 03  4 10 17 10 30.0000000  0  7G24G30G 4G 5G 6G 9G10
  20749375.490      146904.20249    115776.77848  20749375.316    20749382.777
  21762326.757   -10311433.88449  -7776979.54447  21762327.054    21762333.622
  22756028.802     6526358.45649   5073446.95646  22756028.999    22756036.225
  20333506.985    -5678762.75849  -4411634.19548  20333506.466    20333513.144
  23943225.699    -8535550.81149  -6624569.02245  23943225.489    23943233.768
  23034147.525     6426335.82149   4999794.71146  23034147.361    23034155.279
  23075710.299   -10940055.48149  -8502740.00146  23075709.489    23075718.864
 03  4 10 17 11  0.0000000  0  7G24G30G 4G 5G 6G 9G10
  20756977.134      186850.90049    146904.05548  20756976.924    20756984.379
  21746963.470   -10392168.72249  -7839889.79047  21746963.740    21746970.267
  22773830.536     6619907.11049   5146341.94646  22773830.725    22773838.016
  20329222.481    -5701278.15849  -4429178.66848  20329221.952    20329228.613
  23930007.697    -8605011.91249  -6678694.52645  23930007.431    23930015.877
  23051648.036     6518301.45049   5071456.18446  23051647.856    23051655.823
  23057873.501   -11033787.82549  -8575778.10246  23057872.757    23057882.134
 03  4 10 17 11 30.0000000  0  7G24G30G 4G 5G 6G 9G10
  20764661.932      227234.65549    178371.90248  20764661.724    20764669.159
  21731650.859   -10472637.05149  -7902592.36047  21731651.131    21731657.644
  22791670.842     6713658.28149   5219394.74746  22791671.044    22791678.374
  20325026.795    -5723326.63549  -4446359.30648  20325026.267    20325032.938
  23916800.056    -8674418.53549  -6732777.58545  23916799.754    23916808.241
  23069182.592     6610445.82049   5143256.94046  23069182.408    23069190.411
  23040072.932   -11127330.45649  -8648668.40146  23040072.160    23040081.516
 03  4 10 17 12  0.0000000  0  7G24G30G 4G 5G 6G 9G10
  20772429.508      268053.47149    210178.75548  20772429.286    20772436.730
  21716389.401   -10552836.63749  -7965085.52447  21716389.666    21716396.158
  22809549.119     6807609.16149   5292603.16746  22809549.308    22809556.660
  20320920.177    -5744907.11949  -4463175.27048  20320919.660    20320926.322
  23903602.702    -8743770.97649  -6786818.42945  23903602.500    23903610.887
  23086750.555     6702765.79649   5215194.53846  23086750.395    23086758.334
  23022309.029   -11220680.22849  -8721408.42546  23022308.218    23022317.463
 03  4 10 17 12 30.0000000  0  7G24G30G 4G 5G 6G 9G10
  20780279.481      309305.22649    242322.96048  20780279.272    20780286.723
  21701179.577   -10632764.78149  -8027367.17647  21701179.836    21701186.336
  22827465.082     6901757.76649   5365965.65446  22827465.225    22827472.603
  20316902.949    -5766017.78549  -4479625.14748  20316902.431    20316909.118
  23890415.682    -8813068.89649  -6840816.78745  23890415.490    23890423.863
  23104351.366     6795258.79649   5287266.95146  23104351.221    23104359.223
  23004582.464   -11313833.54749  -8793995.33846  23004581.669    23004590.932
 03  4 10 17 13  0.0000000  0  7G24G30G 4G 5G 6G 9G10
  20788211.473      350987.98449    274803.01348  20788211.261    20788218.723
  21686021.782   -10712419.45949  -8089435.73847  21686022.069    21686028.532
  22845418.057     6996101.02449   5439479.80446  22845418.206    22845425.605
  20312975.291    -5786657.72649  -4495708.22448  20312974.770    20312981.476
  23877238.927    -8882312.91049  -6894773.14245  23877238.772    23877247.150
  23121984.494     6887921.28549   5359471.43446  23121984.343    23121992.397
  22986893.913   -11406787.50449  -8866426.91846  22986893.035    22986902.345
 03  4 10 17 13 30.0000000  0  7G24G30G 4G 5G 6G 9G10
  20796225.137      393099.91649    307617.49048  20796224.923    20796232.385
  21670916.512   -10791798.00649  -8151289.13247  21670916.797    21670923.262
  22863407.621     7090636.72049   5513143.91546  22863407.792    22863415.180
  20309137.589    -5806825.11949  -4511423.08348  20309137.067    20309143.778
  23864072.512    -8951502.63749  -6948687.18945  23864072.376    23864080.809
  23139649.431     6980750.66549   5431805.96546  23139649.245    23139657.349
  22969243.929   -11499538.03249  -8938699.99046  22969243.104    22969252.433
 03  4 10 17 14  0.0000000  0  7G24G30G 4G 5G 6G 9G10
  20804319.997      435638.69149    340764.56948  20804319.779    20804327.252
  21655864.210   -10870898.11049  -8212925.56047  21655864.497    21655870.956
  22881433.394     7185362.32349   5586956.03346  22881433.503    22881440.918
  20305390.028    -5826518.86849  -4526768.86948  20305389.511    20305396.196
  23850916.454    -9020638.37049  -7002559.16946  23850916.285    23850924.707
  23157345.478     7073743.66949   5504267.98846  23157345.274    23157353.317
  22951633.296   -11592082.33049  -9010812.37446  22951632.466    22951641.634
 03  4 10 17 14 30.0000000  0  7G24G30G 4G 5G 6G 9G10
  20812495.776      478602.60049    374242.92148  20812495.559    20812502.987
  21640865.389   -10949717.39049  -8274343.15747  21640865.670    21640872.121
  22899494.758     7280274.95949   5660913.84946  22899494.839    22899502.297
  20301732.790    -5845737.66949  -4541744.56548  20301732.253    20301738.976
  23837770.537    -9089719.98849  -7056388.97546  23837770.485    23837778.947
  23175072.024     7166897.39949   5576855.26846  23175071.851    23175079.936
  22934062.456   -11684417.17149  -9082761.51946  22934061.680    22934070.972
 03  4 10 17 15  0.0000000  0  7G24G30G 4G 5G 6G 9G10
  20820752.031      521989.50049    408050.87748  20820751.814    20820759.274
  21625920.479   -11028253.47149  -8335540.08847  21625920.737    21625927.179
  22917591.195     7375372.15449   5735015.49046  22917591.252    22917598.774
  20298166.223    -5864480.17549  -4556349.12048  20298165.712    20298172.437
  23824634.919    -9158747.69249  -7110176.78246  23824634.799    23824643.283
  23192828.661     7260208.79049   5649565.37946  23192828.459    23192836.583
  22916532.317   -11776539.05649  -9154544.75146  22916531.445    22916540.680
 03  4 10 17 15 30.0000000  0  7G24G30G 4G 5G 6G 9G10
  20829088.347      565797.19749    442186.73048  20829088.152    20829095.603
  21611029.823   -11106504.04949  -8396514.54247  21611030.115    21611036.564
  22935722.307     7470651.49949   5809259.06646  22935722.359    22935729.901
  20294690.588    -5882744.93049  -4570581.40048  20294690.058    20294696.780
  23811509.580    -9227721.67749  -7163922.72546  23811509.475    23811517.937
  23210614.675     7353674.72649   5722395.92946  23210614.506    23210622.632
  22899043.206   -11868444.54449  -9226159.34346  22899042.283    22899051.574
 03  4 10 17 16  0.0000000  0  7G24G30G 4G 5G 6G 9G10
  20837504.410      610023.73849    476648.95048  20837504.216    20837511.662
  21596194.096   -11184466.35149  -8457264.37347  21596194.386    21596200.816
  22953887.749     7566110.87249   5883642.93446  22953887.784    22953895.255
  20291306.117    -5900530.36549  -4584440.18648  20291305.611    20291312.318
  23798394.559    -9296641.57349  -7217626.53446  23798394.454    23798402.929
  23228429.584     7447292.49049   5795344.77046  23228429.442    23228437.560
  22881596.010   -11960130.01849  -9297602.52846  22881595.141    22881604.269
 03  4 10 17 16 30.0000000  0  7G24G30G 4G 5G 6G 9G10
  20845999.713      654666.75249    511435.69448  20845999.525    20846006.973
  21581413.603   -11262138.42849  -8517788.05247  21581413.888    21581420.341
  22972086.726     7661747.01349   5958164.52846  22972086.755    22972094.275
  20288012.995    -5917835.86649  -4597924.99848  20288012.471    20288019.211
  23785289.723    -9365507.94549  -7271288.61746  23785289.617    23785298.100
  23246272.725     7541058.40949   5868409.07546  23246272.541    23246280.716
  22864191.207   -12051592.66849  -9368872.06946  22864190.360    22864199.543
 03  4 10 17 17  0.0000000  0  7G24G30G 4G 5G 6G 9G10
  20854573.922      699724.65149    546545.72448  20854573.749    20854581.227
  21566688.882   -11339517.52849  -8578083.44047  21566689.122    21566695.590
  22990318.941     7757557.90149   6032822.29946  22990319.013    22990326.544
  20284811.522    -5934659.62349  -4611034.42548  20284811.028    20284817.760
  23772195.159    -9434320.32749  -7324908.65246  23772195.131    23772203.499
  23264143.532     7634970.04249   5941586.91946  23264143.399    23264151.486
  22846829.569   -12142828.70149  -9439965.03346  22846828.670    22846837.838
 03  4 10 17 17 30.0000000  0  7G24G30G 4G 5G 6G 9G10
  20863226.624      745194.74649    581976.95248  20863226.449    20863233.930
  21552020.307   -11416601.49949  -8638148.85747  21552020.537    21552026.993
  23008583.918     7853540.84949   6107614.15246  23008584.029    23008591.567
  20281701.934    -5951000.59749  -4623767.65548  20281701.430    20281708.185
  23759110.858    -9503079.26149  -7378487.01546  23759110.750    23759119.186
  23282041.388     7729023.91849   6014875.59846  23282041.298    23282049.379
  22829511.627   -12233835.04149  -9510879.00546  22829510.729    22829519.952
 03  4 10 17 18  0.0000000  0  7G24G30G 4G 5G 6G 9G10
  20871957.429      791075.55549    617728.21348  20871957.255    20871964.783
  21537408.334   -11493387.62449  -8697982.18747  21537408.562    21537415.057
  23026881.285     7949693.64249   6182538.31346  23026881.341    23026888.938
  20278684.497    -5966857.33149  -4636123.55548  20278684.009    20278690.765
  23746036.630    -9571784.37449  -7432023.43646  23746036.611    23746045.082
  23299965.863     7823217.60649   6088273.22646  23299965.760    23299973.861
  22812237.992   -12324608.09549  -9581611.21846  22812237.137    22812246.322
 03  4 10 17 18 30.0000000  0  7G24G30G 4G 5G 6G 9G10
  20880765.913      837364.45249    653797.46448  20880765.767    20880773.288
  21522853.461   -11569873.79249  -8757581.78447  21522853.718    21522860.260
  23045210.330     8046013.57549   6257592.74846  23045210.422    23045218.091
  20275759.366    -5982228.91249  -4648101.41748  20275758.874    20275765.670
  23732972.640    -9640436.13049  -7485518.29446  23732972.585    23732980.989
  23317916.398     7917547.98449   6161777.35546  23317916.293    23317924.395
  22795009.442   -12415144.64949  -9652159.13446  22795008.564    22795017.774
 03  4 10 17 19  0.0000000  0  7G24G30G 4G 5G 6G 9G10
  20889651.787      884059.91349    690183.52248  20889651.615    20889659.137
  21508356.121   -11646057.40049  -8816945.62047  21508356.415    21508362.992
  23063570.804     8142498.19349   6332775.49746  23063570.932    23063578.563
  20272926.851    -5997113.87049  -4659700.08648  20272926.355    20272933.165
  23719918.913    -9709034.30749  -7538971.40146  23719918.822    23719927.157
  23335892.356     8012012.08249   6235385.67446  23335892.228    23335900.347
  22777826.503   -12505441.10349  -9722519.98046  22777825.720    22777834.795
 03  4 10 17 19 30.0000000  0  7G24G30G 4G 5G 6G 9G10
  20898614.553      931159.36549    726884.37348  20898614.370    20898621.899
  21493916.866   -11721936.00349  -8876071.79047  21493917.181    21493923.729
  23081962.100     8239145.02649   6408084.66746  23081962.260    23081969.850
  20270187.172    -6011511.05949  -4670918.67848  20270186.692    20270193.484
  23706875.203    -9777579.00749  -7592382.81346  23706875.092    23706883.623
  23353893.194     8106606.62849   6309095.66546  23353893.036    23353901.186
  22760689.914   -12595494.17849  -9792691.14246  22760689.123    22760698.343
 03  4 10 17 20  0.0000000  0  7G24G30G 4G 5G 6G 9G10
  20907653.787      978660.87949    763898.51748  20907653.623    20907661.155
  21479536.146   -11797507.24949  -8934958.46547  21479536.466    21479543.010
  23100383.890     8335951.72449   6483518.37846  23100384.007    23100391.582
  20267540.590    -6025419.14149  -4681756.15048  20267540.104    20267546.876
  23693841.780    -9846070.24649  -7645752.58746  23693841.635    23693850.061
  23371918.266     8201328.63949   6382904.95846  23371918.058    23371926.221
  22743600.266   -12685300.73549  -9862670.25546  22743599.444    22743608.556
 03  4 10 17 20 30.0000000  0  7G24G30G 4G 5G 6G 9G10
  20916769.148     1026562.27849    801224.26448  20916768.972    20916776.536
  21465214.370   -11872768.72349  -8993603.75347  21465214.691    21465221.190
  23118835.604     8432915.62749   6559074.60646  23118835.713    23118843.344
  20264987.252    -6038836.99449  -4692211.62048  20264986.762    20264993.560
  23680818.370    -9914508.02549  -7699080.68446  23680818.281    23680826.827
  23389967.013     8296175.23849   6456811.33646  23389966.833    23389974.963
  22726558.153   -12774857.26249  -9932454.50246  22726557.342    22726566.506
 03  4 10 17 21  0.0000000  0  7G24G30G 4G 5G 6G 9G10
  20925960.131     1074861.28849    838859.83848  20925959.969    20925967.542
  21450952.030   -11947718.02549  -9052005.79347  21450952.325    21450958.825
  23137316.747     8530034.49349   6634751.57946  23137316.859    23137324.495
  20262527.415    -6051763.39449  -4702284.14348  20262526.944    20262533.750
  23667805.273    -9982892.45049  -7752367.22846  23667805.150    23667813.676
  23408038.895     8391143.51349   6530812.52946  23408038.772    23408046.814
  22709564.247   -12864160.58849 -10002041.47646  22709563.417    22709572.583
 03  4 10 17 21 30.0000000  0  7G24G30G 4G 5G 6G 9G10
  20935226.445     1123555.99749    876803.75048  20935226.294    20935233.863
  21436749.486   -12022352.91049  -9110162.83247  21436749.787    21436756.253
  23155826.860     8627305.57649   6710547.14946  23155826.964    23155834.654
  20260161.315    -6064197.38749  -4711972.97148  20260160.852    20260167.662
  23654802.225   -10051223.66249  -7805612.29446  23654802.091    23654810.711
  23426133.369     8486230.33749   6604906.10646  23426133.235    23426141.270
  22692619.210   -12953207.22949 -10071428.42746  22692618.417    22692627.509
 03  4 10 17 22  0.0000000  0  7G24G30G 4G 5G 6G 9G10
  20944567.670     1172644.33849    915054.38948  20944567.498    20944575.062
  21422607.283   -12096670.58149  -9168072.69047  21422607.577    21422614.045
  23174365.639     8724726.92349   6786459.79946  23174365.740    23174373.470
  20257889.225    -6076137.50249  -4721276.95948  20257888.745    20257895.555
  23641809.440   -10119501.16049  -7858815.51346  23641809.256    23641817.811
  23444249.885     8581432.89649   6679089.85146  23444249.674    23444257.801
  22675723.754   -13041993.62749 -10140612.59846  22675722.943    22675731.981
 03  4 10 17 22 30.0000000  0  7G24G30G 4G 5G 6G 9G10
  20953983.316     1222123.86149    953609.84348  20953983.149    20953990.730
  21408525.847   -12170668.90649  -9225733.70547  21408526.146    21408532.621
  23192932.470     8822295.71849   6862487.33746  23192932.546    23192940.303
  20255711.233    -6087582.98149  -4730195.51648  20255710.743    20255717.547
  23628826.807   -10187725.39549  -7911977.23546  23628826.634    23628835.132
  23462387.762     8676748.03049   6753361.31446  23462387.557    23462395.834
  22658878.267   -13130516.68949 -10209591.57746  22658877.515    22658886.553
 03  4 10 17 23  0.0000000  0  7G24G30G 4G 5G 6G 9G10
  20963473.053     1271992.70849    992468.66448  20963472.890    20963480.483
  21394505.656   -12244345.19349  -9283143.78347  21394505.982    21394512.465
  23211526.897     8920009.86249   6938628.17746  23211526.964    23211534.798
  20253627.626    -6098532.42549  -4738727.55348  20253627.136    20253633.933
  23615854.333   -10255896.15649  -7965097.26846  23615854.174    23615862.710
  23480546.530     8772173.13849   6827718.48346  23480546.425    23480554.730
  22642083.696   -13218772.65749 -10278362.42446  22642082.922    22642091.966
 03  4 10 17 23 30.0000000  0  7G24G30G 4G 5G 6G 9G10
  20973036.396     1322248.21449   1031628.78448  20973036.219    20973043.826
  21380547.194   -12317697.38949  -9340301.32347  21380547.515    21380554.025
  23230148.420     9017866.67049   7014880.17946  23230148.543    23230156.399
  20251638.542    -6108985.06249  -4746872.46848  20251638.073    20251644.875
  23602891.896   -10324013.75349  -8018175.87446  23602891.798    23602900.343
  23498725.745     8867704.85949   6902158.73246  23498725.611    23498733.862
  22625340.506   -13306758.61849 -10346922.88046  22625339.743    22625348.749
 03  4 10 17 24  0.0000000  0  7G24G30G 4G 5G 6G 9G10
  20982672.898     1372888.37349   1071088.63148  20982672.748    20982680.328
  21366650.884   -12390723.05049  -9397204.41747  21366651.195    21366657.720
  23248796.675     9115863.64449   7091241.37146  23248796.813    23248804.629
  20249744.248    -6118939.76549  -4754629.37848  20249743.764    20249750.586
  23589939.801   -10392077.91249  -8071212.84146  23589939.615    23589948.074
  23516924.593     8963340.19049   6976679.70246  23516924.472    23516932.692
  22608649.360   -13394471.33649 -10415270.41146  22608648.558    22608657.551
 03  4 10 17 24 30.0000000  0  7G24G30G 4G 5G 6G 9G10
  20992382.235     1423911.06749   1110846.55448  20992382.076    20992389.658
  21352817.209   -12463419.29549  -9453850.82847  21352817.532    21352824.024
  23267471.158     9213998.75949   7167710.23346  23267471.355    23267479.164
  20247944.931    -6128395.33449  -4761997.35848  20247944.450    20247951.254
  23576997.788   -10460088.54249  -8124208.09946  23576997.615    23577006.018
  23535142.542     9059076.04249   7051278.99646  23535142.430    23535150.737
  22592010.888   -13481907.30949 -10483402.30246  22592010.057    22592019.033
 03  4 10 17 25  0.0000000  0  7G24G30G 4G 5G 6G 9G10
  21002163.957     1475314.09849   1150900.84448  21002163.794    21002171.332
  21339046.683   -12535784.09349  -9510238.96047  21339046.995    21339053.488
  23286171.481     9312269.32649   7244284.60246  23286171.639    23286179.513
  20246240.787    -6137350.83349  -4768975.67248  20246240.299    20246247.085
  23564065.910   -10528045.89049  -8177161.84146  23564065.776    23564074.086
  23553379.085     9154909.44849   7125954.31046  23553378.955    23553387.350
  22575425.632   -13569063.23149 -10551315.96846  22575424.819    22575433.808
 03  4 10 17 25 30.0000000  0  7G24G30G 4G 5G 6G 9G10
  21012017.657     1527095.47149   1191249.94448  21012017.503    21012025.041
  21325339.654   -12607815.02349  -9566366.94147  21325339.974    21325346.425
  23304897.245     9410673.33249   7320962.97446  23304897.405    23304905.313
  20244631.930    -6145805.40349  -4775563.65448  20244631.443    20244638.239
  23551144.237   -10595949.88249  -8230074.00346  23551144.063    23551152.316
  23571633.694     9250837.71549   7200703.54546  23571633.557    23571641.953
  22558894.295   -13655935.78349 -10619008.82646  22558893.464    22558902.501
 03  4 10 17 26  0.0000000  0  7G24G30G 4G 5G 6G 9G10
  21021942.889     1579252.84349   1231892.03247  21021942.732    21021950.276
  21311696.547   -12679510.05549  -9622233.18147  21311696.859    21311703.287
  23323647.850     9509207.69949   7397742.94546  23323647.974    23323655.904
  20243118.573    -6153758.18949  -4781760.63248  20243118.091    20243124.867
  23538232.488   -10663800.73549  -8282944.75346  23538232.421    23538240.693
  23589905.760     9346857.72749   7275524.28346  23589905.578    23589913.960
  22542417.446   -13742522.00049 -10686478.55946  22542416.600    22542425.662
 03  4 10 17 26 30.0000000  0  7G24G30G 4G 5G 6G 9G10
  21031939.216     1631784.00149   1272825.38047  21031939.111    21031946.635
  21298117.963   -12750866.00149  -9677835.20047  21298118.270    21298124.674
  23342422.826     9607870.73649   7474623.14146  23342422.987    23342430.922
  20241701.017    -6161207.66949  -4787565.42248  20241700.492    20241707.281
  23525331.182   -10731598.00649  -8335773.74546  23525331.072    23525339.328
  23608194.702     9442966.74049   7350414.36446  23608194.537    23608202.959
  22525995.718   -13828818.02249 -10753722.15946  22525994.958    22526004.016
 03  4 10 17 27  0.0000000  0  7G24G30G 4G 5G 6G 9G10
  21042006.304     1684686.50649   1314048.08747  21042006.172    21042013.688
  21284604.254   -12821880.95049  -9733171.50647  21284604.535    21284610.948
  23361221.803     9706659.67449   7551601.46946  23361221.943    23361229.929
  20240379.319    -6168153.20049  -4792977.52748  20240378.827    20240385.622
  23512439.857   -10799342.13049  -8388561.33746  23512439.727    23512447.978
  23626500.148     9539161.68149   7425371.40046  23626499.934    23626508.399
  22509629.964   -13914820.71749 -10820737.21446  22509629.198    22509638.163
 03  4 10 17 27 30.0000000  0  7G24G30G 4G 5G 6G 9G10
  21052143.677     1737958.55949   1355558.75347  21052143.524    21052151.048
  21271155.898   -12892552.44849  -9788240.19347  21271156.185    21271162.617
  23380044.363     9805572.47649   7628676.29646  23380044.462    23380052.479
  20239153.719    -6174593.80449  -4797996.18348  20239153.196    20239159.997
  23499558.650   -10867033.01749  -8441307.45446  23499558.554    23499566.827
  23644821.191     9635439.46749   7500392.97646  23644820.981    23644829.463
  22493320.589   -14000526.79749 -10887521.12246  22493319.788    22493328.791
 03  4 10 17 28  0.0000000  0  7G24G30G 4G 5G 6G 9G10
  21062350.829     1791597.57049   1397355.36147  21062350.698    21062358.217
  21257773.329   -12962878.06549  -9843039.36147  21257773.640    21257780.089
  23398889.932     9904606.61149   7705845.66646  23398890.036    23398898.066
  20238024.353    -6180528.63049  -4802620.72448  20238023.858    20238030.658
  23486687.781   -10934670.49449  -8494011.95046  23486687.605    23486695.884
  23663157.523     9731797.13849   7575476.80846  23663157.337    23663165.798
  22477068.298   -14085933.17149 -10954071.48746  22477067.480    22477076.535
 03  4 10 17 28 30.0000000  0  7G24G30G 4G 5G 6G 9G10
  21072627.430     1845601.34149   1439436.19547  21072627.304    21072634.826
  21244457.054   -13032855.31449  -9897567.07647  21244457.378    21244463.833
  23417758.248    10003759.51149   7783107.58746  23417758.313    23417766.305
  20236991.432    -6185956.62649  -4806850.33748  20236990.953    20236997.742
  23473826.922   -11002254.54649  -8546674.81846  23473826.758    23473834.905
  23681508.470     9828231.82949   7650620.66546  23681508.303    23681516.690
  22460873.675   -14171036.34449 -11020385.60746  22460872.861    22460881.889
 03  4 10 17 29  0.0000000  0  7G24G30G 4G 5G 6G 9G10
  21082973.048     1899967.62949   1481799.50947  21082972.901    21082980.427
  21231207.544   -13102481.90849  -9951821.55247  21231207.891    21231214.340
  23436648.739    10103029.30749   7860460.61446  23436648.786    23436656.745
  20236055.130    -6190876.91549  -4810684.33848  20236054.641    20236061.433
  23460976.247   -11069785.15349  -8599296.01946  23460976.095    23460984.222
  23699873.563     9924740.62349   7725822.25346  23699873.369    23699881.803
  22444737.445   -14255832.86549 -11086460.77646  22444736.603    22444745.593
 03  4 10 17 29 30.0000000  0  7G24G30G 4G 5G 6G 9G10
  21093387.176     1954694.19049   1524443.55247  21093387.032    21093394.590
  21218025.295   -13171755.18849 -10005800.71747  21218025.636    21218032.081
  23455560.938    10202413.68949   7937902.91046  23455561.033    23455569.029
  20235215.673    -6195288.28249  -4814121.77448  20235215.192    20235221.998
  23448135.706   -11137262.26749  -8651875.54246  23448135.554    23448143.749
  23718252.113    10021320.61749   7801079.31946  23718251.985    23718260.545
  22428660.123   -14340319.50749 -11152294.46246  22428659.302    22428668.269
 03  4 10 17 30  0.0000000  0  7G24G30G 4G 5G 6G 9G10
  21103869.477     2009779.06449   1567366.80347  21103869.335    21103876.905
  21204910.766   -13240672.73749 -10059502.68347  21204911.076    21204917.504
  23474494.573    10301910.46849   8015432.80046  23474494.695    23474502.684
  20234473.225    -6199189.93649  -4817162.03348  20234472.746    20234479.537
  23435305.382   -11204685.73449  -8704413.25746  23435305.265    23435313.533
  23736643.734    10117969.03249   7876389.70246  23736643.643    23736652.203
  22412642.389   -14424492.97949 -11217884.13546  22412641.572    22412650.503
 03  4 10 17 30 30.0000000  0  7G24G30G 4G 5G 6G 9G10
  21114419.590     2065220.18349   1610567.64447  21114419.461    21114427.037
  21191864.340   -13309232.29249 -10112925.70147  21191864.617    21191871.019
  23493449.118    10401516.92049   8093048.14146  23493449.283    23493457.292
  20233827.876    -6202581.43649  -4819804.77248  20233827.383    20233834.175
  23422485.427   -11272055.60349  -8756909.22146  23422485.231    23422493.405
  23755047.826    10214682.77249   7951750.98046  23755047.722    23755056.265
  22396684.850   -14508350.03749 -11283227.24446  22396684.038    22396692.960
 03  4 10 17 31  0.0000000  0  7G24G30G 4G 5G 6G 9G10
  21125036.976     2121014.73649   1654043.88747  21125036.851    21125044.440
  21178886.411   -13377431.72049 -10166068.09447  21178886.712    21178893.116
  23512424.055    10501230.86449   8170747.21946  23512424.267    23512432.319
  20233279.768    -6205461.86749  -4822049.27148  20233279.282    20233286.045
  23409675.450   -11339372.09749  -8809363.57646  23409675.249    23409683.429
  23773463.754    10311458.76649   8027160.78946  23773463.593    23773472.123
  22380788.157   -14591887.51549 -11348321.32246  22380787.364    22380796.271
 03  4 10 17 31 30.0000000  0  7G24G30G 4G 5G 6G 9G10
  21135721.287     2177161.12549   1697794.29147  21135721.145    21135728.775
  21165977.501   -13445268.34149 -10218927.78547  21165977.799    21165984.191
  23531419.079    10601050.20249   8248528.45746  23531419.287    23531427.419
  20232829.128    -6207829.99849  -4823894.57448  20232828.644    20232835.421
  23396875.789   -11406634.64749  -8861775.90946  23396875.590    23396883.716
  23791890.938    10408294.40849   8102617.04946  23791890.807    23791899.423
  22364952.956   -14675101.95549 -11413163.70046  22364952.136    22364960.996
 03  4 10 17 32  0.0000000  0  7G24G30G 4G 5G 6G 9G10
  21146472.070     2233656.66049   1741816.75247  21146471.932    21146479.539
  21153138.103   -13512739.82149 -10271502.95147  21153138.397    21153144.813
  23550433.722    10700972.45349   8326389.88546  23550433.893    23550441.994
  20232476.078    -6209685.43249  -4825340.38048  20232475.609    20232482.373
  23384086.304   -11473843.36249  -8914146.28446  23384086.144    23384094.265
  23810328.976    10505186.65749   8178117.41546  23810328.882    23810337.564
  22349179.795   -14757990.23349 -11477751.91846  22349179.015    22349187.850
 03  4 10 17 32 30.0000000  0  7G24G30G 4G 5G 6G 9G10
  21157288.798     2290498.67649   1786109.20247  21157288.664    21157296.251
  21140368.533   -13579844.06849 -10323791.95847  21140368.857    21140375.253
  23569467.563    10800995.14749   8404329.56346  23569467.687    23569475.785
  20232220.689    -6211027.52749  -4826386.17448  20232220.215    20232226.996
  23371307.086   -11540998.60249  -8966474.98646  23371306.891    23371314.930
  23828777.241    10602132.25749   8253659.38646  23828777.131    23828785.763
  22333469.383   -14840549.10149 -11542083.44346  22333468.542    22333477.403
 03  4 10 17 33  0.0000000  0  7G24G30G 4G 5G 6G 9G10
  21168171.124     2347685.66749   1830670.46047  21168170.990    21168178.568
  21127669.420   -13646578.33649 -10375792.67247  21127669.759    21127676.156
  23588520.135    10901116.41949   8482346.07146  23588520.217    23588528.301
  20232063.191    -6211855.11949  -4827031.06348  20232062.714    20232069.522
  23358538.060   -11608100.08949  -9018761.81846  23358537.891    23358545.808
  23847235.040    10699128.72749   8329240.98946  23847234.963    23847243.637
  22317822.225   -14922775.24649 -11606155.70646  22317821.394    22317830.249
 03  4 10 17 33 30.0000000  0  7G24G30G 4G 5G 6G 9G10
  21179118.616     2405215.13549   1875498.58747  21179118.491    21179126.075
  21115041.126   -13712940.46549 -10427503.40247  21115041.441    21115047.843
  23607590.938    11001333.71849   8560437.40546  23607590.974    23607599.081
  20232003.712    -6212167.64649  -4827274.60048  20232003.236    20232010.043
  23345779.265   -11675147.77049  -9071006.69446  23345779.064    23345787.059
  23865701.927    10796173.05649   8404859.86546  23865701.909    23865710.540
  22302239.007   -15004665.67749 -11669966.37846  22302238.152    22302246.969
 03  4 10 17 34  0.0000000  0  7G24G30G 4G 5G 6G 9G10
  21190130.896     2463084.96949   1920591.93047  21190130.768    21190138.340
  21102484.168   -13778927.73849 -10478922.04247  21102484.464    21102490.857
  23626679.708    11101645.53149   8638602.36945  23626679.779    23626687.864
  20232042.473    -6211964.13149  -4827116.02748  20232041.989    20232048.794
  23333030.634   -11742141.35149  -9123209.42446  23333030.519    23333038.596
  23884177.514    10893262.58349   8480513.96646  23884177.518    23884186.161
  22286720.399   -15086216.43549 -11733512.38246  22286719.565    22286728.300
 03  4 10 17 34 30.0000000  0  7G24G30G 4G 5G 6G 9G10
  21201207.531     2521292.93249   1965948.75347  21201207.400    21201215.014
  21089998.951   -13844537.97849 -10530046.88947  21089999.277    21090005.644
  23645785.871    11202049.24049   8716838.93945  23645785.963    23645794.050
  20232179.501    -6211243.93649  -4826554.84548  20232179.034    20232185.833
  23320292.459   -11809080.90749  -9175370.05446  23320292.357    23320300.336
  23902661.142    10990394.31449   8556200.96646  23902661.142    23902669.817
  22271266.898   -15167424.64049 -11796791.44646  22271266.103    22271274.853
 03  4 10 17 35  0.0000000  0  7G24G30G 4G 5G 6G 9G10
  21212347.948     2579836.39749   2011567.00947  21212347.837    21212355.451
  21077585.922   -13909768.84149 -10580876.11347  21077586.231    21077592.592
  23664909.028    11302542.32849   8795145.15445  23664909.164    23664917.295
  20232415.002    -6210006.59049  -4825590.68248  20232414.541    20232421.327
  23307564.603   -11875966.43949  -9227488.60446  23307564.419    23307572.451
  23921152.272    11087565.41049   8631918.62546  23921152.211    23921160.973
  22255879.197   -15248287.39949 -11859801.32246  22255878.366    22255887.165
 03  4 10 17 35 30.0000000  0  7G24G30G 4G 5G 6G 9G10
  21223551.952     2638713.61949   2057445.33247  21223551.841    21223559.472
  21065245.566   -13974617.81349 -10631407.76947  21065245.884    21065252.220
  23684048.973    11403123.08849   8873519.67245  23684049.154    23684057.264
  20232749.113    -6208251.08649  -4824222.76448  20232748.630    20232755.413
  23294846.918   -11942797.43349  -9279564.63746  23294846.793    23294854.887
  23939650.329    11184773.10949   8707664.82246  23939650.275    23939659.026
  22240557.984   -15328801.08249 -11922539.21746  22240557.152    22240565.832
 03  4 10 17 36  0.0000000  0  7G24G30G 4G 5G 6G 9G10
  21234818.963     2697921.76949   2103581.51847  21234818.831    21234826.447
  21052978.298   -14039082.73849 -10681640.16347  21052978.596    21052984.932
  23703205.141    11503788.97249   8951960.53245  23703205.262    23703213.478
  20233181.809    -6205977.13349  -4822450.86548  20233181.330    20233188.135
  23282139.662   -12009574.25649  -9331598.47046  23282139.570    23282147.671
  23958154.702    11282014.08649   8783436.95546  23958154.694    23958163.366
  22225303.689   -15408962.67749 -11985002.76046  22225302.853    22225311.491
 03  4 10 17 36 30.0000000  0  7G24G30G 4G 5G 6G 9G10
  21246148.493     2757458.61649   2149973.83247  21246148.327    21246155.926
  21040784.515   -14103161.36449 -10731571.54347  21040784.808    21040791.145
  23722377.124    11604537.74149   9030465.99745  23722377.260    23722385.492
  20233713.327    -6203184.10249  -4820274.48448  20233712.852    20233719.621
  23269442.639   -12076297.06249  -9383590.19946  23269442.550    23269450.614
  23976664.897    11379285.61949   8859232.87846  23976664.900    23976673.557
  22210116.997   -15488769.06949 -12047189.51246  22210116.187    22210124.795
 03  4 10 17 37  0.0000000  0  7G24G30G 4G 5G 6G 9G10
  21257540.186     2817322.19749   2196620.74447  21257540.021    21257547.611
  21028664.784   -14166851.11949 -10781199.90947  21028665.078    21028671.398
  23741564.428    11705367.35649   9109034.43445  23741564.547    23741572.822
  20234343.750    -6199871.20649  -4817693.01948  20234343.256    20234350.032
  23256756.138   -12142965.46649  -9435539.58246  23256756.003    23256763.951
  23995180.398    11476584.99349   8935050.50546  23995180.392    23995189.050
  22194998.575   -15568216.79449 -12109096.80246  22194997.763    22195006.353
 03  4 10 17 37 30.0000000  0  7G24G30G 4G 5G 6G 9G10
  21268993.480     2877509.55849   2243519.95547  21268993.332    21269000.928
  21016619.354   -14230150.22349 -10830523.87047  21016619.647    21016625.977
  23760766.632    11806275.24649   9187663.86445  23760766.784    23760775.058
  20235073.128    -6196038.30249  -4814706.35048  20235072.641    20235079.419
  23244079.808   -12209579.78549  -9487446.78746  23244079.669    23244087.627
  24013700.615    11573908.98649   9010887.32646  24013700.571    24013709.326
  22179948.886   -15647303.13149 -12170722.48746  22179948.072    22179956.659
 03  4 10 17 38  0.0000000  0  7G24G30G 4G 5G 6G 9G10
  21280508.071     2938018.90849   2290670.06047  21280507.901    21280515.520
  21004648.811   -14293055.68149 -10879541.10147  21004649.114    21004655.452
  23779983.410    11907259.67049   9266352.94345  23779983.590    23779991.828
  20235901.691    -6191684.34749  -4811313.67548  20235901.207    20235907.982
  23231413.935   -12276139.36249  -9539311.34946  23231413.797    23231421.738
  24032225.078    11671255.11649   9086741.38745  24032224.927    24032233.751
  22164968.690   -15726024.44149 -12232063.72646  22164967.852    22164976.498
 03  4 10 17 38 30.0000000  0  7G24G30G 4G 5G 6G 9G10
  21292083.576     2998848.43549   2338069.65847  21292083.437    21292091.021
  20992753.662   -14355565.23249 -10928249.82747  20992753.959    20992760.286
  23799214.367    12008318.56549   9345100.05345  23799214.496    23799222.745
  20236829.538    -6186808.56649  -4807514.37948  20236829.045    20236835.836
  23218758.518   -12342644.03449  -9591133.13646  23218758.398    23218766.247
  24050753.143    11768620.77749   9162610.65945  24050753.030    24050761.908
  22150058.560   -15804377.43949 -12293117.98646  22150057.734    22150066.403
 03  4 10 17 39  0.0000000  0  7G24G30G 4G 5G 6G 9G10
  21303719.501     3059995.35749   2385716.57847  21303719.352    21303726.945
  20980934.205   -14417676.80849 -10976648.44147  20980934.491    20980940.804
  23818458.954    12109449.56349   9423903.33745  23818459.124    23818467.381
  20237856.659    -6181410.97949  -4803308.48248  20237856.174    20237862.983
  23206113.478   -12409093.98949  -9642912.27946  23206113.362    23206121.202
  24069284.422    11866002.69449   9238492.62745  24069284.281    24069293.116
  22135219.039   -15882359.40949 -12353883.12446  22135218.237    22135226.884
 03  4 10 17 39 30.0000000  0  7G24G30G 4G 5G 6G 9G10
  21315415.375     3121457.44349   2433609.07747  21315415.235    21315422.841
  20969190.947   -14479387.93949 -11024735.02247  20969191.241    20969197.562
  23837716.928    12210650.57449   9502761.19945  23837717.052    23837725.352
  20238983.193    -6175491.03849  -4798695.55048  20238982.714    20238989.515
  23193478.875   -12475489.06049  -9694648.66946  23193478.769    23193486.570
  24087818.152    11963398.16449   9314385.12245  24087818.080    24087826.928
  22120450.819   -15959966.98349 -12414356.53846  22120449.981    22120458.574
 03  4 10 17 40  0.0000000  0  7G24G30G 4G 5G 6G 9G10
  21327170.769     3183232.46749   2481745.42947  21327170.647    21327178.271
  20957524.259   -14540696.49349 -11072507.90647  20957524.588    20957530.923
  23856987.867    12311919.44449   9581671.91845  23856987.991    23856996.297
  20240209.248    -6169048.05049  -4793675.05248  20240208.775    20240215.584
  23180854.711   -12541829.24349  -9746342.28546  23180854.598    23180862.385
  24106353.971    12060804.27549   9390285.94145  24106353.858    24106362.813
  22105754.377   -16037197.43549 -12474536.08546  22105753.515    22105762.136
 03  4 10 17 40 30.0000000  0  7G24G30G 4G 5G 6G 9G10
  21338985.280     3245317.95149   2530123.69147  21338985.148    21338992.781
  20945934.741   -14601599.83549 -11119965.04447  20945935.061    20945941.389
  23876271.247    12413254.14549   9660633.94345  23876271.420    23876279.734
  20241534.983    -6162081.34149  -4788246.46148  20241534.517    20241541.332
  23168241.175   -12608114.18749  -9797992.85246  23168240.991    23168248.728
  24124891.272    12158218.32949   9466192.90145  24124891.196    24124900.207
  22091130.376   -16114047.00549 -12534418.84446  22091129.509    22091138.099
 03  4 10 17 41  0.0000000  0  7G24G30G 4G 5G 6G 9G10
  21350858.495     3307711.83049   2578742.26247  21350858.338    21350865.977
  20934422.750   -14662095.89349 -11167104.81747  20934423.051    20934429.391
  23895566.738    12514652.36549   9739645.45345  23895566.963    23895575.299
  20242960.384    -6154590.83749  -4782409.72248  20242959.920    20242966.741
  23155637.997   -12674343.98349  -9849600.45346  23155637.816    23155645.628
  24143429.613    12255637.15149   9542103.60245  24143429.492    24143438.361
  22076579.368   -16190512.89749 -12594002.62547  22076578.543    22076587.089
 03  4 10 17 41 30.0000000  0  7G24G30G 4G 5G 6G 9G10
  21362789.948     3370411.96949   2627599.48147  21362789.798    21362797.458
  20922988.746   -14722182.05149 -11213925.18747  20922989.036    20922995.352
  23914874.028    12616112.60249   9818705.29745  23914874.287    23914882.705
  20244485.631    -6146575.59249  -4776164.08348  20244485.165    20244492.001
  23143045.458   -12740518.03449  -9901164.63146  23143045.303    23143053.110
  24161968.282    12353058.63149   9618016.38245  24161968.188    24161977.118
  22062102.040   -16266591.46149 -12653284.59547  22062101.245    22062109.807
 03  4 10 17 42  0.0000000  0  7G24G30G 4G 5G 6G 9G10
  21374779.134     3433415.51449   2676693.11647  21374778.998    21374786.657
  20911632.995   -14781856.53849 -11260424.77647  20911633.327    20911639.649
  23934192.594    12717632.02149   9897811.25245  23934192.873    23934201.251
  20246110.723    -6138035.73249  -4769509.65748  20246110.259    20246117.082
  23130463.445   -12806636.69049  -9952685.63046  23130463.324    23130471.097
  24180506.929    12450479.26149   9693928.48845  24180506.883    24180515.753
  22047698.869   -16342280.37349 -12712262.94047  22047698.086    22047706.656
 03  4 10 17 42 30.0000000  0  7G24G30G 4G 5G 6G 9G10
  21386825.745     3496720.68649   2726021.78847  21386825.599    21386833.245
  20900356.163   -14841116.64049 -11306601.46548  20900356.494    20900362.790
  23953522.138    12819209.17149   9976962.20145  23953522.351    23953530.773
  20247835.839    -6128970.37749  -4762445.75848  20247835.365    20247842.186
  23117892.144   -12872699.39849 -10004163.04646  23117892.056    23117899.765
  24199044.927    12547896.70449   9769838.09745  24199044.820    24199053.789
  22033370.566   -16417576.08049 -12770934.89147  22033369.795    22033378.329
 03  4 10 17 43  0.0000000  0  7G24G30G 4G 5G 6G 9G10
  21398929.289     3560325.06249   2775583.60347  21398929.140    21398936.798
  20889158.538   -14899960.43149 -11352453.75948  20889158.886    20889165.173
  23972862.185    12920841.50649  10056156.14845  23972862.453    23972870.919
  20249660.905    -6119379.54849  -4754972.40048  20249660.442    20249667.270
  23105331.389   -12938706.47549 -10055597.09946  23105331.282    23105338.974
  24217581.745    12645307.89749   9845742.85745  24217581.687    24217590.560
  22019117.712   -16492475.58949 -12829298.11847  22019116.922    22019125.470
 03  4 10 17 43 30.0000000  0  7G24G30G 4G 5G 6G 9G10
  21411089.313     3624226.34249   2825376.77647  21411089.191    21411096.840
  20878040.633   -14958385.54649 -11397979.80948  20878040.963    20878047.235
  23992212.230    13022526.90449  10135391.43145  23992212.586    23992221.106
  20251586.050    -6109262.80349  -4747089.23348  20251585.579    20251592.430
  23092781.420   -13004657.67849 -10106987.62446  23092781.260    23092788.842
  24236116.809    12742710.04849   9921640.52245  24236116.646    24236125.677
  22004940.762   -16566975.93049 -12887350.30047  22004939.937    22004948.444
 03  4 10 17 44  0.0000000  0  7G24G30G 4G 5G 6G 9G10
  21423305.433     3688422.42949   2875399.66647  21423305.324    21423312.968
  20867002.835   -15016389.53049 -11443177.70948  20867003.144    20867009.442
  24011572.185    13124263.79649  10214666.82845  24011572.454    24011580.996
  20253611.408    -6098619.65449  -4738795.88548  20253610.937    20253617.799
  23080242.012   -13070552.61249 -10158334.31046  23080241.851    23080249.483
  24254649.668    12840100.64749   9997529.24445  24254649.566    24254658.527
  21990840.328   -16641074.00949 -12945089.03247  21990839.469    21990848.035
 03  4 10 17 44 30.0000000  0  7G24G30G 4G 5G 6G 9G10
  21435577.171     3752910.75149   2925650.27847  21435577.049    21435584.694
  20856045.575   -15073970.25449 -11488045.79648  20856045.880    20856052.198
  24030941.498    13226049.72849  10293980.46945  24030941.655    24030950.341
  20255736.956    -6087449.84249  -4730092.15548  20255736.485    20255743.368
  23067713.270   -13136391.32549 -10209637.18446  23067713.115    23067720.808
  24273179.797    12937476.74549  10073406.65145  24273179.647    24273188.623
  21976817.044   -16714766.69549 -13002511.86447  21976816.187    21976824.785
 03  4 10 17 45  0.0000000  0  7G24G30G 4G 5G 6G 9G10
  21447904.149     3817689.29649   2976127.03347  21447904.025    21447911.677
  20845169.305   -15131125.35049 -11532582.22248  20845169.619    20845175.965
  24050319.824    13327883.25049  10373331.16645  24050320.050    24050328.785
  20257962.838    -6075752.93349  -4720977.69148  20257962.364    20257969.235
  23055195.302   -13202173.50349 -10260896.00046  23055195.150    23055202.836
  24291706.549    13034835.60349  10149270.58345  24291706.421    24291715.541
  21962871.520   -16788050.66649 -13059616.22647  21962870.671    21962879.244
 03  4 10 17 45 30.0000000  0  7G24G30G 4G 5G 6G 9G10
  21460285.889     3882755.66849   3026828.06847  21460285.763    21460293.430
  20834374.484   -15187852.41049 -11576785.11848  20834374.812    20834381.170
  24069706.851    13429762.05149  10452717.16645  24069706.999    24069715.781
  20260289.039    -6063528.55549  -4711452.21048  20260288.574    20260295.455
  23042688.108   -13267898.70549 -10312110.41246  23042687.969    23042695.713
  24310229.687    13132174.58949  10225119.08545  24310229.638    24310238.625
  21949004.361   -16860923.01649 -13116399.84647  21949003.521    21949012.081
 03  4 10 17 46  0.0000000  0  7G24G30G 4G 5G 6G 9G10
  21472721.983     3948107.58749   3077751.61047  21472721.834    21472729.538
  20823661.488   -15244149.63049 -11620653.07048  20823661.819    20823668.175
  24089102.024    13531683.91649  10532136.69345  24089102.172    24089110.975
  20262715.567    -6050776.90049  -4701515.87048  20262715.124    20262722.028
  23030191.753   -13333567.22449 -10363280.66346  23030191.620    23030199.435
  24328748.314    13229490.70149  10300949.70245  24328748.238    24328757.375
  21935215.959   -16933381.24049 -13172860.76647  21935215.117    21935223.637
 03  4 10 17 46 30.0000000  0  7G24G30G 4G 5G 6G 9G10
  21485211.940     4013742.53649   3128895.69647  21485211.777    21485219.508
  20813030.751   -15300014.62449 -11664184.22348  20813031.058    20813037.393
  24108504.939    13633646.87849  10611588.25445  24108505.119    24108514.043
  20265242.565    -6037497.56849  -4691168.35148  20265242.115    20265249.007
  23017706.239   -13399178.81049 -10414406.54646  23017706.124    23017713.932
  24347262.274    13326781.35249  10376760.52345  24347262.211    24347271.321
  21921506.962   -17005422.18749 -13228996.52647  21921506.168    21921514.737
 03  4 10 17 47  0.0000000  0  7G24G30G 4G 5G 6G 9G10
  21497755.288     4079658.41549   3180258.68647  21497755.164    21497762.913
  20802482.677   -15355444.99649 -11707376.71048  20802482.991    20802489.317
  24127915.380    13735649.20249  10691070.46845  24127915.582    24127924.529
  20267870.087    -6023689.92449  -4680409.16448  20267869.626    20267876.529
  23005231.609   -13464733.06549 -10465487.76046  23005231.550    23005239.374
  24365770.852    13424044.17049  10452549.64245  24365770.748    24365779.785
  21907878.057   -17077042.45449 -13284804.48447  21907877.272    21907885.808
 03  4 10 17 47 30.0000000  0  7G24G30G 4G 5G 6G 9G10
  21510351.723     4145852.98949   3231838.84147  21510351.603    21510359.355
  20792017.647   -15410438.91749 -11750229.10648  20792017.976    20792024.304
  24147332.977    13837688.72049  10770581.65945  24147333.108    24147342.123
  20270598.111    -6009354.18149  -4669238.47048  20270597.657    20270604.568
  22992768.033   -13530230.09549 -10516524.38346  22992767.888    22992775.679
  24384273.501    13521275.86449  10528314.53245  24384273.360    24384282.289
  21894329.750   -17148239.21449 -13340282.43247  21894328.961    21894337.485
 03  4 10 17 48  0.0000000  0  7G24G30G 4G 5G 6G 9G10
  21523000.770     4212323.86749   3283634.29847  21523000.597    21523008.377
  20781636.106   -15464994.30549 -11792739.78748  20781636.422    20781642.748
  24166757.174    13939763.20649  10850120.12545  24166757.331    24166766.312
  20273426.625    -5994490.28849  -4657656.22948  20273426.159    20273433.088
  22980315.191   -13595669.89049 -10567516.40446  22980315.059    22980322.889
  24402769.535    13618473.66649  10604052.98445  24402769.434    24402778.688
  21880862.532   -17219009.85249 -13395428.33747  21880861.745    21880870.253
 03  4 10 17 48 30.0000000  0  7G24G30G 4G 5G 6G 9G10
  21535701.956     4279069.15449   3335643.58447  21535701.814    21535709.633
  20771338.569   -15519108.27149 -11834906.50448  20771338.911    20771345.212
  24186187.791    14041871.27149  10929684.75145  24186187.920    24186196.877
  20276355.752    -5979097.53849  -4645661.89448  20276355.301    20276362.227
  22967873.543   -13661051.53249 -10618463.11546  22967873.362    22967881.240
  24421258.911    13715635.48249  10679763.38945  24421258.805    24421268.012
  21867477.062   -17289350.72749 -13450239.36347  21867476.262    21867484.835
 03  4 10 17 49  0.0000000  0  7G24G30G 4G 5G 6G 9G10
  21548454.858     4346086.29249   3387864.70047  21548454.775    21548462.612
  20761125.321   -15572779.31049 -11876728.08248  20761125.632    20761131.908
  24205624.325    14144010.41549  11009273.58545  24205624.484    24205633.424
  20279385.466    -5963176.42649  -4633255.84848  20279385.014    20279391.926
  22955442.710   -13726375.60849 -10669364.97346  22955442.538    22955450.431
  24439740.833    13812757.74149  10755443.00545  24439740.729    24439749.729
  21854173.832   -17359259.53649 -13504713.71347  21854173.041    21854181.576
 03  4 10 17 49 30.0000000  0  7G24G30G 4G 5G 6G 9G10
  21561259.225     4413373.41949   3440296.19947  21561259.111    21561266.931
  20750996.902   -15626004.56249 -11918202.29348  20750997.214    20751003.476
  24225066.496    14246179.33349  11088885.63745  24225066.695    24225075.605
  20282515.880    -5946726.01549  -4620437.35948  20282515.417    20282522.346
  22943023.056   -13791641.01149 -10720221.10746  22943022.896    22943030.753
  24458214.720    13909838.53749  10831090.27845  24458214.570    24458223.740
  21840953.517   -17428732.54849 -13558848.48147  21840952.723    21840961.230
 03  4 10 17 50  0.0000000  0  7G24G30G 4G 5G 6G 9G10
  21574114.397     4480927.71549   3492935.87647  21574114.311    21574122.134
  20740953.582   -15678782.36049 -11959327.84248  20740953.916    20740960.189
  24244513.940    14348375.44249  11168518.89445  24244514.092    24244522.945
  20285746.948    -5929746.73149  -4607206.76948  20285746.480    20285753.423
  22930614.531   -13856848.22349 -10771031.90546  22930614.426    22930622.175
  24476680.153    14006874.57849  10906702.67845  24476679.957    24476689.215
  21827816.585   -17497767.40449 -13612641.82947  21827815.808    21827824.299
 03  4 10 17 50 30.0000000  0  7G24G30G 4G 5G 6G 9G10
  21587019.919     4548746.69649   3545781.80447  21587019.827    21587027.646
  20730995.850   -15731110.60949 -12000103.09048  20730996.180    20731002.435
  24263966.197    14450597.08749  11248172.02245  24263966.395    24263975.142
  20289078.654    -5912238.51349  -4593564.02148  20289078.193    20289085.126
  22918217.212   -13921996.95649 -10821797.13246  22918217.069    22918224.767
  24495136.499    14103863.38749  10982278.26345  24495136.330    24495145.827
  21814763.599   -17566361.32549 -13666091.59447  21814762.804    21814771.273
 03  4 10 17 51  0.0000000  0  7G24G30G 4G 5G 6G 9G10
  21599975.546     4616828.88449   3598832.82547  21599975.468    21599983.299
  20721124.144   -15782986.71749 -12040526.02448  20721124.484    20721130.723
  24283422.945    14552842.67549  11327843.79545  24283423.166    24283431.930
  20292511.118    -5894200.93449  -4579508.78748  20292510.667    20292517.617
  22905831.068   -13987086.65149 -10872516.35046  22905830.904    22905838.582
  24513583.499    14200802.48049  11057815.14245  24513583.419    24513592.634
  21801795.141   -17634510.95049 -13719195.15647  21801794.352    21801802.763
 03  4 10 17 51 30.0000000  0  7G24G30G 4G 5G 6G 9G10
  21612980.790     4685171.69249   3652086.93047  21612980.705    21612988.551
  20711338.847   -15834408.84749 -12080595.20648  20711339.168    20711345.402
  24302883.845    14655109.95849  11407532.48945  24302884.043    24302892.777
  20296044.229    -5875634.30049  -4565041.29748  20296043.791    20296050.745
  22893456.087   -14052117.14049 -10923189.44046  22893456.000    22893463.657
  24532020.563    14297689.13649  11133311.15945  24532020.486    24532029.558
  21788911.701   -17702213.50749 -13771950.35147  21788910.941    21788919.364
 03  4 10 17 52  0.0000000  0  7G24G30G 4G 5G 6G 9G10
  21626035.106     4753772.55049   3705542.10847  21626035.037    21626042.886
  20701640.268   -15885375.06449 -12120309.13848  20701640.592    20701646.828
  24322348.485    14757397.03049  11487236.59845  24322348.729    24322357.473
  20299678.023    -5856538.75549  -4550161.67148  20299677.576    20299684.518
  22881092.426   -14117088.66349 -10973816.57246  22881092.300    22881099.986
  24550447.037    14394520.16749  11208763.81545  24550446.899    24550455.949
  21776113.887   -17769466.51749 -13824355.25947  21776113.111    21776121.511
 03  4 10 17 52 30.0000000  0  7G24G30G 4G 5G 6G 9G10
  21639138.355     4822630.23649   3759197.41547  21639138.266    21639146.113
  20692029.063   -15935882.49349 -12159665.56948  20692029.376    20692035.607
  24341816.606    14859702.69849  11566955.17045  24341816.861    24341825.710
  20303412.613    -5836913.50049  -4534869.28448  20303412.160    20303419.091
  22868740.244   -14181999.89449 -11024396.72646  22868740.091    22868747.795
  24568862.473    14491293.98749  11284171.87145  24568862.440    24568871.476
  21763402.279   -17836266.30649 -13876407.00147  21763401.491    21763409.911
 03  4 10 17 53  0.0000000  0  7G24G30G 4G 5G 6G 9G10
  21652289.810     4891741.53049   3813050.34247  21652289.702    21652297.562
  20682505.378   -15985929.71549 -12198663.39848  20682505.689    20682511.944
  24361287.835    14962024.22749  11646686.12345  24361288.092    24361296.989
  20307247.893    -5816759.16249  -4519164.62548  20307247.435    20307254.377
  22856399.349   -14246851.40549 -11074930.35146  22856399.274    22856406.959
  24587266.399    14588006.79149  11359532.40245  24587266.389    24587275.310
  21750777.297   -17902610.83449 -13928103.99547  21750776.491    21750784.933
 03  4 10 17 53 30.0000000  0  7G24G30G 4G 5G 6G 9G10
  21665489.128     4961104.15449   3867099.10647  21665489.024    21665496.884
  20673069.673   -16035514.61549 -12237300.97748  20673069.982    20673076.255
  24380761.810    15064360.13749  11726428.27445  24380762.019    24380770.943
  20311183.812    -5796075.89149  -4503047.81348  20311183.340    20311190.281
  22844069.990   -14311642.89149 -11125417.20346  22844069.849    22844077.520
  24605658.333    14684656.37749  11434843.66845  24605658.297    24605667.270
  21738239.540   -17968497.04349 -13979443.86347  21738238.740    21738247.194
 03  4 10 17 54  0.0000000  0  7G24G30G 4G 5G 6G 9G10
  21678735.862     5030716.21049   3921342.23147  21678735.763    21678743.642
  20663722.343   -16084634.96849 -12275576.57248  20663722.663    20663728.962
  24400238.156    15166708.61749  11806180.23045  24400238.386    24400247.205
  20315220.406    -5774863.53749  -4486518.72848  20315219.936    20315226.864
  22831752.137   -14376373.89749 -11175856.93346  22831751.947    22831759.626
  24624037.669    14781240.20849  11510103.68945  24624037.524    24624046.706
  21725789.500   -18033922.14349 -14030424.43247  21725788.739    21725797.167
 03  4 10 17 54 30.0000000  0  7G24G30G 4G 5G 6G 9G10
  21692029.520     5100574.86849   3975777.51347  21692029.431    21692037.350
  20654463.807   -16133288.89849 -12313488.72148  20654464.132    20654470.433
  24419716.430    15269067.29849  11885940.13945  24419716.612    24419725.594
  20319357.626    -5753122.55749  -4469577.72848  20319357.152    20319364.064
  22819445.751   -14441044.45849 -11226249.56746  22819445.527    22819453.214
  24642403.916    14877755.35949  11585310.17145  24642403.718    24642412.990
  21713427.754   -18098883.51249 -14081043.64647  21713426.967    21713435.391
 03  4 10 17 55  0.0000000  0  7G24G30G 4G 5G 6G 9G10
  21705369.828     5170678.64349   4030403.79847  21705369.755    21705377.703
  20645294.562   -16181473.76749 -12351035.36848  20645294.880    20645301.155
  24439196.545    15371435.30649  11965707.30945  24439196.726    24439205.667
  20323595.555    -5730852.32549  -4452224.32348  20323595.068    20323601.986
  22807151.033   -14505653.54249 -11276594.29146  22807150.818    22807158.485
  24660756.848    14974200.08449  11660461.81345  24660756.733    24660765.910
  21701154.932   -18163377.62949 -14131298.77547  21701154.104    21701162.506
 03  4 10 17 55 30.0000000  0  8G24G30G17G 4G 5G 6G 9G10
  21718755.433     5241020.34949   4085215.48147  21718755.368    21718763.328
  20636213.986   -16229192.48649 -12388218.77848  20636214.306    20636220.595
  25032383.850    -3356228.06449  -2601927.34145  25032383.511    25032393.993
  24458677.046    15473805.50049  12045476.19045  24458677.260    24458686.181
  20327933.189    -5708057.98449  -4434462.52148  20327932.705    20327939.633
  22794866.989   -14570206.07449 -11326894.95146  22794866.792    22794874.529
  24679094.926    15070566.47449  11735552.41745  24679094.718    24679103.860
  21688970.529   -18227407.01049 -14181191.76647  21688969.699    21688978.110
 03  4 10 17 56  0.0000000  0  8G24G30G17G 4G 5G 6G 9G10
  21732187.057     5311603.65149   4140215.41847  21732186.960    21732194.937
  20627223.563   -16276437.39649 -12425032.99448  20627223.880    20627230.162
  25014535.151    -3450023.33749  -2675014.44345  25014534.758    25014545.538
  24478158.824    15576182.08849  12125250.06745  24478159.023    24478167.993
  20332371.628    -5684733.90249  -4416287.93848  20332371.132    20332378.054
  22782594.934   -14634695.97649 -11377146.81046  22782594.748    22782602.522
  24697418.538    15166857.65149  11810584.35645  24697418.393    24697427.777
  21676876.225   -18290962.87449 -14230715.79247  21676875.402    21676883.799
 03  4 10 17 56 30.0000000  0  8G24G30G17G 4G 5G 6G 9G10
  21745664.281     5382426.55149   4195402.05747  21745664.150    21745672.137
  20618323.742   -16323206.29349 -12461476.28548  20618324.061    20618330.331
  24996709.322    -3543698.52149  -2748008.02445  24996708.839    24996719.658
  24497641.469    15678563.34649  12205027.56745  24497641.556    24497650.500
  20336910.832    -5660880.17549  -4397700.63648  20336910.340    20336917.292
  22770334.996   -14699122.88749 -11427349.58346  22770334.755    22770342.527
  24715727.393    15263070.99549  11885555.68945  24715727.288    24715736.742
  21664872.548   -18354042.48949 -14279868.71447  21664871.731    21664880.129
 03  4 10 17 57  0.0000000  0  8G24G30G17G 4G 5G 6G 9G10
  21759186.529     5453486.29849   4250773.25247  21759186.409    21759194.400
  20609514.827   -16369497.39149 -12497547.26748  20609515.160    20609521.405
  24978906.602    -3637252.47049  -2820907.19045  24978906.113    24978916.809
  24517124.519    15780947.24049  12284807.13645  24517124.597    24517133.619
  20341550.785    -5636497.18349  -4378700.91948  20341550.308    20341557.261
  22758086.915   -14763486.70449 -11477503.19646  22758086.714    22758094.497
  24734020.966    15359203.81649  11960464.28745  24734020.873    24734030.317
  21652959.943   -18416643.57649 -14328648.75747  21652959.109    21652967.508
 03  4 10 17 57 30.0000000  0  8G24G30G17G 4G 5G 6G 9G10
  21772753.305     5524779.90549   4306326.67347  21772753.177    21772761.166
  20600797.090   -16415309.30649 -12533244.86148  20600797.415    20600803.684
  24961127.056    -3730684.27949  -2893711.14145  24961126.622    24961137.143
  24536607.581    15883331.40849  12364586.89445  24536607.680    24536616.856
  20346291.278    -5611585.71849  -4359289.40048  20346290.796    20346297.757
  22745850.817   -14827787.78949 -11527607.92446  22745850.585    22745858.377
  24752298.565    15455252.70449  12035307.44245  24752298.460    24752307.905
  21641138.865   -18478763.82249 -14377054.13247  21641138.012    21641146.371
 03  4 10 17 58  0.0000000  0  8G24G30G17G 4G 5G 6G 9G10
  21786364.108     5596305.14849   4362060.59047  21786363.964    21786371.983
  20592170.876   -16460640.07149 -12568567.53248  20592171.236    20592177.510
  24943370.877    -3823992.86449  -2966419.01845  24943370.634    24943381.090
  24556090.316    15985713.97849  12444365.45245  24556090.313    24556099.669
  20351132.305    -5586145.96749  -4339466.22848  20351131.825    20351138.785
  22733626.721   -14892025.72649 -11577663.45046  22733626.498    22733634.300
  24770559.711    15551215.27149  12110083.34145  24770559.509    24770569.135
  21629409.700   -18540400.68349 -14425082.83247  21629408.902    21629417.270
 03  4 10 17 58 30.0000000  0  8G24G30G17G 4G 5G 6G 9G10
  21800018.577     5668059.70149   4417973.19447  21800018.451    21800026.442
  20583636.611   -16505488.05349 -12603514.00548  20583636.955    20583643.245
  24925638.479    -3917177.39449  -3039030.27545  24925638.140    24925648.420
  24575572.488    16088092.97349  12524141.19145  24575572.515    24575581.859
  20356073.779    -5560178.49949  -4319231.85248  20356073.304    20356080.254
  22721414.549   -14956200.56349 -11627669.81046  22721414.392    22721422.247
  24788803.904    15647088.79549  12184789.87345  24788803.738    24788813.412
  21617773.040   -18601551.71949 -14472732.97647  21617772.228    21617780.599
 03  4 10 17 59  0.0000000  0  8G24G30G17G 4G 5G 6G 9G10
  21813716.334     5740041.76149   4474063.07147  21813716.218    21813724.186
  20575194.627   -16549851.08449 -12638082.59448  20575194.949    20575201.231
  24907929.779    -4010236.57449  -3111543.89045  24907929.379    24907939.631
  24595053.696    16190466.88849  12603912.98045  24595053.828    24595063.029
  20361115.639    -5533683.45849  -4298586.38048  20361115.163    20361122.108
  22709214.606   -15020311.72649 -11677626.55646  22709214.438    22709222.267
  24807030.694    15742870.89049  12259425.16345  24807030.619    24807040.071
  21606229.393   -18662213.97549 -14520002.25447  21606228.589    21606236.902
 03  4 10 17 59 30.0000000  0  8G24G30G17G 4G 5G 6G 9G10
  21827456.926     5812248.66849   4530328.15547  21827456.776    21827464.748
  20566845.255   -16593727.52449 -12672272.02648  20566845.559    20566851.833
  24890245.312    -4103169.26649  -3183958.89845  24890244.822    24890255.126
  24614533.490    16292833.36449  12683678.99445  24614533.593    24614542.815
  20366257.769    -5506661.50949  -4277530.33748  20366257.283    20366264.238
  22697026.771   -15084359.37949 -11727533.81846  22697026.576    22697034.358
  24825239.432    15838558.47249  12333986.78845  24825239.335    24825249.046
  21594779.143   -18722385.32449 -14566889.00947  21594778.336    21594786.669
 03  4 10 18  0  0.0000000  0  8G24G30G17G 4G 5G 6G 9G10
  21841239.754     5884677.80249   4586766.40047  21841239.614    21841247.579
  20558588.738   -16637115.66549 -12706080.96348  20558589.045    20558595.324
  24872585.105    -4195974.34449  -3256274.46345  24872584.628    24872594.983
  24634011.535    16395190.67249  12763437.85745  24634011.629    24634020.840
  20371500.037    -5479113.14449  -4256064.09948  20371499.544    20371506.536
  22684851.025   -15148343.33349 -11777391.45346  22684850.865    22684858.632
  24843429.744    15934148.70849  12408472.54445  24843429.592    24843439.370
  21583422.756   -18782063.35849 -14613391.36547  21583421.968    21583430.299
 03  4 10 18  0 30.0000000  0  8G24G30G17G 4G 5G 6G 9G10
  21855064.556     5957327.45549   4643376.47847  21855064.404    21855072.370
  20550425.646   -16680012.94349 -12739507.40848  20550425.956    20550432.238
  24854949.208    -4288650.39649  -3328489.49245  24854948.698    24854959.238
  24653487.539    16497537.64749  12843188.64545  24653487.616    24653496.907
  20376842.580    -5451037.95749  -4234187.35048  20376842.106    20376849.094
  22672687.595   -15212262.56549 -11827198.63546  22672687.455    22672695.243
  24861601.281    16029639.82649  12482881.08945  24861601.111    24861610.979
  21572160.920   -18841244.74749 -14659506.71947  21572160.104    21572168.466
 03  4 10 18  1  0.0000000  0  8G24G30G17G 4G 5G 6G 9G10
  21868930.849     6030195.23449   4700156.52147  21868930.734    21868938.699
  20542356.262   -16722417.88349 -12772550.21648  20542356.572    20542362.850
  24837338.270    -4381196.09249  -3400602.97445  24837337.739    24837348.216
  24672961.220    16599872.32549  12922929.90345  24672961.364    24672970.591
  20382285.232    -5422436.71849  -4211900.68848  20382284.758    20382291.740
  22660536.452   -15276117.08549 -11876955.40246  22660536.307    22660544.128
  24879753.281    16125028.90049  12557210.14745  24879753.066    24879762.833
  21560993.981   -18899927.25649 -14705233.34347  21560993.185    21561001.539
 03  4 10 18  1 30.0000000  0  8G24G30G17G 4G 5G 6G 9G10
  21882838.223     6103278.92149   4757104.81147  21882838.116    21882846.104
  20534380.907   -16764328.57349 -12805207.88948  20534381.224    20534387.481
  24819752.402    -4473610.79249  -3472614.36745  24819751.933    24819762.389
  24692432.312    16702193.14949  13002660.31345  24692432.475    24692441.728
  20387827.870    -5393309.96449  -4189204.53148  20387827.401    20387834.399
  22648397.663   -15339906.72749 -11926661.59946  22648397.541    22648405.310
  24897885.351    16220313.11749  12631457.44545  24897885.082    24897894.930
  21549922.498   -18958108.35549 -14750569.25447  21549921.680    21549930.035
 03  4 10 18  2  0.0000000  0  8G24G30G17G 4G 5G 6G 9G10
  21896786.294     6176576.24949   4814219.56747  21896786.180    21896794.188
  20526500.018   -16805742.98749 -12837478.85948  20526500.320    20526506.554
  24802191.567    -4565893.25649  -3544522.70745  24802191.081    24802201.638
  24711900.373    16804498.17449  13082378.44345  24711900.507    24711909.826
  20393470.436    -5363658.00249  -4166099.12448  20393469.965    20393476.979
  22636271.391   -15403631.09649 -11976316.94246  22636271.225    22636278.949
  24915997.077    16315490.07849  12705621.16845  24915996.784    24916006.725
  21538946.891   -19015785.57249 -14795512.52947  21538946.098    21538954.434
 03  4 10 18  2 30.0000000  0  8G24G30G17G 4G 5G 6G 9G10
  21910774.697     6250085.66149   4871499.58447  21910774.556    21910782.589
  20518713.903   -16846659.26649 -12869361.67048  20518714.200    20518720.447
  24784656.159    -4658042.11949  -3616326.97845  24784655.680    24784666.069
  24731365.106    16906785.90149  13162083.11445  24731365.232    24731374.577
  20399212.957    -5333480.90549  -4142584.52348  20399212.499    20399219.524
  22624157.588   -15467289.50149 -12025920.87746  22624157.452    22624165.145
  24934087.828    16410557.58649  12779699.61045  24934087.491    24934097.553
  21528067.678   -19072956.20349 -14840061.06847  21528066.870    21528075.172
 03  4 10 18  3  0.0000000  0  8G24G30G17G 4G 5G 6G 9G10
  21924802.940     6323804.44249   4928942.74847  21924802.815    21924810.848
  20511022.927   -16887075.49249 -12900854.82548  20511023.244    20511029.510
  24767146.535    -4750055.78849  -3688025.89145  24767146.122    24767156.365
  24750826.291    17009054.98149  13241773.23345  24750826.479    24750835.939
  20405055.284    -5302779.17949  -4118661.11548  20405054.834    20405061.868
  22612056.445   -15530881.52349 -12075473.09146  22612056.269    22612063.964
  24952157.296    16505513.24949  12853690.94345  24952157.080    24952166.987
  21517285.310   -19129617.74249 -14884212.90547  21517284.504    21517292.820
 03  4 10 18  3 30.0000000  0  8G24G30G17G 4G 5G 6G 9G10
  21938870.580     6397730.25349   4986547.23447  21938870.446    21938878.510
  20503427.431   -16926990.05049 -12931957.07548  20503427.742    20503434.033
  24749662.506    -4841933.95649  -3759619.16045  24749662.146    24749672.642
  24770283.483    17111303.18749  13321447.08245  24770283.749    24770293.134
  20410997.361    -5271553.56549  -4094329.48448  20410996.901    20411003.934
  22599967.847   -15594407.02449 -12124973.46146  22599967.738    22599975.398
  24970205.096    16600354.26549  12927592.92045  24970204.926    24970214.847
  21506600.270   -19185767.80949 -14927966.19947  21506599.471    21506607.764
 03  4 10 18  4  0.0000000  0  7G24G30G17G 5G 6G 9G10
  21952977.267     6471861.32849   5044311.66447  21952977.130    21952985.230
  20495927.779   -16966400.88949 -12962666.81648  20495928.094    20495934.401
  24732204.997    -4933674.24349  -3831105.04145  24732204.601    24732215.127
  20417039.066    -5239804.21749  -4069589.74848  20417038.618    20417045.632
  22587892.055   -15657865.55649 -12174421.65046  22587891.938    22587899.639
  24988230.594    16695078.36149  13001403.74645  24988230.329    24988240.593
  21496013.058   -19241403.80449 -14971318.91347  21496012.290    21496020.603
 03  4 10 18  4 30.0000000  0  7G24G30G17G 5G 6G 9G10
  21967122.817     6546196.89749   5102235.43747  21967122.717    21967130.857
  20488524.627   -17005304.68749 -12992981.46148  20488524.959    20488531.245
  24714774.000    -5025274.83249  -3902482.08645  24714773.578    24714783.851
  20423180.599    -5207530.25649  -4044441.22748  20423180.146    20423187.178
  22575829.298   -15721255.22549 -12223816.18046  22575829.249    22575836.957
  25006233.575    16789684.23749  13075122.48445  25006233.444    25006243.486
  21485524.416   -19296521.92149 -15014268.08447  21485523.652    21485531.965
 03  4 10 18  5  0.0000000  0  7G24G30G17G 5G 6G 9G10
  21981306.547     6620732.62849   5160315.18347  21981306.468    21981314.600
  20481217.868   -17043702.01849 -13022901.45848  20481218.188    20481224.478
  24697369.214    -5116736.75349  -3973751.06245  24697368.808    24697379.077
  20429421.414    -5174734.63649  -4018886.21948  20429420.956    20429428.008
  22563779.368   -15784577.90649 -12273158.50646  22563779.321    22563786.999
  25024213.228    16884167.17949  13148745.43645  25024213.068    25024223.040
  21475134.381   -19351121.76649 -15056813.40147  21475133.605    21475141.935
 03  4 10 18  5 30.0000000  0  7G24G30G17G 5G 6G 9G10
  21995527.973     6695466.73849   5218549.50847  21995527.893    21995536.046
  20474007.855   -17081590.69849 -13052425.10148  20474008.189    20474014.491
  24679991.226    -5208058.54949  -4044910.79645  24679990.678    24680001.153
  20435761.499    -5141417.26449  -3992924.65448  20435761.047    20435768.119
  22551742.316   -15847832.67049 -12322447.89946  22551742.274    22551749.954
  25042169.148    16978525.43549  13222271.24545  25042168.947    25042178.829
  21464843.510   -19405200.62749 -15098952.76547  21464842.749    21464851.035
 03  4 10 18  6  0.0000000  0  7G24G30G17G 5G 6G 9G10
  22009786.781     6770396.92449   5276936.62447  22009786.692    22009794.820
  20466895.055   -17118968.65949 -13081550.78248  20466895.403    20466901.683
  24662640.205    -5299238.73949  -4115960.24045  24662639.620    24662649.997
  20442200.847    -5107578.29149  -3966556.63948  20442200.399    20442207.473
  22539718.347   -15911018.93849 -12371683.92846  22539718.338    22539726.020
  25060100.793    17072756.66549  13295698.03145  25060100.634    25060110.631
  21454652.282   -19458755.90049 -15140684.13147  21454651.494    21454659.796
 03  4 10 18  6 30.0000000  0  7G24G30G17G 5G 6G 9G10
  22024082.554     6845521.42449   5335475.15647  22024082.425    22024090.581
  20459879.795   -17155834.25649 -13110277.21348  20459880.140    20459886.407
  24645316.386    -5390276.31849  -4186898.56845  24645315.823    24645326.019
  20448739.279    -5073218.57449  -3939782.85448  20448738.843    20448745.923
  22527707.543   -15974136.49549 -12420866.40846  22527707.443    22527715.108
  25078007.894    17166858.45749  13369023.94745  25078007.647    25078017.696
  21444561.071   -19511785.48849 -15182005.86447  21444560.290    21444568.642
 03  4 10 18  7  0.0000000  0  6G24G30G17G 5G 6G10
  22038415.446     6920840.93649   5394165.63647  22038415.342    22038423.468
  20452962.867   -17192182.92549 -13138600.85048  20452963.218    20452969.489
  24628020.373    -5481167.22649  -4257722.57845  24628019.817    24628029.989
  20455377.237    -5038335.99349  -3912601.64548  20455376.787    20455383.874
  22515710.397   -16037181.91749 -12469992.70046  22515710.318    22515717.949
  21434570.932   -19564283.83249 -15222913.64947  21434570.186    21434578.520
 03  4 10 18  7 30.0000000  0  6G24G30G17G 5G 6G10
  22052784.577     6996351.21049   5453004.77047  22052784.475    22052792.606
  20446144.243   -17228014.90849 -13166521.87148  20446144.609    20446150.882
  24610752.071    -5571912.20049  -4328432.88045  24610751.482    24610761.789
  20462114.232    -5002932.96449  -3885014.89148  20462113.793    20462120.900
  22503726.656   -16100156.80249 -12519064.02046  22503726.624    22503734.248
  21424681.947   -19616250.76449 -15263407.34247  21424681.202    21424689.552
 03  4 10 18  8  0.0000000  0  6G24G30G17G 5G 6G10
  22067189.226     7072047.90649   5511989.16047  22067189.113    22067197.280
  20439423.870   -17263330.68449 -13194040.65248  20439424.241    20439430.500
  24593511.345    -5662512.40249  -4399030.36545  24593510.776    24593521.053
  20468949.742    -4967012.09249  -3857024.62248  20468949.301    20468956.442
  22491756.043   -16163062.93249 -12568081.76747  22491755.952    22491763.587
  21414894.117   -19667686.24649 -15303486.91947  21414893.348    21414901.680
 03  4 10 18  8 30.0000000  0  6G24G30G17G 5G 6G10
  22081629.079     7147929.57149   5571117.68347  22081628.956    22081637.104
  20432802.280   -17298127.76149 -13221155.25448  20432802.595    20432808.865
  24576298.597    -5752966.11249  -4469513.74845  24576298.103    24576308.043
  20475883.744    -4930573.66149  -3828631.06448  20475883.311    20475890.452
  22479798.692   -16225899.15549 -12617045.03647  22479798.589    22479806.301
  21405207.989   -19718587.06249 -15343149.87547  21405207.203    21405215.557
 03  4 10 18  9  0.0000000  0  6G24G30G17G 5G 6G10
  22096103.844     7223994.69249   5630389.16247  22096103.716    22096111.853
  20426279.675   -17332404.14949 -13247864.12848  20426280.011    20426286.281
  24559114.004    -5843271.78049  -4539881.71845  24559113.479    24559123.494
  20482916.271    -4893617.71449  -3799834.24748  20482915.822    20482922.968
  22467854.776   -16288664.64849 -12665953.18947  22467854.658    22467862.433
  21395624.151   -19768950.42149 -15382394.03547  21395623.368    21395631.682
 03  4 10 18  9 30.0000000  0  6G24G30G17G 5G 6G10
  22110613.142     7300241.47649   5689802.19247  22110613.031    22110621.201
  20419856.505   -17366157.96949 -13274165.80548  20419856.857    20419863.117
  24541957.803    -5933428.06849  -4610133.28345  24541957.326    24541967.243
  20490047.117    -4856144.91249  -3770634.68848  20490046.666    20490053.808
  22455924.440   -16351358.74049 -12714805.69947  22455924.377    22455932.116
  21386143.009   -19818774.05749 -15421217.62947  21386142.252    21386150.581
 03  4 10 18 10  0.0000000  0  6G24G30G17G 5G 6G10
  22125156.563     7376667.57649   5749354.95247  22125156.473    22125164.668
  20413533.108   -17399387.74049 -13300059.13248  20413533.455    20413539.704
  24524830.222    -6023433.89749  -4680267.65145  24524829.824    24524839.641
  20497276.181    -4818156.04149  -3741032.99648  20497275.741    20497282.847
  22444007.828   -16413981.15849 -12763602.36947  22444007.717    22444015.437
  21376764.940   -19868055.93349 -15459619.06847  21376764.184    21376772.520
 03  4 10 18 10 30.0000000  0  6G24G30G17G 5G 6G10
  22139733.787     7453271.36149   5809046.16347  22139733.711    22139741.924
  20407309.834   -17432091.21349 -13325542.36048  20407310.163    20407316.417
  24507731.433    -6113287.97849  -4750283.76945  24507731.001    24507740.821
  20504603.472    -4779651.19949  -3711029.25248  20504602.999    20504610.117
  22432105.028   -16476530.75949 -12812342.28947  22432104.907    22432112.616
  21367490.596   -19916792.93949 -15497595.93147  21367489.835    21367498.185
 03  4 10 18 11  0.0000000  0  6G24G30G17G 5G 6G10
  22154344.405     7530050.26949   5868873.83847  22154344.286    22154352.522
  20401186.937   -17464267.29149 -13350614.62948  20401187.272    20401193.512
  24490661.704    -6202989.72049  -4820181.15945  24490661.278    24490671.164
  20512028.646    -4740631.70949  -3680624.48048  20512028.188    20512035.318
  22420216.123   -16539007.53849 -12861025.47147  22420215.957    22420223.674
  21358320.199   -19964983.79449 -15535147.22447  21358319.423    21358327.765
 03  4 10 18 11 30.0000000  0  6G24G30G17G 5G 6G10
  22168987.941     7607002.25949   5928836.37847  22168987.769    22168996.055
  20395164.750   -17495914.18149 -13375274.54248  20395165.081    20395171.304
  24473621.290    -6292537.49249  -4889958.58245  24473620.865    24473630.789
  20519551.720    -4701098.03649  -3649819.05048  20519551.250    20519558.347
  22408341.091   -16601410.79249 -12909651.35647  22408341.008    22408348.732
  21349254.184   -20012625.99749 -15572270.99447  21349253.410    21349261.748
 03  4 10 18 12  0.0000000  0  6G24G30G17G 5G 6G10
  22183664.070     7684125.46949   5988932.34047  22183663.889    22183672.177
  20389243.513   -17527030.52549 -13399521.04448  20389243.830    20389250.058
  24456610.433    -6381930.40749  -4959615.36445  24456610.031    24456619.722
  20527172.361    -4661051.29449  -3618613.82048  20527171.895    20527179.016
  22396480.223   -16663740.04649 -12958219.58647  22396480.150    22396487.864
  21340293.026   -20059717.30949 -15608965.49747  21340292.223    21340300.541
 03  4 10 18 12 30.0000000  0  6G24G30G17G 5G 6G10
  22198372.289     7761417.54049   6049159.88647  22198372.087    22198380.395
  20383423.562   -17557614.69549 -13423352.86448  20383423.889    20383430.115
  24439628.972    -6471167.52549  -5029150.71345  24439628.597    24439638.353
  20534890.546    -4620492.14349  -3587009.31548  20534890.071    20534897.183
  22384633.515   -16725994.92449 -13006729.85047  22384633.431    22384641.137
  21331437.003   -20106255.76749 -15645229.21147  21331436.224    21331444.531
 03  4 10 18 13  0.0000000  0  6G24G30G17G 5G 6G10
  22213112.367     7838876.94049   6109517.81347  22213112.183    22213120.484
  20377705.239   -17587664.77349 -13446768.50748  20377705.538    20377711.756
  24422677.620    -6560247.41649  -5098563.53345  24422677.342    24422687.054
  20542706.125    -4579421.14149  -3555005.95948  20542705.651    20542712.772
  22372801.106   -16788174.45749 -13055181.40547  22372801.042    22372808.756
  21322686.668   -20152238.99649 -15681060.27747  21322685.882    21322694.191
 03  4 10 18 13 30.0000000  0  6G24G30G17G 5G 6G10
  22227883.792     7916501.08149   6170004.11547  22227883.576    22227891.879
  20372088.731   -17617179.78949 -13469767.21848  20372089.036    20372095.271
  24405756.237    -6649169.65649  -5167853.53545  24405755.917    24405765.647
  20550618.790    -4537839.73149  -3522604.88648  20550618.323    20550625.436
  22360983.075   -16850278.81649 -13103574.38847  22360982.954    22360990.662
  21314042.325   -20197665.43749 -15716457.48147  21314041.536    21314049.792
 03  4 10 18 14  0.0000000  0  6G24G30G17G 5G 6G10
  22242686.122     7994287.92349   6230617.18947  22242685.979    22242694.289
  20366574.273   -17646158.27449 -13492347.85948  20366574.584    20366580.830
  24388865.069    -6737933.23549  -5237019.90145  24388864.630    24388874.464
  20558628.542    -4495748.44749  -3489806.50548  20558628.068    20558635.182
  22349179.532   -16912307.16149 -13151908.13947  22349179.365    22349187.042
  21305504.309   -20242532.88349 -15751419.10747  21305503.507    21305511.754
 03  4 10 18 14 30.0000000  0  6G24G30G17G 5G 6G10
  22257519.159     8072235.63449   6291355.62247  22257518.990    22257527.276
  20361162.300   -17674598.38049 -13514508.97948  20361162.620    20361168.845
  24372004.275    -6826536.78349  -5306061.58445  24372003.853    24372013.763
  20566735.185    -4453147.82849  -3456611.24948  20566734.716    20566741.830
  22337390.521   -16974258.85449 -13200182.16847  22337390.357    22337398.001
  21297073.143   -20286839.12649 -15785943.43147  21297072.324    21297080.528
 03  4 10 18 15  0.0000000  0  6G24G30G17G 5G 6G10
  22272382.508     8150342.71649   6352218.23547  22272382.321    22272390.651
  20355853.130   -17702498.32549 -13536249.19748  20355853.426    20355859.635
  24355174.218    -6914978.67849  -5374977.25845  24355173.805    24355183.857
  20574938.614    -4410038.79049  -3423019.82348  20574938.137    20574945.231
  22325616.222   -17036133.16349 -13248395.89247  22325615.998    22325623.687
  21288749.115   -20330581.89149 -15820028.67647  21288748.316    21288756.535
 03  4 10 18 15 30.0000000  0  6G24G30G17G 5G 6G10
  22287275.637     8228606.31849   6413202.81547  22287275.450    22287283.763
  20350646.933   -17729857.20849 -13557567.80548  20350647.210    20350653.424
  24338375.060    -7003258.53849  -5443766.71645  24338374.644    24338384.612
  20583238.496    -4366422.75549  -3389033.32548  20583237.981    20583245.108
  22313856.573   -17097930.08449 -13296549.31947  22313856.379    22313864.108
  21280532.680   -20373759.68249 -15853673.68247  21280531.864    21280540.054
 03  4 10 18 16  0.0000000  0  6G24G30G17G 5G 6G10
  22302198.106     8307024.36949   6474307.74547  22302197.920    22302206.249
  20345543.983   -17756673.43449 -13578463.56648  20345544.283    20345550.494
  24321607.065    -7091375.46949  -5512429.21645  24321606.602    24321616.509
  20591634.655    -4322300.51349  -3354652.37548  20591634.168    20591641.326
  22302111.792   -17159648.81549 -13344641.80747  22302111.650    22302119.403
  21272424.132   -20416370.26449 -15886876.70647  21272423.318    21272431.510
 03  4 10 18 16 30.0000000  0  6G24G30G17G 5G 6G10
  22317149.643     8385595.28149   6535531.78547  22317149.489    22317157.873
  20340544.522   -17782945.67449 -13598935.44848  20340544.814    20340551.045
  24304870.151    -7179328.71049  -5580964.16945  24304869.669    24304879.505
  20600127.002    -4277673.04949  -3319877.75248  20600126.529    20600133.664
  22290382.166   -17221288.93449 -13392673.04947  22290381.940    22290389.632
  21264423.913   -20458411.76949 -15919636.29847  21264423.086    21264431.262
 03  4 10 18 17  0.0000000  0  6G24G30G17G 5G 6G10
  22332129.880     8464316.93749   6596873.28747  22332129.748    22332138.120
  20335648.830   -17808672.52849 -13618982.34748  20335649.123    20335655.363
  24288164.580    -7267116.82949  -5649370.43545  24288164.114    24288174.007
  20608715.343    -4232541.27749  -3284710.15948  20608714.854    20608721.990
  22278667.481   -17282849.84349 -13440642.56347  22278667.260    22278674.967
  21256532.318   -20499882.33449 -15951950.99947  21256531.499    21256539.603
 03  4 10 18 17 30.0000000  0  6G24G30G17G 5G 6G10
  22347138.470     8543187.65449   6658330.93647  22347138.378    22347146.778
  20330857.260   -17833852.26649 -13638602.92348  20330857.570    20330863.797
  24271490.646    -7354738.68749  -5717647.15045  24271490.167    24271500.136
  20617399.444    -4186906.01049  -3249150.23748  20617398.952    20617406.111
  22266968.032   -17344330.67549 -13488549.68147  22266967.829    22266975.509
  21248749.833   -20540779.46349 -15983818.86247  21248748.997    21248757.133
 03  4 10 18 18  0.0000000  0  6G24G30G17G 5G 6G10
  22362174.994     8622204.67849   6719902.60047  22362174.848    22362183.199
  20326169.969   -17858484.21149 -13657796.64948  20326170.295    20326176.521
  24254848.473    -7442193.83549  -5785793.97945  24254848.048    24254857.917
  20626179.098    -4140768.80649  -3213199.19648  20626178.604    20626185.779
  22255283.902   -17405731.40249 -13536394.38647  22255283.678    22255291.330
  21241076.644   -20581102.14949 -16015239.11147  21241075.829    21241083.942
 03  4 10 18 18 30.0000000  0  6G24G30G17G 5G 6G10
  22377239.063     8701366.68449   6781587.22647  22377238.900    22377247.297
  20321587.308   -17882566.34149 -13676561.94848  20321587.628    20321593.862
  24238238.321    -7529480.48249  -5853809.48945  24238237.887    24238247.787
  20635054.131    -4094130.09049  -3176857.37348  20635053.630    20635060.826
  22243615.094   -17467051.05449 -13584175.90747  22243614.916    22243622.522
  21233513.227   -20620848.20649 -16046210.03347  21233512.405    21233520.504
 03  4 10 18 19  0.0000000  0  6G24G30G17G 5G 6G10
  22392330.217     8780671.64249   6843383.23947  22392330.152    22392338.629
  20317109.473   -17906097.52849 -13694897.93948  20317109.787    20317116.043
  24221660.191    -7616598.26649  -5921693.41245  24221659.794    24221669.731
  20644024.400    -4046990.90749  -3140125.56748  20644023.930    20644031.135
  22231961.911   -17528289.02649 -13631893.78547  22231961.713    22231969.280
  21226059.829   -20660015.80249 -16076730.20847  21226059.015    21226067.148
 03  4 10 18 19 30.0000000  0  6G24G30G17G 5G 6G10
  22407448.340     8860117.89749   6905289.35847  22407448.286    22407456.787
  20312736.775   -17929076.14149 -13712803.35948  20312737.075    20312743.356
  24205114.676    -7703545.73249  -5989444.64445  24205114.238    24205124.007
  20653089.815    -3999352.13549  -3103004.47548  20653089.334    20653096.550
  22220324.424   -17589444.24749 -13679547.19147  22220324.240    22220331.776
  21218716.961   -20698602.78349 -16106797.96147  21218716.149    21218724.256
 03  4 10 18 20  0.0000000  0  6G24G30G17G 5G 6G10
  22422592.943     8939702.86849   6967303.57947  22422592.862    22422601.354
  20308469.337   -17951501.66049 -13730277.79248  20308469.659    20308475.944
  24188601.488    -7790322.71249  -6057063.01745  24188601.040    24188610.809
  20662249.861    -3951215.68849  -3065495.58148  20662249.402    20662256.634
  22208702.547   -17650517.05349 -13727136.36547  22208702.415    22208709.960
  21211484.730   -20736608.13149 -16136412.49347  21211483.945    21211492.025
 03  4 10 18 20 30.0000000  0  6G24G30G17G 5G 6G10
  22437763.563     9019424.78049   7029424.50046  22437763.489    22437771.955
  20304307.461   -17973372.43849 -13747319.96148  20304307.780    20304314.079
  24172121.094    -7876927.68549  -6124547.35945  24172120.659    24172130.418
  20671504.527    -3902582.23549  -3027599.41248  20671504.055    20671511.286
  22197096.610   -17711506.21449 -13774660.37047  22197096.550    22197104.077
  21204363.630   -20774029.63049 -16165572.07547  21204362.855    21204370.968
 03  4 10 18 21  0.0000000  0  6G24G30G17G 5G 6G10
  22452959.786     9099281.38049   7091650.36946  22452959.729    22452968.201
  20300251.357   -17994687.40749 -13763929.02948  20300251.668    20300257.962
  24155673.537    -7963360.05149  -6191897.20245  24155672.996    24155682.944
  20680853.484    -3853453.17549  -2989317.05148  20680853.023    20680860.231
  22185506.722   -17772411.39049 -13822118.92947  22185506.644    22185514.203
  21197353.901   -20810865.76649 -16194275.53347  21197353.138    21197361.252
 03  4 10 18 21 30.0000000  0  6G24G30G17G 5G 6G10
  22468181.456     9179271.38449   7153980.18346  22468181.342    22468189.875
  20296301.280   -18015445.18149 -13780103.92748  20296301.613    20296307.908
  24139258.988    -8049618.50249  -6259111.52745  24139258.489    24139268.466
  20690296.621    -3803829.37049  -2950649.18048  20690296.156    20690303.355
  22173932.966   -17833231.86849 -13869511.48947  22173932.876    22173940.441
  21190455.986   -20847114.53149 -16222521.30447  21190455.223    21190463.329
 03  4 10 18 22  0.0000000  0  6G24G30G17G 5G 6G10
  22483427.993     9259391.94149   7216411.74146  22483427.857    22483436.369
  20292457.367   -18035645.13549 -13795844.15448  20292457.674    20292463.982
  24122877.660    -8135702.83949  -6326190.18945  24122877.210    24122887.126
  20699833.588    -3753712.61349  -2911597.19148  20699833.114    20699840.306
  22162375.394   -17893967.39549 -13916837.86047  22162375.277    22162382.831
  21183670.050   -20882774.73249 -16250308.44747  21183669.281    21183677.365
 03  4 10 18 22 30.0000000  0  6G24G30G17G 5G 6G10
  22498699.050     9339641.32549   7278943.67546  22498698.894    22498707.375
  20288719.875   -18055285.80649 -13811148.58148  20288720.191    20288726.511
  24106529.679    -8221611.74449  -6393132.14445  24106529.227    24106539.082
  20709464.069    -3703104.03649  -2872161.97648  20709463.577    20709470.797
  22150834.073   -17954617.28649 -13964097.49347  22150833.977    22150841.527
  21176996.419   -20917844.77949 -16277635.73347  21176995.641    21177003.748
 03  4 10 18 23  0.0000000  0  6G24G30G17G 5G 6G10
  22513994.219     9420018.02049   7341574.81246  22513994.086    22514002.568
  20285089.127   -18074365.57849 -13826015.93848  20285089.445    20285095.762
  24090215.327    -8307344.06449  -6459936.50445  24090214.891    24090224.674
  20719188.035    -3652004.26649  -2832344.00848  20719187.565    20719194.785
  22139309.282   -18015180.36449 -14011289.48747  22139309.205    22139316.689
  21170435.545   -20952322.37649 -16304501.37347  21170434.763    21170442.849
 03  4 10 18 23 30.0000000  0  6G24G30G17G 5G 6G10
  22529313.261     9500519.97749   7404303.55246  22529313.111    22529321.606
  20281565.281   -18092883.55349 -13840445.53348  20281565.604    20281571.905
  24073934.708    -8392899.00249  -6526602.62745  24073934.282    24073944.146
  20729005.251    -3600414.74249  -2792144.41048  20729004.759    20729011.977
  22127801.130   -18075656.32049 -14058413.59447  22127801.052    22127808.480
  21163987.650   -20986206.36649 -16330904.46047  21163986.857    21163994.947
 03  4 10 18 24  0.0000000  0  6G24G30G17G 5G 6G10
  22544655.825     9581145.51949   7467128.60246  22544655.670    22544664.188
  20278148.541   -18110838.63149 -13854436.50948  20278148.860    20278155.156
  24057688.042    -8478275.83449  -6593129.98645  24057687.640    24057697.435
  20738915.414    -3548336.61149  -2751564.08348  20738914.928    20738922.174
  22116309.706   -18136044.39849 -14105469.22447  22116309.618    22116317.016
  21157652.988   -21019495.14849 -16356843.75447  21157652.202    21157660.284
 03  4 10 18 24 30.0000000  0  6G24G30G17G 5G 6G10
  22560021.477     9661892.56649   7530048.31746  22560021.342    22560029.873
  20274839.069   -18128230.06449 -13867988.27948  20274839.381    20274845.686
  24041475.430    -8563473.66849  -6659517.85445  24041475.033    24041484.792
  20748918.263    -3495771.48949  -2710604.27948  20748917.773    20748925.010
  22104835.026   -18196344.02649 -14152455.92947  22104834.921    22104842.339
  21151431.822   -21052187.26049 -16382318.11047  21151431.049    21151439.128
 03  4 10 18 25  0.0000000  0  6G24G30G17G 5G 6G10
  22575409.949     9742759.22049   7593061.23246  22575409.789    22575418.362
  20271637.104   -18145056.61549 -13881099.88448  20271637.397    20271643.687
  24025297.082    -8648491.62949  -6725765.57645  24025296.594    24025306.357
  20759013.580    -3442720.46849  -2669265.85148  20759013.084    20759020.334
  22093377.291   -18256554.53849 -14199373.19647  22093377.193    22093384.630
  21145324.508   -21084281.31049 -16407326.44747  21145323.747    21145331.839
 03  4 10 18 25 30.0000000  0  6G24G30G17G 5G 6G10
  22590820.747     9823743.22749   7656165.60046  22590820.561    22590829.144
  20268542.836   -18161317.07549 -13893770.37748  20268543.130    20268549.435
  24009153.040    -8733328.24349  -6791871.97345  24009152.650    24009162.409
  20769201.067    -3389184.82849  -2627549.80048  20769200.592    20769207.839
  22081936.747   -18316674.98049 -14246220.27247  22081936.644    22081944.096
  21139331.367   -21115775.40949 -16431867.29247  21139330.586    21139338.713
 03  4 10 18 26  0.0000000  0  6G24G30G17G 5G 6G10
  22606253.527     9904842.82449   7719360.02646  22606253.356    22606261.945
  20265556.433   -18177010.74049 -13905999.20948  20265556.737    20265563.051
  23993043.576    -8817983.82749  -6857837.32145  23993043.242    23993052.946
  20779480.557    -3335166.02049  -2585457.25048  20779480.065    20779487.306
  22070513.395   -18376705.10149 -14292996.96947  22070513.282    22070520.748
  21133452.552   -21146668.63849 -16455939.93047  21133451.776    21133459.894
 03  4 10 18 26 30.0000000  0  6G24G30G17G 5G 6G10
  22621707.973     9986056.24749   7782643.14646  22621707.778    22621716.379
  20262678.110   -18192136.37849 -13917785.42848  20262678.430    20262684.724
  23976968.996    -8902456.77649  -6923660.35245  23976968.550    23976978.222
  20789851.782    -3280665.00649  -2542988.96148  20789851.285    20789858.540
  22059107.472   -18436643.83249 -14339702.45947  22059107.308    22059114.777
  21127688.453   -21176959.09349 -16479542.87647  21127687.676    21127695.798
 03  4 10 18 27  0.0000000  0  6G24G30G17G 5G 6G10
  22637183.704    10067381.65849   7846013.53746  22637183.554    22637192.150
  20259908.105   -18206693.04249 -13929128.28548  20259908.397    20259914.687
  23960929.139    -8986746.40349  -6989340.53745  23960928.694    23960938.440
  20800314.414    -3225683.50349  -2500146.26748  20800313.942    20800321.193
  22047718.949   -18496490.70749 -14386336.36747  22047718.812    22047726.260
  21122039.270   -21206645.55049 -16502675.17347  21122038.497    21122046.609
 03  4 10 18 27 30.0000000  0  6G24G30G17G 5G 6G10
  22652680.569    10148817.74249   7909470.16646  22652680.386    22652689.014
  20257246.665   -18220679.08449 -13940026.50548  20257246.970    20257253.258
  23944924.494    -9070851.30449  -7054876.78645  23944923.994    23944933.695
  20810868.380    -3170222.27449  -2456929.76148  20810867.886    20810875.150
  22036348.240   -18556244.32149 -14432897.60547  22036348.114    22036355.552
  21116505.389   -21235726.16449 -16525335.38647  21116504.618    21116512.729
 03  4 10 18 28  0.0000000  0  6G24G30G17G 5G 6G10
  22668197.908    10230361.94849   7973011.04546  22668197.763    22668206.402
  20254693.786   -18234094.45049 -13950480.04548  20254694.097    20254700.373
  23928954.940    -9154771.65049  -7120269.23045  23928954.460    23928964.169
  20821513.169    -3114283.45949  -2413341.11148  20821512.687    20821519.992
  22024995.192   -18615904.87549 -14479386.32647  22024995.053    22025002.510
  21111086.949   -21264200.26749 -16547522.99747  21111086.169    21111094.285
 03  4 10 18 28 30.0000000  0  6G24G30G17G 5G 6G10
  22683735.660    10312013.22349   8036635.33246  22683735.537    22683744.245
  20252249.799   -18246937.73149 -13960487.80448  20252250.099    20252256.390
  23913020.717    -9238505.81649  -7185516.57445  23913020.270    23913030.084
  20832248.731    -3057867.91249  -2369380.97948  20832248.245    20832255.548
  22013660.106   -18675471.01349 -14525801.48647  22013659.980    22013667.434
  21105784.246   -21292066.10949 -16569236.63947  21105783.460    21105791.583
 03  4 10 18 29  0.0000000  0  6G24G30G17G 5G 6G10
  22699293.428    10393769.39849   8100341.38646  22699293.276    22699301.978
  20249914.824   -18259208.18049 -13970049.19848  20249915.135    20249921.421
  23897122.227    -9322053.00649  -7250618.25345  23897121.807    23897131.498
  20843074.715    -3000977.22949  -2325050.61048  20843074.230    20843081.527
  22002343.126   -18734942.06949 -14572142.54347  22002343.005    22002350.470
  21100597.567   -21319322.40749 -16590475.31547  21100596.781    21100604.901
 03  4 10 18 29 30.0000000  0  6G24G30G17G 5G 6G10
  22714870.710    10475628.37349   8164127.53046  22714870.562    22714879.291
  20247688.910   -18270905.26349 -13979163.81548  20247689.226    20247695.546
  23881259.321    -9405413.23749  -7315574.24445  23881258.889    23881268.446
  20853990.717    -2943613.30649  -2280351.48448  20853990.223    20853997.518
  21991044.314   -18794317.71449 -14618409.25947  21991044.167    21991051.695
  21095526.968   -21345968.54849 -16611238.54247  21095526.181    21095534.255
 03  4 10 18 30  0.0000000  0  6G24G30G17G 5G 6G10
  22730467.194    10557588.40749   8227992.43246  22730467.055    22730475.804
  20245572.374   -18282027.98949 -13987830.88248  20245572.682    20245578.985
  23865432.260    -9488585.08149  -7380383.42346  23865431.775    23865441.397
  20864996.536    -2885777.33749  -2235284.52748  20864996.054    20865003.401
  21979763.808   -18853597.03149 -14664600.91547  21979763.636    21979771.207
  21090572.838   -21372002.79849 -16631524.97547  21090572.021    21090580.099
 03  4 10 18 30 30.0000000  0  6G24G30G17G 5G 6G10
  22746082.658    10639647.56949   8291934.56546  22746082.445    22746091.198
  20243565.217   -18292575.62149 -13996049.82548  20243565.501    20243571.810
  23849641.182    -9571567.88349  -7445045.30646  23849640.697    23849650.223
  20876091.945    -2827471.03349  -2189851.08448  20876091.433    20876098.775
  21968501.781   -18912779.45149 -14710717.07047  21968501.573    21968509.171
  21085735.317   -21397423.98349 -16651333.69747  21085734.520    21085742.596
 03  4 10 18 31  0.0000000  0  6G24G30G17G 5G 6G10
  22761716.570    10721803.76149   8355952.30146  22761716.312    22761725.120
  20241667.701   -18302547.22349 -14003819.91648  20241667.995    20241674.294
  23833886.090    -9654361.02549  -7509559.39846  23833885.645    23833895.155
  20887276.526    -2768695.67049  -2144052.13648  20887276.000    20887283.350
  21957258.261   -18971864.07149 -14756757.02247  21957258.097    21957265.697
  21081014.709   -21422230.90049 -16670663.77147  21081013.908    21081022.013
 03  4 10 18 31 30.0000000  0  6G24G30G17G 5G 6G10
  22777368.768    10804056.52649   8420045.29546  22777368.526    22777377.328
  20239880.106   -18311940.98149 -14011139.73948  20239880.422    20239886.720
  23818167.340    -9736963.07449  -7573924.60746  23818166.967    23818176.422
  20898550.264    -2709451.83949  -2097888.15348  20898549.765    20898557.162
  21946033.725   -19030848.99849 -14802719.28947  21946033.617    21946041.201
  21076411.382   -21446421.57649 -16689513.65747  21076410.604    21076418.713
 03  4 10 18 32  0.0000000  0  6G24G30G17G 5G 6G10
  22793038.840    10886403.05249   8484211.33946  22793038.638    22793047.428
  20238202.418   -18320757.37849 -14018009.66648  20238202.744    20238209.042
  23802485.144    -9819373.38049  -7638140.37546  23802484.693    23802494.211
  20909912.650    -2649742.25349  -2051361.24248  20909912.149    20909919.557
  21934828.153   -19089734.72149 -14848604.25247  21934828.044    21934835.582
  21071925.360   -21469995.80349 -16707883.19047  21071924.570    21071932.680
 03  4 10 18 32 30.0000000  0  6G24G30G17G 5G 6G10
  22808726.511    10968841.92149   8548449.34646  22808726.277    22808735.097
  20236634.747   -18328995.49449 -14024428.98848  20236635.069    20236641.386
  23786839.563    -9901591.18549  -7702206.17346  23786839.104    23786848.628
  20921363.401    -2589568.13449  -2004472.35948  20921362.892    20921370.338
  21923641.588   -19148520.27849 -14894411.16547  21923641.469    21923648.975
  21067556.896   -21492952.16149 -16725771.26947  21067556.105    21067564.216
 03  4 10 18 33  0.0000000  0  6G24G30G17G 5G 6G10
  22824431.215    11051370.63749   8612757.35446  22824430.985    22824439.831
  20235177.138   -18336655.08849 -14030397.51448  20235177.478    20235183.812
  23771230.663    -9983616.37749  -7766121.86446  23771230.180    23771239.763
  20932902.117    -2528931.59749  -1957223.14748  20932901.664    20932909.124
  21912474.161   -19207205.34649 -14940139.78047  21912474.050    21912481.524
  21063306.107   -21515290.21949 -16743177.55847  21063305.307    21063313.428
 03  4 10 18 33 30.0000000  0  6G24G30G17G 5G 6G10
  22840152.887    11133988.43049   8677134.76646  22840152.692    22840161.638
  20233829.978   -18343734.65549 -14035914.07148  20233830.301    20233836.648
  23755658.618   -10065447.82549  -7829886.60846  23755658.200    23755667.663
  20944528.787    -2467833.33149  -1909614.14648  20944528.325    20944535.799
  21901326.167   -19265788.25749 -14985788.78847  21901326.088    21901333.542
  21059173.288   -21537008.31449 -16760100.76147  21059172.518    21059180.621
 03  4 10 18 34  0.0000000  0  6G24G30G17G 5G 6G10
  22855891.162    11216693.30149   8741580.04946  22855890.936    22855899.896
  20232593.239   -18350233.78649 -14040978.33848  20232593.557    20232599.920
  23740123.621   -10147084.82649  -7893499.82546  23740123.135    23740132.660
  20956242.966    -2406275.09449  -1861646.72648  20956242.505    20956249.999
  21890197.670   -19324268.57349 -15031357.85347  21890197.612    21890205.076
  21055158.567   -21558105.77849 -16776540.35147  21055157.807    21055165.921
 03  4 10 18 34 30.0000000  0  6G24G30G17G 5G 6G10
  22871645.580    11299483.11349   8806091.50346  22871645.429    22871654.376
  20231467.025   -18356151.96749 -14045589.91948  20231467.357    20231473.711
  23724625.577   -10228526.79649  -7956961.06246  23724625.174    23724634.759
  20968044.240    -2344259.04449  -1813322.57548  20968043.775    20968051.261
  21879088.800   -19382645.88949 -15076846.65947  21879088.762    21879096.231
  21051262.157   -21578581.58949 -16792495.53847  21051261.375    21051269.522
 03  4 10 18 35  0.0000000  0  6G24G30G17G 5G 6G10
  22887415.968    11382356.60249   8870668.17046  22887415.812    22887424.708
  20230451.543   -18361488.37149 -14049748.17048  20230451.880    20230458.231
  23709165.027   -10309772.61049  -8020269.45846  23709164.627    23709174.199
  20979932.424    -2281786.17849  -1764642.46048  20979931.965    20979939.488
  21867999.931   -19440918.63049 -15122253.98447  21867999.839    21868007.277
  21047484.329   -21598434.31349 -16807965.20647  21047483.560    21047491.691
 03  4 10 18 35 30.0000000  0  6G24G30G17G 5G 6G10
  22903201.793    11465311.36149   8935308.16246  22903201.654    22903210.600
  20229546.813   -18366242.88749 -14053453.00048  20229547.136    20229553.530
  23693741.877   -10390821.92149  -8083424.74646  23693741.484    23693750.927
  20991907.096    -2218858.90849  -1715608.26648  20991906.645    20991914.204
  21856930.995   -19499086.73549 -15167579.77347  21856930.822    21856938.266
  21043825.070   -21617663.74249 -16822949.18847  21043824.304    21043832.439
 03  4 10 18 36  0.0000000  0  6G24G30G17G 5G 6G10
  22919002.789    11548346.20449   9000010.54346  22919002.694    22919011.672
  20228752.988   -18370414.40849 -14056703.55048  20228753.315    20228759.714
  23678356.240   -10471673.98849  -8146426.32646  23678355.826    23678365.172
  21003968.038    -2155478.34249  -1666220.85548  21003967.596    21003975.161
  21845882.138   -19557148.83349 -15212822.95647  21845881.951    21845889.390
  21040284.716   -21636268.59049 -16837446.48247  21040283.964    21040292.065
 03  4 10 18 36 30.0000000  0  6G24G30G17G 5G 6G10
  22934818.737    11631459.73349   9064774.23646  22934818.705    22934827.738
  20228070.240   -18374002.34749 -14059499.35748  20228070.578    20228076.970
  23663008.318   -10552327.68449  -8209273.33246  23663007.900    23663017.292
  21016114.958    -2091646.01749  -1616481.42348  21016114.507    21016122.086
  21834853.597   -19615103.98149 -15257982.80147  21834853.455    21834860.906
  21036863.455   -21654247.58949 -16851456.09847  21036862.683    21036870.777
 03  4 10 18 37  0.0000000  0  6G24G30G17G 5G 6G10
  22950649.350    11714650.14149   9129597.85546  22950649.366    22950658.408
  20227498.652   -18377006.30849 -14061840.11848  20227498.974    20227505.358
  23647698.279   -10632782.79149  -8271965.59946  23647697.789    23647707.154
  21028347.492    -2027363.82849  -1566391.45848  21028347.038    21028354.644
  21823845.515   -19672951.49049 -15303058.77247  21823845.416    21823852.888
  21033561.363   -21671600.15149 -16864977.58947  21033560.599    21033568.688
 03  4 10 18 37 30.0000000  0  6G24G30G17G 5G 6G10
  22966494.242    11797915.31149   9194479.73346  22966494.286    22966503.270
  20227038.265   -18379425.72549 -14063725.39848  20227038.573    20227044.953
  23632426.092   -10713038.35049  -8334502.36846  23632425.652    23632435.070
  21040665.383    -1962633.11449  -1515951.99148  21040664.921    21040672.535
  21812858.079   -19730690.44449 -15348050.15747  21812858.013    21812865.492
  21030378.690   -21688325.38049 -16878010.23947  21030377.932    21030386.009
 03  4 10 18 38  0.0000000  0  6G24G30G17G 5G 6G10
  22982353.164    11881253.87049   9259418.77846  22982353.188    22982362.118
  20226689.152   -18381260.18749 -14065154.85848  20226689.484    20226695.866
  23617192.040   -10793093.52349  -8396882.99546  23617191.599    23617201.070
  21053068.237    -1897455.86449  -1465164.56548  21053067.774    21053075.373
  21801891.534   -19788320.02349 -15392956.31247  21801891.475    21801898.963
  21027315.511   -21704422.56249 -16890553.50347  21027314.733    21027322.836
 03  4 10 18 38 30.0000000  0  6G24G30G17G 5G 6G10
  22998225.716    11964664.03349   9324413.62246  22998225.679    22998234.657
  20226451.438   -18382509.47449 -14066128.34548  20226451.769    20226458.185
  23601996.159   -10872947.96749  -8459107.20846  23601995.739    23602005.229
  21065555.696    -1831833.95849  -1414030.65848  21065555.250    21065562.885
  21790945.944   -19845839.51849 -15437776.68247  21790945.892    21790953.383
  21024371.926   -21719891.30849 -16902607.07947  21024371.151    21024379.274
 03  4 10 18 39  0.0000000  0  6G24G30G17G 5G 6G10
  23014111.554    12048144.42849   9389463.18446  23014111.532    23014120.595
  20226325.257   -18383172.63949 -14066645.11148  20226325.596    20226331.990
  23586838.645   -10952600.95749  -8521174.44746  23586838.212    23586847.737
  21078127.492    -1765768.84549  -1362551.39748  21078127.056    21078134.700
  21780021.514   -19903247.75849 -15482510.36347  21780021.475    21780028.926
  21021548.105   -21734730.31049 -16914169.94347  21021547.356    21021555.497
 03  4 10 18 39 30.0000000  0  6G24G30G17G 5G 6G10
  23030010.432    12131693.40949   9454566.20546  23030010.366    23030019.520
  20226310.606   -18383249.63549 -14066705.12048  20226310.946    20226317.338
  23571719.662   -11032051.54749  -8583083.97746  23571719.238    23571728.737
  21090783.277    -1699262.42249  -1310728.25648  21090782.835    21090790.514
  21769118.457   -19960543.90649 -15527156.70247  21769118.393    21769125.849
  21018844.262   -21748939.21449 -16925241.82147  21018843.488    21018851.606
 03  4 10 18 40  0.0000000  0  6G24G30G17G 5G 6G10
  23045922.004    12215309.17749   9519721.23646  23045921.970    23045931.190
  20226407.608   -18382739.92849 -14066307.96548  20226407.939    20226414.345
  23556639.383   -11111299.38249  -8644835.50346  23556638.918    23556648.395
  21103522.662    -1632316.65849  -1258562.77447  21103522.225    21103529.899
  21758236.788   -20017727.21049 -15571715.10747  21758236.736    21758244.231
  21016260.422   -21762517.37749 -16935822.21447  21016259.666    21016267.780
 03  4 10 18 40 30.0000000  0  6G24G30G17G 5G 6G10
  23061845.953    12298989.40149   9584926.53846  23061845.896    23061855.083
  20226616.205   -18381643.79149 -14065453.84848  20226616.555    20226622.932
  23541597.674   -11190344.28649  -8706428.91446  23541597.181    23541606.578
  21116345.274    -1564933.60449  -1206056.54147  21116344.839    21116352.531
  21747376.688   -20074797.21849 -15616185.22947  21747376.674    21747384.167
  21013796.719   -21775464.40349 -16945910.80847  21013795.962    21013804.070
 03  4 10 18 41  0.0000000  0  6G24G30G17G 5G 6G10
  23077782.034    12382733.43449   9650181.52246  23077781.934    23077791.113
  20226936.570   -18379960.30149 -14064142.05448  20226936.923    20226943.304
  23526594.674   -11269185.19049  -8767863.36246  23526594.198    23526603.662
  21129250.839    -1497114.55649  -1153210.57847  21129250.394    21129258.101
  21736538.518   -20131752.31349 -15660565.80847  21736538.458    21736545.944
  21011453.288   -21787779.21349 -16955506.76947  21011452.534    21011460.631
 03  4 10 18 41 30.0000000  0  6G24G30G17G 5G 6G10
  23093729.930    12466539.70949   9715485.04646  23093729.813    23093739.067
  20227368.881   -18377688.76249 -14062372.03848  20227369.234    20227375.594
  23511630.741   -11347820.85649  -8829137.87646  23511630.307    23511639.795
  21142239.119    -1428861.03249  -1100026.05847  21142238.673    21142246.394
  21725722.428   -20188591.30149 -15704855.92147  21725722.345    21725729.861
  21009230.310   -21799460.92649 -16964609.40347  21009229.563    21009237.675
 03  4 10 18 42  0.0000000  0  6G24G30G17G 5G 6G10
  23109689.297    12550406.32549   9780835.55046  23109689.174    23109698.426
  20227913.035   -18374829.34549 -14060143.93548  20227913.377    20227919.729
  23496705.975   -11426250.86749  -8890252.15446  23496705.549    23496715.081
  21155309.612    -1360175.37849  -1046504.81647  21155309.154    21155316.854
  21714928.484   -20245313.74549 -15749055.21347  21714928.388    21714935.913
  21007127.895   -21810509.48149 -16973218.67547  21007127.138    21007135.217
 03  4 10 18 42 30.0000000  0  6G24G30G17G 5G 6G10
  23125659.815    12634331.62249   9846231.78446  23125659.658    23125668.954
  20228569.080   -18371381.96949 -14057457.68248  20228569.403    20228575.757
  23481820.431   -11504474.82049  -8951205.85546  23481819.954    23481829.534
  21168461.941    -1291059.55649   -992648.37947  21168461.489    21168469.207
  21704156.894   -20301918.86249 -15793163.08547  21704156.805    21704164.312
  21005146.012   -21820924.24449 -16981334.07947  21005145.261    21005153.364
 03  4 10 18 43  0.0000000  0  6G24G30G17G 5G 6G10
  23141641.068    12718313.60949   9911672.21146  23141640.975    23141650.297
  20229336.956   -18367346.51049 -14054313.18448  20229337.321    20229343.689
  23466974.156   -11582492.70849  -9011998.98446  23466973.682    23466983.239
  21181695.753    -1221515.50949   -938458.25747  21181695.307    21181703.044
  21693407.755   -20358405.94949 -15837178.98047  21693407.696    21693415.160
  21003284.790   -21830704.97949 -16988955.43347  21003284.039    21003292.158
 03  4 10 18 43 30.0000000  0  6G24G30G17G 5G 6G10
  23157632.955    12802351.01249   9977155.81746  23157632.874    23157642.206
  20230216.895   -18362722.33849 -14050709.94948  20230217.262    20230223.653
  23452167.318   -11660303.25249  -9072630.55746  23452166.872    23452176.296
  21195010.805    -1151544.73349   -883935.62147  21195010.360    21195018.075
  21682681.360   -20414773.55649 -15881101.78247  21682681.322    21682688.732
  21001544.394   -21839850.86349 -16996082.10647  21001543.654    21001551.743
 03  4 10 18 44  0.0000000  0  6G24G30G17G 5G 6G10
  23173635.066    12886442.45049  10042681.50946  23173635.046    23173644.343
  20231208.947   -18357509.30049 -14046647.85348  20231209.315    20231215.723
  23437399.993   -11737905.90449  -9133100.12446  23437399.556    23437408.976
  21208406.641    -1081149.19249   -829082.00047  21208406.196    21208413.922
  21671977.866   -20471020.69449 -15924930.70647  21671977.812    21671985.216
  20999924.892   -21848361.37649 -17002713.67247  20999924.145    20999932.245
 03  4 10 18 44 30.0000000  0  6G24G30G17G 5G 6G10
  23189647.321    12970586.92449  10108248.53746  23189647.311    23189656.606
  20232313.109   -18351706.88449 -14042126.50348  20232313.481    20232319.872
  23422672.328   -11815299.77749  -9193407.01146  23422671.922    23422681.383
  21221883.048    -1010330.53049   -773898.68047  21221882.606    21221890.331
  21661297.561   -20527146.06949 -15968664.75547  21661297.486    21661304.888
  20998426.511   -21856235.67949 -17008849.49747  20998425.762    20998433.822
 03  4 10 18 45  0.0000000  0  6G24G30G17G 5G 6G10
  23205669.189    13054782.10049  10173855.08646  23205669.149    23205678.493
  20233529.276   -18345315.89749 -14037146.52748  20233529.649    20233536.069
  23407984.490   -11892485.18549  -9253551.45846  23407984.030    23407993.440
  21235439.435     -939091.43349   -718387.74747  21235438.991    21235446.727
  21650640.436   -20583149.37049 -16012303.67647  21650640.394    21650647.789
  20997049.056   -21863474.20349 -17014489.91047  20997048.296    20997056.359
 03  4 10 18 45 30.0000000  0  6G24G30G17G 5G 6G10
  23221700.304    13139025.95549  10239499.55946  23221700.281    23221709.665
  20234857.469   -18338336.17849 -14031707.79948  20234857.839    20234864.297
  23393336.363   -11969461.25249  -9313532.78746  23393335.950    23393345.348
  21249075.429     -867434.01849   -662550.84647  21249074.991    21249082.717
  21640006.676   -20639029.85449 -16055846.90447  21640006.675    21640014.072
  20995792.578   -21870077.06449 -17019634.99847  20995791.826    20995799.897
 03  4 10 18 46  0.0000000  0  6G24G30G17G 5G 6G10
  23237740.709    13223318.33949  10305181.85246  23237740.696    23237750.058
  20236297.922   -18330766.75449 -14025809.56348  20236298.292    20236304.730
  23378728.272   -12046227.05649  -9373350.27646  23378727.873    23378737.333
  21262790.846     -795359.22349   -606388.71447  21262790.406    21262798.159
  21629396.748   -20694785.58149 -16099292.91347  21629396.690    21629404.099
  20994657.341   -21876042.93349 -17024283.72747  20994656.592    20994664.672
 03  4 10 18 46 30.0000000  0  6G24G30G17G 5G 6G10
  23253789.949    13307657.30549  10370900.43246  23253789.896    23253799.318
  20237850.525   -18322607.98349 -14019452.09148  20237850.848    20237857.277
  23364160.316   -12122782.07449  -9433003.51446  23364159.899    23364169.348
  21276585.238     -722869.47549   -549903.24447  21276584.787    21276592.585
  21618810.552   -20750416.04749 -16142641.31547  21618810.529    21618817.982
  20993643.323   -21881371.71449 -17028436.02747  20993642.554    20993650.647
 03  4 10 18 47  0.0000000  0  6G24G30G17G 5G 6G10
  23269847.667    13392040.89049  10436653.78946  23269847.620    23269857.096
  20239515.179   -18313859.94649 -14012635.45448  20239515.525    20239521.987
  23349632.567   -12199126.02149  -9492492.26946  23349632.176    23349641.529
  21290458.185     -649966.82449   -493096.03347  21290457.743    21290465.535
  21608248.400   -20805920.52849 -16185891.54747  21608248.361    21608255.815
  20992750.489   -21886063.40149 -17032091.88647  20992749.742    20992757.837
 03  4 10 18 47 30.0000000  0  6G24G30G17G 5G 6G10
  23285913.544    13476467.35649  10502440.55046  23285913.497    23285922.960
  20241292.021   -18304522.77649 -14005359.75248  20241292.365    20241298.813
  23335145.046   -12275258.68549  -9551816.40146  23335144.595    23335153.912
  21304409.338     -576653.30849   -435968.67047  21304408.885    21304416.648
  21597710.451   -20861298.07049 -16229042.86147  21597710.376    21597717.798
  20991978.940   -21890118.09749 -17035251.39547  20991978.176    20991986.268
 03  4 10 18 48  0.0000000  0  6G24G30G17G 5G 6G10
  23301987.457    13560935.62449  10568259.88646  23301987.380    23301996.800
  20243180.954   -18294596.38649 -13997624.91748  20243181.297    20243187.758
  23320697.879   -12351178.89949  -9610974.97746  23320697.437    23320706.774
  21318438.280     -502930.90349   -378522.69947  21318437.812    21318445.621
  21587196.858   -20916547.60649 -16272094.43147  21587196.745    21587204.158
  20991328.644   -21893535.27049 -17037914.13047  20991327.886    20991335.989
 03  4 10 18 48 30.0000000  0  6G24G30G17G 5G 6G10
  23318069.015    13645444.34249  10634110.76546  23318068.947    23318078.354
  20245182.057   -18284080.49449 -13989430.72848  20245182.412    20245188.894
  23306291.251   -12426886.21049  -9669967.66446  23306290.791    23306300.164
  21332544.611     -428801.56449   -320759.63547  21332544.167    21332552.015
  21576707.821   -20971667.65249 -16315045.10047  21576707.756    21576715.158
  20990799.855   -21896314.26649 -17040079.58247  20990799.082    20990807.168
 03  4 10 18 49  0.0000000  0  6G24G30G17G 5G 6G10
  23334158.034    13729992.11549  10699992.05246  23334157.948    23334167.299
  20247295.329   -18272975.31049 -13980777.35648  20247295.679    20247302.144
  23291925.172   -12502380.31949  -9728794.21746  23291924.696    23291934.090
  21346728.074     -354267.14149   -262680.91947  21346727.628    21346735.485
  21566243.639   -21026657.22249 -16357894.10747  21566243.580    21566250.970
  20990392.434   -21898455.21549 -17041747.86447  20990391.674    20990399.761
 03  4 10 18 49 30.0000000  0  6G24G30G17G 5G 6G10
  23350254.173    13814577.43149  10765902.59846  23350254.066    23350263.437
  20249520.694   -18261280.98849 -13971664.91548  20249521.048    20249527.517
  23277599.757   -12577660.68749  -9787454.22246  23277599.304    23277608.683
  21360988.301     -279329.58649   -204288.07547  21360987.846    21360995.699
  21555804.430   -21081515.58849 -16400640.87547  21555804.357    21555811.784
  20990106.436   -21899958.32549 -17042919.12047  20990105.662    20990113.756
 03  4 10 18 50  0.0000000  0  6G24G30G17G 5G 6G10
  23366357.241    13899198.96449  10831841.36746  23366357.068    23366366.456
  20251858.202   -18248997.32749 -13962093.24548  20251858.550    20251865.043
  23263315.041   -12652726.72049  -9845947.19746  23263314.672    23263324.050
  21375324.814     -203990.96249   -145582.70847  21375324.371    21375332.227
  21545390.490   -21136241.40449 -16443284.35747  21545390.387    21545397.821
  20989941.850   -21900823.03749 -17043592.92147  20989941.096    20989949.184
 03  4 10 18 50 30.0000000  0  6G24G30G17G 5G 6G10
  23382466.746    13983854.78349  10897806.83646  23382466.525    23382476.074
  20254307.770   -18236124.87549 -13952062.78148  20254308.134    20254314.600
  23249071.493   -12727577.63149  -9904272.56246  23249071.033    23249080.306
  21389737.179     -128253.68949    -86566.71047  21389736.743    21389744.595
  21535001.869   -21190834.01049 -16485824.04047  21535001.768    21535009.148
  20989898.717   -21901049.80349 -17043769.62847  20989897.976    20989906.042
 03  4 10 18 51  0.0000000  0  6G24G30G17G 5G 6G10
  23398582.498    14068543.60249  10963798.02246  23398582.368    23398591.983
  20256869.397   -18222663.61049 -13941573.50148  20256869.731    20256876.225
  23234868.784   -12802213.34349  -9962430.23546  23234868.335    23234877.587
  21404225.019      -52119.79249    -27241.66247  21404224.564    21404232.475
  21524638.838   -21245292.14449 -16528258.94247  21524638.752    21524646.121
  20989977.057   -21900638.30149 -17043448.98447  20989976.292    20989984.368
 03  4 10 18 51 30.0000000  0  6G24G30G17G 5G 6G10
  23414704.332    14153264.04549  11029813.86746  23414704.197    23414713.869
  20259542.972   -18208613.82649 -13930625.63748  20259543.310    20259549.821
  23220707.130   -12876633.22549 -10020419.73446  23220706.689    23220715.957
  21418787.915       24408.72249     32390.88947  21418787.492    21418795.383
  21514301.626   -21299614.55149 -16570588.07747  21514301.539    21514308.860
  20990176.792   -21899588.50749 -17042630.96747  20990176.034    20990184.136
 03  4 10 18 52  0.0000000  0  6G24G30G17G 5G 6G10
  23430831.933    14238014.80549  11095853.33046  23430831.832    23430841.454
  20262328.512   -18193975.71149 -13919219.33348  20262328.862    20262335.362
  23206586.595   -12950837.04649 -10078240.85346  23206586.155    23206595.472
  21433425.560      101329.72549     92329.27047  21433425.148    21433433.023
  21503990.454   -21353800.42549 -16612810.82647  21503990.367    21503997.645
  20990498.001   -21897900.53549 -17041315.67047  20990497.261    20990505.342
 03  4 10 18 52 30.0000000  0  6G24G30G17G 5G 6G10
  23446964.821    14322793.46849  11161914.53446  23446964.774    23446974.342
  20265225.807   -18178750.43749 -13907355.50348  20265226.166    20265232.680
  23192507.094   -13024825.20849 -10135893.94646  23192506.672    23192515.949
  21448137.325      178640.08049    152571.03647  21448136.884    21448144.761
  21493705.251   -21407849.74349 -16654927.16647  21493705.118    21493712.383
  20990940.455   -21895575.51149 -17039503.97347  20990939.715    20990947.781
 03  4 10 18 53  0.0000000  0  6G24G30G17G 5G 6G10
  23463103.296    14407601.41549  11227998.54946  23463103.231    23463112.813
  20268235.310   -18162935.52449 -13895032.21548  20268235.672    20268242.187
  23178469.183   -13098594.73249 -10193376.66746  23178468.760    23178478.004
  21462923.279      256340.55949    213116.79247  21462922.828    21462930.741
  21483446.774   -21461758.65149 -16696934.09847  21483446.609    21483453.874
  20991504.684   -21892610.49949 -17037193.58247  20991503.944    20991512.000
 03  4 10 18 53 30.0000000  0  6G24G30G17G 5G 6G10
  23479246.772    14492435.21649  11294102.70746  23479246.666    23479256.276
  20271356.618   -18146533.09249 -13882251.12348  20271356.952    20271363.469
  23164472.738   -13172146.46349 -10250689.68446  23164472.339    23164481.537
  21477782.658      334427.10749    273963.38347  21477782.231    21477790.158
  21473214.830   -21515527.78449 -16738832.11647  21473214.653    21473221.959
  20992190.283   -21889007.67149 -17034386.19247  20992189.540    20992197.605
 03  4 10 18 54  0.0000000  0  6G24G30G17G 5G 6G10
  23495394.831    14577293.49149  11360225.95446  23495394.737    23495404.320
  20274589.613   -18129543.68749 -13869012.64448  20274589.953    20274596.469
  23150517.703   -13245480.59649 -10307833.14146  23150517.280    23150526.546
  21492715.155      412897.52149    335109.09947  21492714.713    21492722.643
  21463009.635   -21569156.26449 -16780620.53547  21463009.468    21463016.790
  20992997.169   -21884767.26349 -17031081.98947  20992996.441    20993004.509
 03  4 10 18 54 30.0000000  0  6G24G30G17G 5G 6G10
  23511547.304    14662175.27649  11426367.49346  23511547.214    23511556.871
  20277934.352   -18111967.08849 -13855316.61748  20277934.678    20277941.198
  23136604.195   -13318596.41449 -10364806.47946  23136603.762    23136613.066
  21507720.330      491749.92849    396552.46947  21507719.865    21507727.816
  21452831.515   -21622642.50249 -16822298.11947  21452831.354    21452838.686
  20993925.491   -21879888.97049 -17027280.73247  20993924.748    20993932.819
 03  4 10 18 55  0.0000000  0  6G24G30G17G 5G 6G10
  23527704.081    14747079.39849  11492526.44446  23527703.969    23527713.662
  20281390.736   -18093803.62449 -13841163.29148  20281391.085    20281397.617
  23122732.524   -13391492.73449 -10421608.77846  23122732.076    23122741.372
  21522797.799      570982.36749    458291.97747  21522797.367    21522805.329
  21442680.671   -21675985.36149 -16863863.97347  21442680.531    21442687.884
  20994975.134   -21874373.07349 -17022982.64347  20994974.392    20994982.480
 03  4 10 18 55 30.0000000  0  6G24G30G17G 5G 6G10
  23543864.711    14832003.72049  11558701.15546  23543864.592    23543874.357
  20284958.625   -18075054.46649 -13826553.58148  20284958.975    20284965.503
  23108902.503   -13464169.91949 -10478240.33346  23108902.070    23108911.315
  21537947.040      650591.76349    520325.20947  21537946.590    21537954.574
  21432557.166   -21729184.56849 -16905317.89647  21432557.069    21432564.442
  20996145.945   -21868220.49749 -17018188.43847  20996145.211    20996153.290
 03  4 10 18 56  0.0000000  0  6G24G30G17G 5G 6G10
  23560029.043    14916947.19649  11624890.76946  23560028.881    23560038.638
  20288637.880   -18055719.85649 -13811487.67548  20288638.238    20288644.757
  23095114.286   -13536627.65249 -10534700.87746  23095113.826    23095123.015
  21553167.606      730576.18849    582650.68047  21553167.133    21553175.128
  21422461.283   -21782238.73249 -16946658.79847  21422461.179    21422468.569
  20997437.869   -21861431.28749 -17012898.15647  20997437.157    20997445.257
 03  4 10 18 56 30.0000000  0  6G24G30G17G 5G 6G10
  23576196.759    15001908.45549  11691094.23646  23576196.538    23576206.389
  20292428.471   -18035800.20549 -13795965.89448  20292428.834    20292435.381
  23081367.806   -13608865.79449 -10590990.31846  23081367.342    23081376.536
  21568459.070      810933.47749    645266.68947  21568458.637    21568466.691
  21412393.245   -21835146.60149 -16987885.70047  21412393.129    21412400.560
  20998850.940   -21854005.58349 -17007111.90647  20998850.238    20998858.319
 03  4 10 18 57  0.0000000  0  6G24G30G17G 5G 6G10
  23592367.583    15086886.48149  11757310.78346  23592367.423    23592377.247
  20296330.493   -18015295.07449 -13779987.89448  20296330.862    20296337.396
  23067663.249   -13680883.05649 -10647107.63246  23067662.820    23067672.091
  21583821.276      891662.09049    708172.03747  21583820.852    21583828.914
  21402353.377   -21887906.30549 -17028997.14647  21402353.269    21402360.704
  21000385.207   -21845943.28049 -17000829.60447  21000384.466    21000392.558
 03  4 10 18 57 30.0000000  0  6G24G30G17G 5G 6G10
  23608541.467    15171880.32549  11823539.64946  23608541.337    23608551.154
  20300343.789   -17994205.20149 -13763554.24748  20300344.144    20300350.694
  23054000.864   -13752678.96949 -10703052.47646  23054000.468    23054009.796
  21599253.725      972759.72049    771364.93747  21599253.288    21599261.329
  21392341.892   -21940516.81349 -17069992.34047  21392341.810    21392349.217
  21002040.516   -21837244.56749 -16994051.39747  21002039.800    21002047.887
 03  4 10 18 58  0.0000000  0  6G24G30G17G 5G 6G10
  23624717.903    15256888.01649  11889779.30746  23624717.808    23624727.631
  20304468.137   -17972531.60349 -13746665.75548  20304468.499    20304475.081
  23040380.667   -13824253.74649 -10758824.99746  23040380.237    23040389.544
  21614755.851     1054223.58949    834843.21347  21614755.406    21614763.446
  21382358.958   -21992977.64249 -17110870.90147  21382358.841    21382366.239
  21003816.775   -21827910.29249 -16986777.94847  21003816.061    21003824.158
 03  4 10 18 58 30.0000000  0  6G24G30G17G 5G 6G10
  23640896.741    15341908.50649  11956028.93646  23640896.788    23640906.594
  20308703.524   -17950274.60849 -13729322.66648  20308703.887    20308710.477
  23026802.682   -13895606.42949 -10814424.46346  23026802.256    23026811.562
  21630327.233     1136051.69149    898605.30647  21630326.806    21630334.852
  21372404.745   -22045287.25649 -17151631.63347  21372404.652    21372412.042
  21005713.938   -21817940.68049 -16979009.43347  21005713.197    21005721.296
 03  4 10 18 59  0.0000000  0  6G24G30G17G 5G 6G10
  23657077.979    15426940.62749  12022287.63746  23657077.985    23657087.787
  20313049.848   -17927434.54649 -13711525.23848  20313050.218    20313056.795
  23013266.928   -13966737.19849 -10869851.01146  23013266.517    23013275.796
  21645967.540     1218241.72149    962649.41647  21645967.099    21645975.137
  21362479.528   -22097444.51549 -17192273.64147  21362479.433    21362486.813
  21007731.870   -21807336.43849 -16970746.39947  21007731.140    21007739.259
 03  4 10 18 59 30.0000000  0  6G24G30G17G 5G 6G10
  23673261.070    15511982.85749  12088554.22146  23673261.042    23673270.869
  20317506.910   -17904012.61649 -13693274.40548  20317507.272    20317513.870
  22999773.461   -14037646.13949 -10925104.70846  22999773.028    22999782.264
  21661676.245     1300791.08549   1026973.53347  21661675.794    21661683.829
  21352583.492   -22149448.54149 -17232796.25047  21352583.404    21352590.748
  21009870.438   -21796098.21549 -16961989.35747  21009869.720    21009877.825
 03  4 10 19  0  0.0000000  0  6G24G30G17G 5G 6G10
  23689445.801    15597033.96549  12154827.70345  23689445.768    23689455.651
  20322074.680   -17880008.98149 -13674570.30148  20322075.050    20322081.649
  22986322.326   -14108332.29149 -10980184.80546  22986321.871    22986331.076
  21677452.905     1383697.77549   1091576.08047  21677452.452    21677460.500
  21342716.876   -22201297.86549 -17273198.31447  21342716.785    21342724.141
  21012129.620   -21784226.27349 -16952738.51147  21012128.886    21012136.988
 03  4 10 19  0 30.0000000  0  6G24G30G17G 5G 6G10
  23705632.071    15682093.06849  12221107.41746  23705632.072    23705642.040
  20326753.035   -17855424.32549 -13655413.44748  20326753.391    20326759.986
  22972913.662   -14178795.17749 -11035090.92046  22972913.213    22972922.437
  21693297.150     1466959.69649   1156455.42947  21693296.693    21693304.807
  21332879.942   -22252991.23449 -17313478.84847  21332879.874    21332887.228
  21014509.289   -21771721.03049 -16942994.17747  21014508.578    21014516.657
 03  4 10 19  1  0.0000000  0  6G24G30G17G 5G 6G10
  23721819.547    15767158.50149  12287392.06546  23721819.566    23721829.558
  20331541.781   -17830259.25849 -13635804.33248  20331542.156    20331548.757
  22959547.493   -14249034.57549 -11089822.89346  22959547.086    22959556.282
  21709208.580     1550574.42449   1221609.69247  21709208.138    21709216.240
  21323072.895   -22304527.67449 -17353637.10747  21323072.824    21323080.180
  21017009.405   -21758582.90549 -16932756.69147  21017008.678    21017016.756
 03  4 10 19  1 30.0000000  0  6G24G30G17G 5G 6G10
  23738008.031    15852229.24949  12353680.84746  23738008.069    23738018.152
  20336440.887   -17804514.45249 -13615743.46848  20336441.265    20336447.869
  22946223.910   -14319050.24649 -11144380.52546  22946223.500    22946232.705
  21725186.756     1634539.89349   1287037.26547  21725186.306    21725194.425
  21313295.972   -22355905.74749 -17393671.95747  21313295.892    21313303.258
  21019629.870   -21744812.47349 -16922026.49647  21019629.153    21019637.232
 03  4 10 19  2  0.0000000  0  6G24G30G17G 5G 6G10
  23754197.393    15937304.25849  12419972.96846  23754197.461    23754207.546
  20341450.232   -17778190.44149 -13595231.27548  20341450.577    20341457.169
  22932943.006   -14388841.68049 -11198763.42746  22932942.574    22932951.805
  21741231.153     1718853.73549   1352736.29447  21741230.709    21741238.864
  21303549.424   -22407124.12449 -17433582.37147  21303549.340    21303556.700
  21022370.459   -21730410.52349 -16910804.20347  21022369.736    21022377.859
 03  4 10 19  2 30.0000000  0  6G24G30G17G 5G 6G10
  23770387.202    16022382.06949  12486267.26046  23770387.273    23770397.372
  20346569.507   -17751288.33049 -13574268.61648  20346569.883    20346576.473
  22919704.881   -14458408.73849 -11252971.49946  22919704.429    22919713.603
  21757341.391     1803513.35449   1418704.75847  21757340.936    21757349.124
  21293833.492   -22458181.98949 -17473367.71347  21293833.386    21293840.720
  21025231.128   -21715377.70149 -16899090.32947  21025230.406    21025238.489
 03  4 10 19  3  0.0000000  0  6G24G30G17G 5G 6G10
  23786577.369    16107461.47549  12552562.81846  23786577.455    23786587.590
  20351798.750   -17723808.75049 -13552855.97948  20351799.133    20351805.698
  22906509.405   -14527751.23649 -11307004.58946  22906508.944    22906518.129
  21773517.061     1888516.61349   1484940.99447  21773516.588    21773524.813
  21284148.277   -22509078.08249 -17513026.99547  21284148.161    21284155.483
  21028211.706   -21699714.75949 -16886885.44947  21028210.992    21028219.071
 03  4 10 19  3 30.0000000  0  6G24G30G17G 5G 6G10
  23802767.678    16192541.26049  12618858.64145  23802767.637    23802777.820
  20357137.664   -17695752.67749 -13530994.12848  20357138.017    20357144.609
  22893356.674   -14596868.89749 -11360862.47746  22893356.239    22893365.451
  21789757.587     1973861.00449   1551443.03747  21789757.145    21789765.412
  21274494.094   -22559811.25449 -17552559.32647  21274493.984    21274501.289
  21031312.040   -21683422.36349 -16874190.09047  21031311.316    21031319.411
 03  4 10 19  4  0.0000000  0  6G24G30G17G 5G 6G10
  23818957.750    16277620.33949  12685153.92345  23818957.649    23818967.958
  20362586.154   -17667120.72549 -13508683.53548  20362586.515    20362593.126
  22880246.831   -14665761.51549 -11414544.99646  22880246.375    22880255.584
  21806062.631     2059544.17049   1618209.06447  21806062.177    21806070.434
  21264871.147   -22610380.07549 -17591963.59447  21264871.066    21264878.336
  21034532.040   -21666501.30149 -16861004.85647  21034531.327    21034539.430
 03  4 10 19  4 30.0000000  0  6G24G30G17G 5G 6G10
  23835147.432    16362697.15849  12751447.44945  23835147.270    23835157.603
  20368144.123   -17637913.44949 -13485924.64548  20368144.497    20368151.107
  22867179.975   -14734428.29149 -11468051.54746  22867179.491    22867188.692
  21822431.656     2145563.99949   1685237.43247  21822431.215    21822439.511
  21255279.763   -22660783.07049 -17631238.64647  21255279.676    21255286.967
  21037871.572   -21648951.97849 -16847330.07147  21037870.835    21037878.926
 03  4 10 19  5  0.0000000  0  6G24G30G17G 5G 6G10
  23851336.519    16447770.84249  12817738.53545  23851336.413    23851346.694
  20373811.389   -17608131.87849 -13462718.25048  20373811.754    20373818.375
  22854156.151   -14802868.95349 -11521381.90646  22854155.697    22854164.830
  21838864.379     2231918.15249   1752526.31347  21838863.939    21838872.229
  21245720.106   -22711019.18949 -17670383.66847  21245720.054    21245727.339
  21041330.483   -21630775.23849 -16833166.38947  21041329.751    21041337.861
 03  4 10 19  5 30.0000000  0  6G24G30G17G 5G 6G10
  23867524.763    16532840.40049  12884026.39145  23867524.677    23867534.934
  20379587.719   -17577777.05849 -13439065.16948  20379588.095    20379594.697
  22841175.292   -14871083.79049 -11574536.29746  22841174.824    22841183.950
  21855360.199     2318603.98449   1820073.63747  21855359.749    21855368.103
  21236192.401   -22761087.50149 -17709397.93347  21236192.350    21236199.623
  21044908.550   -21611972.42049 -16818514.85847  21044907.833    21044915.936
 03  4 10 19  6  0.0000000  0  6G24G30G17G 5G 6G10
  23883712.000    16617904.79849  12950310.22945  23883711.940    23883722.217
  20385473.065   -17546849.59849 -13414965.87148  20385473.430    20385480.025
  22828237.555   -14939071.91049 -11627514.01846  22828237.120    22828246.226
  21871918.691     2405619.28549   1887877.69247  21871918.226    21871926.626
  21226696.967   -22810986.29749 -17748280.10247  21226696.924    21226704.199
  21048605.679   -21592543.87649 -16803375.74247  21048604.964    21048613.086
 03  4 10 19  6 30.0000000  0  6G24G30G17G 5G 6G10
  23899898.065    16702962.53149  13016588.88545  23899897.985    23899908.270
  20391467.177   -17515350.45849 -13390421.11148  20391467.551    20391474.172
  22815342.923   -15006833.36149 -11680315.12146  22815342.507    22815351.579
  21888539.430     2492961.57449   1955936.54947  21888538.980    21888547.382
  21217234.023   -22860714.49349 -17787029.33747  21217233.975    21217241.240
  21052421.728   -21572490.47049 -16787749.72147  21052421.002    21052429.148
 03  4 10 19  7  0.0000000  0  6G24G30G17G 5G 6G10
  23916082.655    16788012.60049  13082861.53745  23916082.581    23916092.932
  20397569.825   -17483280.81949 -13365431.81048  20397570.216    20397576.849
  22802491.519   -15074367.88449 -11732939.39746  22802491.064    22802500.179
  21905221.953     2580628.47849   2024248.34747  21905221.510    21905229.920
  21207803.713   -22910270.94049 -17825644.74847  21207803.693    21207810.938
  21056356.497   -21551813.10449 -16771637.50647  21056355.768    21056363.913
 03  4 10 19  7 30.0000000  0  6G24G30G17G 5G 6G10
  23932265.488    16873053.60249  13149127.14945  23932265.427    23932275.811
  20403780.879   -17450641.58849 -13339998.67048  20403781.266    20403787.903
  22789683.287   -15141675.37149 -11785386.76346  22789682.851    22789691.980
  21921965.776     2668617.65349   2092811.25847  21921965.329    21921973.795
  21198406.373   -22959654.33149 -17864125.31347  21198406.329    21198413.546
  21060409.843   -21530512.70449 -16755039.80647  21060409.132    21060417.275
 03  4 10 19  8  0.0000000  0  6G24G30G17G 5G 6G10
  23948446.473    16958084.74549  13215385.06745  23948446.465    23948456.758
  20410100.208   -17417433.62349 -13314122.35648  20410100.581    20410107.233
  22776918.337   -15208755.57149 -11837657.02246  22776917.888    22776927.015
  21938770.485     2756926.62149   2161623.36647  21938770.045    21938778.481
  21189042.213   -23008863.28949 -17902469.95047  21189042.161    21189049.377
  21064581.566   -21508590.19349 -16737957.33947  21064580.844    21064589.004
 03  4 10 19  8 30.0000000  0  6G24G30G17G 5G 6G10
  23964625.436    17043105.08349  13281634.58045  23964625.395    23964635.765
  20416527.500   -17383657.97149 -13287803.69348  20416527.862    20416534.539
  22764196.692   -15275608.22049 -11889749.96946  22764196.225    22764205.365
  21955635.560     2845552.94149   2230682.76247  21955635.120    21955643.562
  21179711.527   -23057896.46649 -17940677.61747  21179711.471    21179718.696
  21068871.503   -21486046.50249 -16720390.84047  21068870.774    21068878.947
 03  4 10 19  9  0.0000000  0  6G24G30G17G 5G 6G10
  23980802.020    17128113.60249  13347874.84945  23980802.016    23980812.440
  20423062.635   -17349315.66049 -13261043.48148  20423062.998    20423069.693
  22751518.556   -15342232.52049 -11941664.99646  22751518.102    22751527.174
  21972560.636     2934494.46249   2299987.76347  21972560.183    21972568.662
  21170414.530   -23106752.50449 -17978747.25147  21170414.467    21170421.725
  21073279.466   -21462882.42349 -16702340.91747  21073278.753    21073286.926
 03  4 10 19  9 30.0000000  0  6G24G30G17G 5G 6G10
  23996976.063    17213108.50149  13414104.51645  23996976.039    23996986.553
  20429705.355   -17314408.10649 -13233842.81548  20429705.739    20429712.427
  22738883.684   -15408629.10349 -11993402.55446  22738883.219    22738892.292
  21989545.113     3023748.21149   2369536.05547  21989544.675    21989553.180
  21161151.387   -23155430.61249 -18016678.24347  21161151.310    21161158.570
  21077805.213   -21439099.66949 -16683808.91447  21077804.510    21077812.642
 03  4 10 19 10  0.0000000  0  6G24G30G17G 5G 6G10
  24013147.397    17298089.14349  13480323.08045  24013147.433    24013157.920
  20436455.481   -17278935.96249 -13206202.20748  20436455.856    20436462.552
  22726292.281   -15474797.38849 -12044962.22946  22726291.825    22726300.851
  22006588.616     3113312.13749   2439326.04247  22006588.156    22006596.686
  21151922.409   -23203929.04849 -18054469.22247  21151922.339    21151929.646
  21082448.561   -21414698.78449 -16664795.24647  21082447.865    21082456.021
 03  4 10 19 10 30.0000000  0  6G24G30G17G 5G 6G10
  24029315.865    17383054.42349  13546529.67445  24029315.870    24029326.386
  20443312.810   -17242900.58649 -13178122.72148  20443313.179    20443319.882
  22713744.286   -15540737.38949 -12096344.01146  22713743.832    22713752.883
  22023690.646     3203183.54449   2509355.63047  22023690.236    22023698.735
  21142727.850   -23252246.72549 -18092119.35547  21142727.794    21142735.108
  21087209.310   -21389680.91949 -16645300.82147  21087208.589    21087216.771
 03  4 10 19 11  0.0000000  0  6G24G30G17G 5G 6G10
  24045481.273    17468003.63449  13612723.74345  24045481.210    24045491.765
  20450277.200   -17206302.67949 -13149604.89448  20450277.547    20450284.266
  22701239.791   -15606448.49949 -12147547.44946  22701239.409    22701248.437
  22040850.825     3293360.51049   2579623.31947  22040850.387    22040858.908
  21133568.078   -23300381.76349 -18129627.16647  21133568.005    21133575.284
  21092087.222   -21364047.27449 -16625326.55947  21092086.512    21092094.674
 03  4 10 19 11 30.0000000  0  6G24G30G17G 5G 6G10
  24061643.261    17552935.30749  13678904.14145  24061643.260    24061653.892
  20457348.279   -17169143.89249 -13120650.02648  20457348.652    20457355.386
  22688778.813   -15671931.18549 -12198572.88246  22688778.426    22688787.493
  22058068.601     3383840.21649   2650126.89447  22058068.167    22058076.746
  21124443.189   -23348333.29149 -18166991.98347  21124443.122    21124450.417
  21097082.130   -21337798.98749 -16604873.36547  21097081.434    21097089.581
 03  4 10 19 12  0.0000000  0  6G24G30G17G 5G 6G10
  24077801.938    17637848.75149  13745070.34545  24077801.885    24077812.544
  20464525.991   -17131424.95149 -13091258.66648  20464526.363    20464533.103
  22676361.418   -15737184.95849 -12249419.95447  22676361.012    22676370.107
  22075343.607     3474620.63949   2720864.80447  22075343.208    22075351.804
  21115353.488   -23396099.79049 -18204212.62047  21115353.435    21115360.742
  21102193.882   -21310936.58349 -16583941.63347  21102193.185    21102201.345
 03  4 10 19 12 30.0000000  0  6G24G30G17G 5G 6G10
  24093956.890    17722742.62849  13811221.30945  24093956.831    24093967.391
  20471809.961   -17093147.39349 -13061432.02848  20471810.331    20471817.096
  22663987.607   -15802209.43649 -12300088.34847  22663987.228    22663996.313
  22092675.232     3565698.80849   2791834.71547  22092674.839    22092683.393
  21106299.238   -23443680.16449 -18241288.22747  21106299.183    21106306.472
  21107422.162   -21283461.84749 -16562532.76447  21107421.426    21107429.616
 03  4 10 19 13  0.0000000  0  6G24G30G17G 5G 6G10
  24110107.791    17807616.10149  13877356.34845  24110107.750    24110118.417
  20479200.044   -17054312.33949 -13031170.97448  20479200.424    20479207.213
  22651657.536   -15867004.34649 -12350577.86847  22651657.174    22651666.199
  22110063.099     3657072.29749   2863034.74347  22110062.712    22110071.329
  21097280.672   -23491073.00949 -18278217.70747  21097280.617    21097287.892
  21112766.747   -21255375.92849 -16540647.64747  21112766.026    21112774.219
 03  4 10 19 13 30.0000000  0  6G24G30G17G 5G 6G10
  24126254.705    17892467.79149  13943474.43245  24126254.582    24126265.248
  20486695.898   -17014921.52049 -13000476.85648  20486696.285    20486703.061
  22639371.092   -15931570.28149 -12400888.95847  22639370.690    22639379.707
  22127506.686     3748738.27849   2934462.69047  22127506.256    22127514.898
  21088298.019   -23538277.36049 -18315000.30847  21088297.945    21088305.184
  21118227.334   -21226680.37849 -16518287.49447  21118226.606    21118234.804
 03  4 10 19 14  0.0000000  0  6G24G30G17G 5G 6G10
  24142397.274    17977297.14649  14009575.10545  24142397.186    24142407.796
  20494297.372   -16974975.81849 -12969350.35848  20494297.733    20494304.509
  22627128.305   -15995906.56149 -12451021.08747  22627127.875    22627136.906
  22145005.436     3840694.55249   3006116.83647  22145004.992    22145013.644
  21079351.555   -23585291.32349 -18351634.55347  21079351.459    21079358.714
  21123803.783   -21197376.03849 -16495452.95447  21123803.065    21123811.237
 03  4 10 19 14 30.0000000  0  6G24G30G17G 5G 6G10
  24158535.419    18062102.84349  14075657.34345  24158535.234    24158545.881
  20502004.144   -16934476.38949 -12937792.39248  20502004.528    20502011.324
  22614929.174   -16060012.99349 -12500974.12147  22614928.771    22614937.800
  22162558.972     3932938.61149   3077995.23747  22162558.560    22162567.178
  21070441.575   -23632113.54849 -18388119.39247  21070441.507    21070448.770
  21129495.817   -21167464.18949 -16472145.03347  21129495.085    21129503.290
 03  4 10 19 15  0.0000000  0  6G24G30G17G 5G 6G10
  24174668.858    18146884.24849  14141720.66345  24174668.695    24174679.366
  20509816.063   -16893424.55249 -12905803.97448  20509816.449    20509823.236
  22602773.887   -16123889.42049 -12550747.92947  22602773.466    22602782.516
  22180166.835     4025468.10749   3150096.06047  22180166.440    22180175.004
  21061568.337   -23678742.64149 -18424453.73448  21061568.260    21061575.532
  21135303.239   -21136946.05449 -16448364.67947  21135302.505    21135310.725
 03  4 10 19 15 30.0000000  0  6G24G30G17G 5G 6G10
  24190797.557    18231640.74449  14207764.54945  24190797.419    24190808.191
  20517732.865   -16851821.56149 -12873386.08548  20517733.249    20517740.015
  22590662.336   -16187535.48749 -12600342.23047  22590661.921    22590671.049
  22197828.558     4118280.39949   3222417.24047  22197828.104    22197836.745
  21052732.078   -23725177.41349 -18460636.66348  21052732.027    21052739.295
  21141225.814   -21105822.78049 -16424112.79147  21141225.065    21141233.301
 03  4 10 19 16  0.0000000  0  6G24G30G17G 5G 6G10
  24206921.175    18316371.01749  14273788.02145  24206921.088    24206931.896
  20525754.347   -16809668.60049 -12840539.65048  20525754.716    20525761.486
  22578594.712   -16250951.10349 -12649756.97547  22578594.315    22578603.456
  22215543.517     4211373.17949   3294956.97247  22215543.079    22215551.774
  21043933.131   -23771416.33849 -18496666.98748  21043933.068    21043940.310
  21147263.298   -21074095.69049 -16399390.39847  21147262.565    21147270.801
 03  4 10 19 16 30.0000000  0  6G24G30G17G 5G 6G10
  24223039.703    18401073.79349  14339790.03845  24223039.578    24223050.460
  20533880.142   -16766967.31149 -12807265.94748  20533880.500    20533887.308
  22566570.886   -16314136.59549 -12698992.38947  22566570.488    22566579.611
  22233311.460     4304743.81249   3367713.23447  22233311.029    22233319.672
  21035171.665   -23817458.15449 -18532543.71148  21035171.624    21035178.838
  21153415.366   -21041766.43149 -16374198.78247  21153414.616    21153422.861
 03  4 10 19 17  0.0000000  0  6G24G30G17G 5G 6G10
  24239152.803    18485748.25949  14405770.03745  24239152.624    24239163.681
  20542109.934   -16723719.33649 -12773566.25548  20542110.303    20542117.145
  22554590.926   -16377091.89249 -12748048.42647  22554590.472    22554599.644
  22251131.703     4398389.50349   3440683.80346  22251131.262    22251139.946
  21026447.942   -23863301.62649 -18568265.88848  21026447.873    21026455.110
  21159681.698   -21008836.56349 -16348539.15947  21159680.958    21159689.204
 03  4 10 19 17 30.0000000  0  6G24G30G17G 5G 6G10
  24255260.412    18570393.68449  14471727.38945  24255260.233    24255271.299
  20550443.587   -16679925.77549 -12739441.43048  20550443.974    20550450.823
  22542654.750   -16439816.72049 -12796924.88047  22542654.325    22542663.472
  22269003.902     4492308.06849   3513867.01346  22269003.450    22269012.213
  21017762.254   -23908945.14749 -18603832.25648  21017762.206    21017769.445
  21166062.148   -20975307.18649 -16322412.38447  21166061.391    21166069.646
 03  4 10 19 18  0.0000000  0  6G24G30G17G 5G 6G10
  24271362.261    18655008.74449  14537661.07945  24271362.065    24271373.157
  20558880.752   -16635588.37949 -12704892.84148  20558881.123    20558887.992
  22530762.493   -16502310.93949 -12845621.63747  22530762.068    22530771.164
  22286927.430     4586496.65249   3587260.61946  22286927.011    22286935.754
  21009114.880   -23954387.53849 -18639241.90348  21009114.832    21009122.048
  21172556.367   -20941180.07949 -16295819.84747  21172555.625    21172563.861
 03  4 10 19 18 30.0000000  0  6G24G30G17G 5G 6G10
  24287458.188    18739592.97149  14603570.75145  24287458.033    24287469.092
  20567421.146   -16590708.38549 -12669921.44548  20567421.520    20567428.386
  22518914.109   -16564574.43849 -12894138.61547  22518913.690    22518922.753
  22304902.002     4680952.91649   3660862.80546  22304901.548    22304910.240
  21000506.090   -23999627.17149 -18674493.55648  21000506.022    21000513.225
  21179163.986   -20906456.65349 -16268762.64247  21179163.260    21179171.476
 03  4 10 19 19  0.0000000  0  6G24G30G17G 5G 6G10
  24303548.094    18824145.55049  14669455.76145  24303547.973    24303559.033
  20576064.598   -16545286.94049 -12634528.14448  20576064.967    20576071.821
  22507109.691   -16626606.82549 -12942475.51447  22507109.292    22507118.288
  22322926.962     4775674.53349   3734671.76246  22322926.519    22322935.221
  20991936.146   -24044662.40149 -18709585.93548  20991936.075    20991943.298
  21185884.919   -20871137.92549 -16241241.56847  21185884.188    21185892.436
 03  4 10 19 19 30.0000000  0  6G24G30G17G 5G 6G10
  24319631.740    18908665.16049  14735315.07245  24319631.569    24319642.673
  20584810.629   -16499326.20749 -12598714.61648  20584811.002    20584817.889
  22495349.236   -16688408.41149 -12990632.56247  22495348.814    22495357.798
  22341001.887     4870658.64949   3808685.26546  22341001.476    22341010.261
  20983405.276   -24089492.28649 -18744518.29948  20983405.211    20983412.475
  21192718.794   -20835225.87849 -16213258.16347  21192718.037    21192726.289
 03  4 10 19 20  0.0000000  0  6G24G30G17G 5G 6G10
  24335708.965    18993151.25649  14801148.26445  24335708.739    24335720.000
  20593659.086   -16452827.52649 -12562481.91148  20593659.456    20593666.347
  22483632.693   -16749979.01349 -13038609.62247  22483632.265    22483641.294
  22359126.251     4965902.76149   3882901.35046  22359125.859    22359134.710
  20974913.758   -24134115.38049 -18779289.53048  20974913.690    20974920.962
  21199665.236   -20798722.18749 -16184813.73847  21199664.498    21199672.734
 03  4 10 19 20 30.0000000  0  6G24G30G17G 5G 6G10
  24351779.552    19077602.67549  14866954.41245  24351779.345    24351790.630
  20602609.603   -16405792.44949 -12525831.23248  20602609.950    20602616.871
  22471960.205   -16811318.40549 -13086406.51447  22471959.786    22471968.788
  22377299.663     5061404.04149   3957317.84346  22377299.248    22377308.064
  20966461.890   -24178530.29849 -18813898.54548  20966461.821    20966469.077
  21206723.995   -20761628.29549 -16155909.41947  21206723.271    21206731.477
 03  4 10 19 21  0.0000000  0  6G24G30G17G 5G 6G10
  24367843.468    19162018.67149  14932732.97445  24367843.293    24367854.503
  20611661.867   -16358222.51349 -12488763.77948  20611662.233    20611669.120
  22460331.670   -16872426.69949 -13134023.32947  22460331.246    22460340.215
  22395521.555     5157160.27049   4031932.98946  22395521.123    22395529.951
  20958049.928   -24222735.38249 -18848344.05448  20958049.864    20958057.094
  21213894.751   -20723945.60949 -16126546.29947  21213894.037    21213902.207
 03  4 10 19 21 30.0000000  0  6G24G30G17G 5G 6G10
  24383900.417    19246398.11849  14998483.06145  24383900.347    24383911.547
  20620815.616   -16310119.43749 -12451280.88948  20620815.986    20620822.867
  22448746.994   -16933304.46449 -13181460.51247  22448746.586    22448755.542
  22413791.360     5253168.60149   4106744.57246  22413790.925    22413799.825
  20949678.101   -24266729.55849 -18882625.21948  20949678.030    20949685.278
  21221177.261   -20685676.07349 -16096725.89147  21221176.525    21221184.679
 03  4 10 19 22  0.0000000  0  6G24G30G17G 5G 6G10
  24399950.441    19330740.73449  15064204.45445  24399950.326    24399961.527
  20630070.534   -16261484.66349 -12413383.69648  20630070.889    20630077.754
  22437206.325   -16993951.18249 -13228717.65847  22437205.886    22437214.818
  22432108.744     5349426.64249   4181750.73746  22432108.305    22432117.238
  20941346.737   -24310511.09949 -18916740.69948  20941346.677    20941353.930
  21228571.098   -20646821.06349 -16066449.27247  21228570.357    21228578.529
 03  4 10 19 22 30.0000000  0  6G24G30G17G 5G 6G10
  24415993.119    19415045.38749  15129896.26645  24415993.039    24416004.303
  20639426.318   -16212319.79849 -12375073.43848  20639426.682    20639433.551
  22425709.603   -17054366.69149 -13275794.63447  22425709.175    22425718.106
  22450473.089     5445931.88549   4256949.52546  22450472.701    22450481.679
  20933056.093   -24354078.63549 -18950689.41548  20933056.027    20933063.263
  21236076.092   -20607382.11449 -16035717.63347  21236075.381    21236083.543
 03  4 10 19 23  0.0000000  0  7G24G30G17G29G 5G 6G10
  24432028.260    19499309.96649  15195556.83545  24432028.188    24432039.482
  20648882.416   -16162627.80549 -12336352.43548  20648882.786    20648889.699
  22414256.646   -17114552.25149 -13322692.44247  22414256.213    22414265.111
  24645288.673    -4745058.08549  -3686842.81045  24645288.602    24645303.079
  22468883.914     5542680.54649   4332337.99046  22468883.456    22468892.449
  20924806.248   -24397432.04549 -18984471.28648  20924806.168    20924813.374
  21243691.685   -20567362.19049 -16004533.29547  21243690.959    21243699.105
 03  4 10 19 23 30.0000000  0  7G24G30G17G29G 5G 6G10
  24448055.632    19583533.96449  15261185.79145  24448055.573    24448066.911
  20658438.584   -16112409.90349 -12297221.63148  20658438.970    20658445.884
  22402847.565   -17174507.13949 -13369410.49947  22402847.132    22402856.052
  24631973.275    -4815030.64149  -3741366.72445  24631973.211    24631987.599
  22487340.469     5639670.46049   4407914.45046  22487340.059    22487349.097
  20916597.489   -24440569.42549 -19018084.81448  20916597.411    20916604.592
  21251417.509   -20526762.84649 -15972897.45247  21251416.770    21251424.935
 03  4 10 19 24  0.0000000  0  7G24G30G17G29G 5G 6G10
  24464075.519    19667718.49949  15326784.01045  24464075.433    24464086.786
  20668094.929   -16061665.77449 -12257680.78648  20668095.305    20668102.176
  22391482.726   -17234229.63749 -13415947.47247  22391482.309    22391491.203
  24618674.774    -4884914.50749  -3795821.49045  24618674.547    24618688.796
  22505842.894     5736901.01049   4483678.41546  22505842.489    22505851.572
  20908430.482   -24483487.34749 -19051527.34148  20908430.395    20908437.588
  21259253.662   -20485583.44449 -15940809.62047  21259252.926    21259261.113
 03  4 10 19 24 30.0000000  0  7G24G30G17G29G 5G 6G10
  24480087.730    19751862.77249  15392350.82845  24480087.578    24480099.078
  20677850.983   -16010397.46749 -12217731.48648  20677851.341    20677858.231
  22380162.032   -17293719.98349 -13462303.54547  22380161.617    22380170.504
  24605393.444    -4954707.07749  -3850205.13845  24605393.301    24605407.575
  22524390.577     5834369.17949   4559627.52946  22524390.179    22524399.270
  20900305.464   -24526184.62749 -19084797.94248  20900305.370    20900312.566
  21267199.851   -20443826.11749 -15908271.45747  21267199.114    21267207.282
 03  4 10 19 25  0.0000000  0  7G24G30G17G29G 5G 6G10
  24496092.009    19835965.25649  15457885.10045  24496091.908    24496103.389
  20687706.279   -15958607.57149 -12177375.75748  20687706.659    20687713.570
  22368885.416   -17352978.92349 -13508479.30747  22368884.983    22368893.851
  24592130.030    -5024406.10649  -3904515.91645  24592129.864    24592143.987
  22542982.803     5932071.59249   4635759.16746  22542982.398    22542991.488
  20892222.502   -24568660.56849 -19117896.06848  20892222.435    20892229.640
  21275255.504   -20401493.30849 -15875284.86747  21275254.758    21275262.933
 03  4 10 19 25 30.0000000  0  7G24G30G17G29G 5G 6G10
  24512088.125    19920024.77949  15523385.89045  24512088.025    24512099.552
  20697660.532   -15906297.77949 -12136614.91248  20697660.907    20697667.790
  22357652.842   -17412006.48549 -13554474.77147  22357652.399    22357661.221
  24578884.851    -5094008.80449  -3958751.58845  24578884.662    24578898.884
  22561619.099     6030005.75649   4712071.39946  22561618.706    22561627.881
  20884181.986   -24610913.66849 -19150820.55448  20884181.932    20884189.120
  21283420.275   -20358587.08549 -15841851.45747  21283419.545    21283427.729
 03  4 10 19 26  0.0000000  0  7G24G30G17G29G 5G 6G10
  24528075.941    20004041.10049  15588853.01745  24528075.986    24528087.400
  20707713.452   -15853469.57149 -12095450.11048  20707713.808    20707720.714
  22346464.321   -17470802.43349 -13600289.75947  22346463.875    22346472.660
  24565658.884    -5163511.66149  -4012909.47845  24565658.679    24565672.869
  22580299.117     6128169.36349   4788562.41946  22580298.714    22580307.883
  20876184.193   -24652942.25949 -19183570.09748  20876184.138    20876191.308
  21291693.874   -20315108.94549 -15807972.40347  21291693.158    21291701.345
 03  4 10 19 26 30.0000000  0  7G24G30G17G29G 5G 6G10
  24544055.407    20088012.77749  15654285.38745  24544055.384    24544066.826
  20717864.538   -15800125.37549 -12053883.23348  20717864.910    20717871.796
  22335319.779   -17529367.26049 -13645924.64847  22335319.340    22335328.106
  24552452.307    -5232912.30549  -4066987.71045  24552452.181    24552466.079
  22599022.156     6226559.06349   4865229.61546  22599021.743    22599030.966
  20868229.352   -24694745.50949 -19216144.04848  20868229.276    20868236.421
  21300075.843   -20271061.31849 -15773649.58947  21300075.155    21300083.351
 03  4 10 19 27  0.0000000  0  7G24G30G17G29G 5G 6G10
  24560026.202    20171939.36549  15719682.58745  24560026.157    24560037.691
  20728113.491   -15746266.84249 -12011915.57648  20728113.845    20728120.759
  22324219.199   -17587700.79949 -13691379.32147  22324218.785    22324227.571
  24539265.538    -5302207.97649  -4120984.11345  24539265.311    24539279.379
  22617787.668     6325172.28049   4942070.97446  22617787.282    22617796.492
  20860317.584   -24736321.80149 -19248541.14948  20860317.543    20860324.692
  21308565.863   -20226446.08049 -15738884.48147  21308565.147    21308573.366
 03  4 10 19 27 30.0000000  0  7G24G30G17G29G 5G 6G10
  24575988.353    20255820.61549  15785044.48345  24575988.417    24575999.816
  20738460.050   -15691895.37649 -11969548.23748  20738460.433    20738467.364
  22313162.701   -17645802.97249 -13736653.70347  22313162.259    22313171.063
  24526099.507    -5371395.08549  -4174895.94945  24526099.365    24526113.250
  22636595.400     6424007.03749   5019084.95646  22636594.982    22636604.224
  20852449.455   -24777669.04649 -19280759.77448  20852449.420    20852456.583
  21317163.674   -20181264.31949 -15703677.92847  21317162.975    21317171.236
 03  4 10 19 28  0.0000000  0  7G24G30G17G29G 5G 6G10
  24591941.607    20339654.89149  15850369.77345  24591941.503    24591952.993
  20748903.752   -15637013.35749 -11926783.05748  20748904.143    20748911.097
  22302150.155   -17703674.10149 -13781748.04847  22302149.693    22302158.497
  24512954.582    -5440471.11749  -4228721.18545  24512954.425    24512968.398
  22655444.757     6523060.12549   5096269.07446  22655444.322    22655453.497
  20844625.034   -24818786.42249 -19312799.27648  20844624.996    20844632.202
  21325868.820   -20135518.41949 -15668031.78047  21325868.129    21325876.435
 03  4 10 19 28 30.0000000  0  7G24G30G17G29G 5G 6G10
  24607885.766    20423441.73649  15915658.07345  24607885.795    24607897.393
  20759444.330   -15581622.49749 -11883621.38348  20759444.715    20759451.645
  22291181.585   -17761313.96849 -13826662.19347  22291181.146    22291189.966
  24499831.322    -5509432.89549  -4282457.42345  24499831.201    24499845.168
  22674335.090     6622329.21849   5173621.50546  22674334.645    22674343.928
  20836844.734   -24859672.26049 -19344658.35648  20836844.693    20836851.884
  21334681.032   -20089210.19849 -15631947.46547  21334680.318    21334688.603
 03  4 10 19 29  0.0000000  0  7G24G30G17G29G 5G 6G10
  24623820.951    20507181.03349  15980909.35045  24623820.913    24623832.494
  20770081.458   -15525724.22449 -11840064.32248  20770081.841    20770088.782
  22280257.074   -17818722.45349 -13871396.04447  22280256.659    22280265.460
  24486730.335    -5578277.36149  -4336102.22745  24486730.269    24486744.346
  22693266.091     6721811.99149   5251140.43546  22693265.669    22693274.977
  20829108.847   -24900324.74549 -19376335.60848  20829108.798    20829115.976
  21343599.901   -20042341.27649 -15595426.23347  21343599.174    21343607.458
 03  4 10 19 29 30.0000000  0  7G24G30G17G29G 5G 6G10
  24639746.799    20590871.34349  16046122.43545  24639746.788    24639758.392
  20780814.675   -15469320.92849 -11796113.74648  20780815.061    20780822.026
  22269376.576   -17875899.94749 -13915949.90347  22269376.152    22269384.923
  24473652.401    -5647001.73749  -4389653.45645  24473652.344    24473666.443
  22712237.185     6821505.43949   5328823.53046  22712236.776    22712246.135
  20821417.540   -24940742.77649 -19407830.16748  20821417.473    20821424.665
  21352624.980   -19994914.02349 -15558469.94547  21352624.296    21352632.580
 03  4 10 19 30  0.0000000  0  7G24G30G17G29G 5G 6G10
  24655663.248    20674512.14449  16111296.95545  24655663.219    24655674.791
  20791643.615   -15412414.57949 -11751771.17748  20791644.014    20791650.971
  22258539.930   -17932846.57749 -13960323.86747  22258539.564    22258548.336
  24460597.784    -5715603.04249  -4443108.78345  24460597.831    24460611.787
  22731247.906     6921406.94849   5406668.74946  22731247.485    22731256.913
  20813771.045   -24980925.06749 -19439141.03648  20813770.996    20813778.229
  21361755.991   -19946930.34649 -15521080.07747  21361755.314    21361763.580
 03  4 10 19 30 30.0000000  0  7G24G30G17G29G 5G 6G10
  24671570.136    20758102.72249  16176432.33745  24671570.197    24671581.653
  20802567.897   -15355007.28749 -11707038.25948  20802568.282    20802575.228
  22247747.315   -17989562.18849 -14004517.81347  22247746.915    22247755.675
  24447567.224    -5784078.76749  -4496466.28845  24447567.282    24447580.947
  22750297.614     7021513.76449   5484673.94046  22750297.197    22750306.724
  20806169.771   -25020870.00449 -19470266.95248  20806169.729    20806176.961
  21370992.432   -19898392.63749 -15483258.49747  21370991.720    21371000.020
 03  4 10 19 31  0.0000000  0  7G24G30G17G29G 5G 6G10
  24687467.306    20841642.19049  16241527.90345  24687467.442    24687478.853
  20813587.165   -15297100.88649 -11661916.42748  20813587.553    20813594.525
  22236998.621   -18046046.98749 -14048531.91047  22236998.207    22237006.947
  24434561.176    -5852425.44849  -4549723.19345  24434561.136    24434575.035
  22769386.010     7121823.18349   5562837.01946  22769385.582    22769395.010
  20798613.952   -25060576.05849 -19501206.72848  20798613.909    20798621.130
  21380333.941   -19849302.76749 -15445006.65847  21380333.233    21380341.513
 03  4 10 19 31 30.0000000  0  7G24G30G17G29G 5G 6G10
  24703354.623    20925129.92749  16306583.14945  24703354.653    24703366.231
  20824701.047   -15238697.23749 -11616407.12448  20824701.409    20824708.398
  22226293.793   -18102301.10649 -14092366.25847  22226293.387    22226302.110
  24421580.186    -5920640.29249  -4602877.41145  24421580.082    24421593.901
  22788512.436     7222332.58249   5641155.91846  22788511.991    22788521.388
  20791103.903   -25100041.61249 -19531959.10248  20791103.838    20791111.060
  21389780.152   -19799662.48749 -15406325.93247  21389779.444    21389787.727
 03  4 10 19 32  0.0000000  0  7G24G30G17G29G 5G 6G10
  24719231.874    21008565.17949  16371597.50045  24719231.921    24719243.598
  20835909.107   -15179798.41049 -11570511.97148  20835909.470    20835916.485
  22215632.815   -18158324.82949 -14136021.07047  22215632.438    22215641.143
  24408624.695    -5988720.26049  -4655926.52445  24408624.492    24408638.361
  22807676.325     7323039.39549   5719628.63946  22807675.895    22807685.457
  20783639.908   -25139265.11149 -19562522.86248  20783639.856    20783647.096
  21399330.667   -19749474.01749 -15367218.04447  21399329.992    21399338.234
 03  4 10 19 32 30.0000000  0  7G24G30G17G29G 5G 6G10
  24735099.223    21091948.07949  16436571.06145  24735099.287    24735110.864
  20847211.144   -15120405.92649 -11524232.15248  20847211.526    20847218.572
  22205015.857   -18214117.39049 -14179495.75947  22205015.458    22205024.134
  24395695.791    -6056661.80049  -4708867.76445  24395695.671    24395709.410
  22826877.442     7423941.62649   5798253.62846  22826876.982    22826886.682
  20776222.344   -25178244.67049 -19592896.53248  20776222.281    20776229.532
  21408985.373   -19698738.50949 -15327683.88947  21408984.678    21408992.920
 03  4 10 19 33  0.0000000  0  7G24G30G17G29G 5G 6G10
  24750956.364    21175277.45149  16501502.90645  24750956.509    24750968.127
  20858606.645   -15060522.29349 -11477569.62548  20858607.017    20858614.084
  22194442.777   -18269679.07249 -14222790.54847  22194442.387    22194451.058
  24382793.593    -6124462.56649  -4761699.34345  24382793.584    24382807.003
  22846115.172     7525036.08049   5877028.41246  22846114.724    22846124.378
  20768851.415   -25216979.18549 -19623079.26848  20768851.333    20768858.618
  21418743.545   -19647458.94949 -15287725.80247  21418742.843    21418751.114
 03  4 10 19 33 30.0000000  0  7G24G30G17G29G 5G 6G10
  24766803.106    21258552.66649  16566392.53845  24766803.249    24766815.065
  20870095.225   -15000149.64849 -11430526.04248  20870095.603    20870102.644
  22183913.580   -18325010.14349 -14265905.63347  22183913.187    22183921.855
  24369918.752    -6192119.67449  -4814418.96945  24369918.746    24369932.011
  22865389.012     7626320.06049   5955950.88246  22865388.541    22865398.179
  20761527.368   -25255467.30849 -19653070.00348  20761527.304    20761534.571
  21428604.946   -19595637.31449 -15247345.31847  21428604.206    21428612.481
 03  4 10 19 34  0.0000000  0  7G24G30G17G29G 5G 6G10
  24782639.514    21341773.15849  16631239.54445  24782639.665    24782651.619
  20881676.488   -14939289.82349 -11383102.84448  20881676.866    20881683.933
  22173428.226   -18380110.70349 -14308841.10547  22173427.875    22173436.577
  24357071.834    -6259630.02249  -4867024.23245  24357071.721    24357085.053
  22884698.334     7727791.12749   6035019.11846  22884697.863    22884707.633
  20754250.556   -25293707.31449 -19682867.40548  20754250.501    20754257.741
  21438569.075   -19543275.40349 -15206543.84447  21438568.368    21438576.630
 03  4 10 19 34 30.0000000  0  7G24G30G17G29G 5G 6G10
  24798465.363    21424938.01549  16696043.19445  24798465.400    24798477.560
  20893350.004   -14877945.06049 -11335301.77847  20893350.394    20893357.490
  22162986.735   -18434981.14349 -14351597.26447  22162986.364    22162995.047
  24344253.431    -6326990.52149  -4919512.73545  24344253.244    24344266.605
  22904042.737     7829446.50249   6114230.97446  22904042.331    22904052.135
  20747021.180   -25331697.81449 -19712470.38948  20747021.116    20747028.366
  21448635.547   -19490375.80249 -15165323.39247  21448634.809    21448643.071
 03  4 10 19 35  0.0000000  0  7G24G30G17G29G 5G 6G10
  24814280.531    21508046.94349  16760803.23145  24814280.581    24814292.653
  20905115.429   -14816117.40549 -11287124.42347  20905115.819    20905122.951
  22152588.952   -18489621.76749 -14394174.34847  22152588.552    22152597.230
  24331464.025    -6394198.37549  -4971882.27145  24331463.838    24331477.159
  22923421.850     7931283.63649   6193584.45646  22923421.435    22923431.163
  20739839.611   -25369437.24149 -19741877.73048  20739839.548    20739846.771
  21458803.912   -19436940.60649 -15123685.59347  21458803.190    21458811.480
 03  4 10 19 35 30.0000000  0  7G24G30G17G29G 5G 6G10
  24830084.967    21591099.10549  16825519.08745  24830084.929    24830097.044
  20916972.393   -14753808.74749 -11238572.25947  20916972.791    20916979.920
  22142235.054   -18544031.83849 -14436571.78247  22142234.650    22142243.297
  24318704.181    -6461250.40649  -5024130.41845  24318704.181    24318717.452
  22942835.047     8033299.96949   6273077.59546  22942834.606    22942844.326
  20732706.113   -25406923.97649 -19771088.16748  20732706.056    20732713.263
  21469073.867   -19382971.62549 -15081631.85147  21469073.140    21469081.471
 03  4 10 19 36  0.0000000  0  7G24G30G17G29G 5G 6G10
  24845878.457    21674093.62649  16890190.01945  24845878.346    24845890.208
  20928920.400   -14691021.85549 -11189647.45147  20928920.789    20928927.920
  22131924.846   -18598212.34949 -14478790.33547  22131924.447    22131933.062
  24305974.645    -6528144.10549  -5076255.20945  24305974.655    24305987.623
  22962281.608     8135492.27049   6352707.81946  22962281.203    22962291.022
  20725620.922   -25444156.87049 -19800100.80748  20725620.861    20725628.067
  21479444.899   -19328471.59849 -15039164.31547  21479444.160    21479452.513
 03  4 10 19 36 30.0000000  0  7G24G30G17G29G 5G 6G10
  24861660.933    21757030.79949  16954816.24245  24861660.870    24861672.698
  20940959.176   -14627757.93449 -11140350.92847  20940959.565    20940966.709
  22121658.372   -18652162.66549 -14520829.51947  22121657.975    22121666.608
  24293275.894    -6594875.64149  -5128253.59045  24293275.896    24293288.840
  22981761.427     8237858.87249   6432473.88146  22981761.008    22981770.841
  20718584.478   -25481133.62749 -19828913.86248  20718584.422    20718591.628
  21489916.778   -19273441.67949 -14996283.87847  21489916.041    21489924.366
 03  4 10 19 37  0.0000000  0  7G24G30G17G29G 5G 6G10
  24877433.001    21839912.98149  17019399.64245  24877432.931    24877444.734
  20953088.790   -14564016.32349 -11090682.18147  20953089.188    20953096.348
  22111436.327   -18705879.57249 -14562686.81647  22111435.951    22111444.595
  24280609.110    -6661439.38449  -5180121.24645  24280609.104    24280622.091
  23001274.465     8340400.08049   6512375.99246  23001274.069    23001283.931
  20711597.613   -25517849.81649 -19857523.87648  20711597.559    20711604.755
  21500489.548   -19217881.51249 -14952990.25747  21500488.821    21500497.108
 03  4 10 19 37 30.0000000  0  7G24G30G17G29G 5G 6G10
  24893193.495    21922734.16249  17083935.50745  24893193.360    24893205.299
  20965307.988   -14499804.41649 -11040646.96947  20965308.369    20965315.504
  22101257.671   -18759368.79949 -14604366.71047  22101257.278    22101265.919
  24267973.925    -6727837.37749  -5231859.72645  24267973.972    24267986.900
  23020819.205     8443107.88049   6592407.90346  23020818.779    23020828.669
  20704659.626   -25554309.05049 -19885933.66548  20704659.572    20704666.783
  21511161.811   -19161798.40749 -14909289.15847  21511161.083    21511169.369
 03  4 10 19 38  0.0000000  0  6G30G17G29G 5G 6G10
  20977616.375   -14435123.63849 -10990246.40447  20977616.738    20977623.912
  22091122.476   -18812629.46549 -14645868.49747  22091122.064    22091130.692
  24255370.889    -6794065.89749  -5283466.15245  24255370.946    24255384.006
  23040395.234     8545980.21549   6672568.03646  23040394.787    23040404.777
  20697770.987   -25590509.17249 -19914141.54948  20697770.951    20697778.136
  21521933.375   -19105193.73549 -14865181.64247  21521932.636    21521940.911
 03  4 10 19 38 30.0000000  0  6G30G17G29G 5G 6G10
  20990013.670   -14369975.49649 -10939481.66047  20990014.046    20990021.208
  22081030.862   -18865661.11349 -14687191.83247  22081030.441    22081039.074
  24242800.955    -6860121.16149  -5334937.54945  24242800.989    24242813.904
  23060002.230     8649015.41649   6752855.07646  23060001.852    23060011.815
  20690932.072   -25626447.87249 -19942145.72648  20690932.046    20690939.236
  21532803.875   -19048069.03349 -14820668.91447  21532803.121    21532811.429
 03  4 10 19 39  0.0000000  0  6G30G17G29G 5G 6G10
  21002499.552   -14304361.95849 -10888354.26647  21002499.912    21002507.076
  22070982.894   -18918463.61149 -14728336.60947  22070982.467    22070991.070
  24230264.349    -6926000.28349  -5386271.70745  24230264.337    24230277.263
  23079639.889     8752211.01649   6833267.10646  23079639.468    23079649.374
  20684143.248   -25662123.35149 -19969944.79648  20684143.216    20684150.420
  21543772.861   -18990426.60149 -14775752.75947  21543772.127    21543780.445
 03  4 10 19 39 30.0000000  0  6G30G17G29G 5G 6G10
  21015073.627   -14238284.85949 -10836865.66847  21015074.007    21015081.169
  22060978.515   -18971037.07649 -14769302.93047  22060978.073    22060986.641
  24217762.066    -6991699.46349  -5437465.63445  24217761.993    24217774.861
  23099307.621     8855564.99449   6913802.54046  23099307.212    23099317.171
  20677404.923   -25697533.54849 -19997537.15348  20677404.861    20677412.085
  21554840.114   -18932268.05549 -14730434.43647  21554839.375    21554847.689
 03  4 10 19 40  0.0000000  0  6G30G17G29G 5G 6G10
  21027735.380   -14171747.11949 -10785018.12147  21027735.761    21027742.932
  22051017.710   -19023381.63449 -14810090.86547  22051017.239    22051025.813
  24205294.363    -7057216.87049  -5488517.92245  24205294.194    24205307.215
  23119004.710     8959073.64749   6994458.50146  23119004.326    23119014.332
  20670717.185   -25732677.79849 -20024922.27548  20670717.130    20670724.358
  21566004.912   -18873596.70449 -14684716.52547  21566004.176    21566012.472
 03  4 10 19 40 30.0000000  0  6G30G17G29G 5G 6G10
  21040484.399   -14104750.81849 -10732813.25447  21040484.765    21040491.957
  22041100.347   -19075497.51149 -14850700.61147  22041099.914    22041108.468
  24192861.969    -7122548.87349  -5539425.72045  24192861.781    24192874.737
  23138730.931     9062734.80049   7075233.28746  23138730.530    23138740.515
  20664080.499   -25767554.07949 -20052098.59248  20664080.415    20664087.627
  21577267.001   -18814414.18449 -14638600.30447  21577266.249    21577274.577
 03  4 10 19 41  0.0000000  0  6G30G17G29G 5G 6G10
  21053320.218   -14037297.98149 -10680252.65247  21053320.619    21053327.810
  22031226.507   -19127384.71049 -14891132.16647  22031226.080    22031234.615
  24180465.358    -7187692.67249  -5590186.87845  24180465.173    24180478.068
  23158485.612     9166545.79249   7156124.82746  23158485.214    23158495.201
  20657495.024   -25802160.80949 -20079064.86748  20657494.954    20657502.154
  21588625.824   -18754722.99849 -14592087.71847  21588625.106    21588633.423
 03  4 10 19 41 30.0000000  0  6G30G17G29G 5G 6G10
  21066242.558   -13969390.96249 -10627338.14047  21066242.943    21066250.154
  22021396.137   -19179043.58249 -14931385.80447  22021395.715    22021404.225
  24168105.059    -7252645.11649  -5640798.92345  24168104.940    24168117.681
  23178268.390     9270504.09149   7237131.16246  23178267.959    23178277.949
  20650961.197   -25836496.38849 -20105819.85748  20650961.127    20650968.321
  21600081.055   -18694525.50249 -14545180.60947  21600080.326    21600088.629
 03  4 10 19 42  0.0000000  0  7G30G17G29G 5G 6G10G23
  21079249.601   -13901038.69249 -10574076.67947  21079249.979    21079257.188
  22011607.943   -19230480.82949 -14971466.75047  22011607.521    22011616.033
  24155780.385    -7317410.09149  -5691264.86945  24155780.262    24155793.081
  23198077.360     9374600.62149   7318245.19346  23198076.945    23198087.032
  20644477.979   -25870565.85249 -20132367.48448  20644477.905    20644485.113
  21611630.925   -18633830.57749 -14497885.89347  21611630.200    21611638.535
  24487739.432    -4209289.95949  -2959323.74745  24487739.031    24487752.577
 03  4 10 19 42 30.0000000  0  8G30G17G29G 5G 6G15G10G23
  21092340.678   -13832245.03649 -10520471.27847  21092341.056    21092348.230
  22001861.623   -19281697.91649 -15011376.14647  22001861.189    22001869.710
  24143491.712    -7381986.03649  -5741583.53345  24143491.698    24143504.442
  23217911.924     9478831.15249   7399463.64546  23217911.464    23217921.602
  20638045.407   -25904369.10549 -20158707.67648  20638045.339    20638052.549
  24766690.584    -4147273.48249  -3217250.08745  24766690.038    24766701.352
  21623274.728   -18572642.06449 -14450206.56447  21623273.999    21623282.334
  24467079.080    -4317860.78449  -3043924.17545  24467078.654    24467092.347
 03  4 10 19 43  0.0000000  0  8G30G17G29G 5G 6G15G10G23
  21105518.044   -13762997.81449 -10466512.45247  21105518.413    21105525.583
  21992159.889   -19332680.85949 -15051103.09447  21992159.455    21992167.954
  24131242.379    -7446355.59149  -5791741.36945  24131242.319    24131255.067
  23237774.142     9583207.52449   7480795.72846  23237773.713    23237783.855
  20631666.547   -25937890.15449 -20184827.96848  20631666.504    20631673.723
  24750344.827    -4233170.37849  -3284182.62645  24750344.323    24750356.025
  21635014.719   -18510948.02449 -14402133.31547  21635014.011    21635022.366
  24446435.195    -4426344.85949  -3128456.99345  24446434.765    24446448.479
 03  4 10 19 43 30.0000000  0  8G30G17G29G 5G 6G15G10G23
  21118780.809   -13693301.71549 -10412203.85147  21118781.162    21118788.363
  21982502.277   -19383431.97349 -15090649.40247  21982501.841    21982510.323
  24119032.493    -7510517.88149  -5841737.68845  24119032.481    24119045.107
  23257663.179     9687724.62249   7562237.47446  23257662.765    23257672.917
  20625341.221   -25971129.79449 -20210728.98148  20625341.183    20625348.409
  24734022.653    -4318944.44049  -3351019.51045  24734022.233    24734033.747
  21646850.059   -18448753.17749 -14353669.82747  21646849.348    21646857.690
  24425807.801    -4534741.98249  -3212922.23645  24425807.346    24425820.772
 03  4 10 19 44  0.0000000  0  9G30G17G29G 5G 6G26G15G10G23
  21132128.190   -13623160.87749 -10357548.69947  21132128.552    21132135.768
  21972888.321   -19433953.40049 -15130016.73047  21972887.906    21972896.426
  24106862.273    -7574472.08749  -5891571.89145  24106862.207    24106874.777
  23277578.165     9792378.01549   7643785.40646  23277577.768    23277587.936
  20619069.469   -26004088.26349 -20236410.89948  20619069.425    20619076.641
  24267561.330    -5951029.43849  -4606641.19945  24267561.527    24267576.560
  24717723.544    -4404597.22649  -3417761.93045  24717723.007    24717734.361
  21658779.891   -18386061.58549 -14304819.27147  21658779.169    21658787.514
  24405197.013    -4643051.62449  -3297319.12945  24405196.674    24405210.096
 03  4 10 19 44 30.0000000  0  9G30G17G29G 5G 6G26G15G10G23
  21145559.558   -13552578.62049 -10302549.58547  21145559.933    21145567.155
  21963317.886   -19484246.30549 -15169205.98447  21963317.452    21963325.970
  24094732.009    -7638216.09549  -5941242.31145  24094732.004    24094744.389
  23297518.516     9897164.26549   7725436.88946  23297518.103    23297528.219
  20612851.363   -26036764.85549 -20261873.17548  20612851.300    20612858.494
  24250638.321    -6039959.74149  -4675937.32945  24250638.482    24250653.466
  24701447.355    -4490128.97749  -3484409.95045  24701446.734    24701458.233
  21670803.692   -18322876.52149 -14255584.19247  21670802.925    21670811.264
  24384603.391    -4751272.09649  -3381646.65245  24384603.101    24384616.032
 03  4 10 19 45  0.0000000  0  9G30G17G29G 5G 6G26G15G10G23
  21159074.329   -13481558.44549 -10247209.24647  21159074.697    21159081.924
  21953790.729   -19534311.67649 -15208217.94847  21953790.307    21953798.843
  24082642.188    -7701747.91649  -5990747.37745  24082642.194    24082654.603
  23317483.359    10002079.59649   7807188.93346  23317482.902    23317493.077
  20606686.913   -26069159.26449 -20287115.57048  20606686.828    20606694.026
  24233722.347    -6128853.14049  -4745204.65245  24233722.524    24233737.486
  24685194.011    -4575540.46949  -3550964.28745  24685193.486    24685204.924
  21682920.613   -18259201.63449 -14205967.43147  21682919.867    21682928.238
  24364026.819    -4859402.14249  -3465903.67645  24364026.426    24364039.330
 03  4 10 19 45 30.0000000  0  9G30G17G29G 5G 6G26G15G10G23
  21172672.055   -13410102.27149 -10191529.15847  21172672.424    21172679.645
  21944306.966   -19584149.18649 -15247052.35347  21944306.533    21944315.101
  24070593.368    -7765064.26649  -6040084.57845  24070593.355    24070605.724
  23337472.378    10107121.98849   7889039.96946  23337471.944    23337482.165
  20600576.555   -26101269.35249 -20312136.41448  20600576.488    20600583.661
  24216814.051    -6217705.66649  -4814440.21745  24216814.269    24216828.969
  24668963.715    -4660831.00649  -3617424.38045  24668963.212    24668974.624
  21695130.392   -18195038.86349 -14155970.49747  21695129.664    21695138.047
  24343467.967    -4967438.80749  -3550087.89545  24343467.588    24343480.894
 03  4 10 19 46  0.0000000  0  9G30G17G29G 5G 6G26G15G10G23
  21186352.091   -13338213.31849 -10135511.84247  21186352.453    21186359.693
  21934866.346   -19633759.83749 -15285709.98347  21934865.918    21934874.508
  24058585.938    -7828162.87249  -6089252.09145  24058585.978    24058597.960
  23357484.877    10212287.61149   7970987.05646  23357484.440    23357494.591
  20594520.497   -26133094.30149 -20336935.07248  20594520.420    20594527.549
  24199914.020    -6306514.83549  -4883641.95345  24199914.228    24199928.963
  24652756.302    -4746001.00949  -3683790.56245  24652755.803    24652767.126
  21707432.373   -18130391.39349 -14105595.87847  21707431.658    21707440.090
  24322927.242    -5075380.44949  -3634198.10745  24322926.859    24322940.055
 03  4 10 19 46 30.0000000  0  9G30G17G29G 5G 6G26G15G10G23
  21200114.022   -13265893.97149 -10079159.15447  21200114.386    21200121.631
  21925468.870   -19683143.88349 -15324191.03747  21925468.414    21925476.992
  24046620.507    -7891040.80649  -6138247.66145  24046620.591    24046632.396
  23377520.330    10317574.14949   8053028.35246  23377519.900    23377530.153
  20588519.002   -26164632.51549 -20361510.30148  20588518.905    20588526.042
  24183023.033    -6395277.12649  -4952807.18345  24183023.152    24183037.621
  24636571.841    -4831049.94749  -3750062.42445  24636571.416    24636582.426
  21719826.199   -18065261.64449 -14054845.45747  21719825.478    21719833.896
  24302405.049    -5183224.46349  -3718232.26245  24302404.595    24302417.696
 03  4 10 19 47  0.0000000  0  9G30G17G29G 5G 6G26G15G10G23
  21213957.388   -13193146.94649 -10022473.20747  21213957.763    21213965.006
  21916114.443   -19732301.78449 -15362495.88347  21916113.980    21916122.549
  24034697.602    -7953695.48349  -6187069.27545  24034697.646    24034709.333
  23397578.291    10422978.71049   8135161.59746  23397577.853    23397588.217
  20582572.310   -26195882.74649 -20385861.12748  20582572.192    20582579.328
  24166141.425    -6483989.75549  -5021933.71245  24166141.579    24166155.907
  24620410.683    -4915977.68549  -3816239.81045  24620410.244    24620421.259
  21732311.185   -17999652.74549 -14003721.67347  21732310.465    21732318.910
  24281901.878    -5290968.89749  -3802188.79945  24281901.470    24281914.421
 03  4 10 19 47 30.0000000  0 10G30G17G29G 5G 6G26G15G10G23G18
  21227881.583   -13119975.07449  -9965456.21147  21227881.953    21227889.207
  21906802.875   -19781234.26249 -15400625.06947  21906802.396    21906810.965
  24022817.541    -8016124.48749  -6235715.05545  24022817.640    24022829.202
  23417658.092    10528498.31349   8217384.50146  23417657.663    23417668.011
  20576680.603   -26226843.68249 -20409986.52648  20576680.500    20576687.641
  24149269.982    -6572649.58049  -5091019.06045  24149270.148    24149284.496
  24604272.499    -5000784.17149  -3882322.70245  24604272.078    24604283.230
  21744886.896   -17933567.25349 -13952226.51647  21744886.139    21744894.576
  24261418.053    -5398611.67749  -3886066.06045  24261417.669    24261430.819
  24774581.493    -4608522.05349  -3283380.79545  24774581.204    24774592.655
 03  4 10 19 48  0.0000000  0 10G30G17G29G 5G 6G26G15G10G23G18
  21241885.893   -13046382.07649  -9908111.06747  21241886.248    21241893.511
  21897533.892   -19829942.88849 -15438579.82347  21897533.443    21897542.023
  24010980.795    -8078326.23649  -6284183.76145  24010980.805    24010992.391
  23437759.180    10634129.09749   8299694.03446  23437758.747    23437769.028
  20570843.986   -26257515.18249 -20433886.39248  20570843.891    20570851.026
  24132408.760    -6661254.44449  -5160061.64145  24132409.181    24132423.196
  24588157.063    -5085470.50749  -3948311.99545  24588156.504    24588167.762
  21757552.559   -17867008.88949 -13900362.88547  21757551.810    21757560.240
  24240953.982    -5506151.44049  -3969863.16145  24240953.538    24240966.340
  24753361.387    -4720034.02849  -3370273.08445  24753361.205    24753372.591
 03  4 10 19 48 30.0000000  0 10G30G17G29G 5G 6G26G15G10G23G18
  21255970.364   -12972367.70449  -9850437.58247  21255970.748    21255978.052
  21888308.055   -19878424.97949 -15476358.05847  21888307.580    21888316.177
  23999188.405    -8140294.65949  -6332470.65045  23999188.358    23999199.884
  23457881.361    10739871.05149   8382090.20646  23457880.897    23457891.195
  20565063.292   -26287892.94049 -20457557.36748  20565063.203    20565070.325
  24115559.297    -6749798.23749  -5229056.57845  24115559.597    24115573.956
  24572065.321    -5170033.27749  -4014205.02245  24572064.803    24572075.881
  21770308.206   -17799977.60949 -13848130.74047  21770307.460    21770315.901
  24220510.151    -5613583.20849  -4053576.03245  24220509.610    24220522.483
  24732148.818    -4831505.75649  -3457133.91045  24732148.580    24732160.483
 03  4 10 19 49  0.0000000  0 10G30G17G29G 5G 6G26G15G10G23G18
  21270134.559   -12897934.74449  -9792437.92347  21270134.922    21270142.227
  21879125.241   -19926680.86149 -15513960.02247  21879124.787    21879133.356
  23987440.966    -8202027.35149  -6380573.87645  23987440.931    23987452.428
  23478024.058    10845721.28249   8464570.72646  23478023.592    23478034.052
  20559338.742   -26317975.71549 -20480998.48748  20559338.646    20559345.771
  24098721.929    -6838277.94949  -5298001.54345  24098722.272    24098736.675
  24555997.171    -5254472.43949  -4080001.71145  24555996.777    24556007.650
  21783153.413   -17732476.02449 -13795532.12947  21783152.637    21783161.065
  24200087.411    -5720904.70749  -4137202.95845  24200086.919    24200099.848
  24710944.264    -4942935.17749  -3543961.93245  24710944.041    24710955.877
 03  4 10 19 49 30.0000000  0 10G30G17G29G 5G 6G26G15G10G23G18
  21284377.835   -12823086.06749  -9734114.33547  21284378.171    21284385.496
  21869985.302   -19974711.39849 -15551386.40047  21869984.845    21869993.418
  23975738.829    -8263521.67049  -6428491.36245  23975738.772    23975750.221
  23498186.793    10951676.87949   8547133.33546  23498186.314    23498196.925
  20553670.543   -26347762.34649 -20504208.84848  20553670.440    20553677.568
  24081897.482    -6926690.63749  -5366894.34345  24081897.779    24081912.086
  24539952.216    -5338788.37349  -4145702.35145  24539951.755    24539962.819
  21796087.498   -17664507.08449 -13742569.35247  21796086.733    21796095.164
  24179686.012    -5828114.06549  -4220742.56245  24179685.602    24179698.205
  24689748.103    -5054320.50049  -3630755.48845  24689747.803    24689759.903
 03  4 10 19 50  0.0000000  0 10G30G17G29G 5G 6G26G15G10G23G18
  21298700.283   -12747821.31849  -9675466.53247  21298700.626    21298707.951
  21860888.788   -20022513.98149 -15588635.14047  21860888.342    21860896.863
  23964083.179    -8324772.00649  -6476218.72145  23964083.020    23964094.587
  23518369.735    11057738.11749   8629778.28746  23518369.272    23518379.835
  20548059.570   -26377248.21649 -20527184.84648  20548059.474    20548066.585
  24065086.859    -7015029.89649  -5435729.86345  24065087.197    24065101.414
  24523931.365    -5422977.50149  -4211304.20045  24523931.056    24523942.217
  21809110.519   -17596070.72449 -13689242.34347  21809109.748    21809118.188
  24159306.920    -5935205.73249  -4304190.41345  24159306.540    24159319.228
  24668561.690    -5165656.55549  -3717510.67045  24668561.260    24668573.135
 03  4 10 19 50 30.0000000  0 10G30G17G29G 5G 6G26G15G10G23G18
  21313100.512   -12672147.53649  -9616500.00647  21313100.867    21313108.231
  21851834.831   -20070093.02149 -15625709.69547  21851834.360    21851842.847
  23952473.662    -8385779.94449  -6523757.23845  23952473.538    23952484.887
  23538571.397    11163897.74649   8712499.90046  23538570.936    23538581.505
  20542505.296   -26406436.24049 -20549928.75848  20542505.170    20542512.274
  24048290.060    -7103296.69049  -5504508.91645  24048290.326    24048304.509
  24507934.083    -5507044.28149  -4276810.72345  24507933.610    24507944.638
  21822221.160   -17527173.82249 -13635556.47847  21822220.391    21822228.858
  24138949.963    -6042181.82249  -4387548.23945  24138949.504    24138962.201
  24647383.886    -5276945.67949  -3804229.35545  24647383.572    24647395.193
 03  4 10 19 51  0.0000000  0 10G30G17G29G 5G 6G26G15G10G23G18
  21327578.282   -12596066.70749  -9557216.29747  21327578.625    21327585.994
  21842823.419   -20117448.12949 -15662609.75847  21842822.978    21842831.432
  23940910.829    -8446542.13949  -6571104.25045  23940910.792    23940922.219
  23558791.422    11270153.76149   8795296.62246  23558790.918    23558801.565
  20537008.027   -26435324.44749 -20572439.04548  20537007.905    20537015.005
  24031507.663    -7191487.45049  -5573228.71645  24031507.904    24031522.115
  24491960.195    -5590987.83349  -4342221.24045  24491959.669    24491970.489
  21835419.062   -17457818.50149 -13581513.40047  21835418.314    21835426.765
  24118615.430    -6149039.45049  -4470813.72045  24118615.011    24118627.660
  24626215.568    -5388184.95349  -3890909.11645  24626215.276    24626226.804
 03  4 10 19 51 30.0000000  0 10G30G17G29G 5G 6G26G15G10G23G18
  21342132.982   -12519581.27149  -9497617.30847  21342133.338    21342140.694
  21833854.491   -20164580.16149 -15699335.98647  21833854.037    21833862.489
  23929395.535    -8507055.29249  -6618257.24345  23929395.504    23929406.758
  23579029.217    11376503.68149   8878166.48345  23579028.738    23579039.452
  20531568.183   -26463910.98449 -20594714.26748  20531568.071    20531575.166
  24014740.573    -7279598.31549  -5641886.24245  24014740.872    24014754.866
  24476009.824    -5674807.36849  -4407535.08445  24476009.291    24476020.190
  21848703.761   -17388007.14649 -13527114.97247  21848703.008    21848711.459
  24098304.062    -6255775.93849  -4553984.82845  24098303.483    24098316.277
  24605057.389    -5499371.90049  -3977548.09145  24605057.084    24605068.532
 03  4 10 19 52  0.0000000  0 10G30G17G29G 5G 6G26G15G10G23G18
  21356764.333   -12442693.42349  -9437704.75447  21356764.689    21356772.053
  21824928.148   -20211488.38649 -15735887.82047  21824927.687    21824936.100
  23917928.129    -8567316.31849  -6665213.76645  23917928.063    23917939.334
  23599284.406    11482945.23049   8961107.77545  23599283.995    23599294.767
  20526186.098   -26492194.00849 -20616752.98248  20526185.987    20526193.085
  23997989.369    -7367625.53749  -5710478.59945  23997989.658    23998003.646
  24460083.111    -5758502.32649  -4472751.83945  24460082.577    24460093.632
  21862074.808   -17317742.05849 -13472362.97847  21862074.031    21862082.485
  24078016.317    -6362388.41149  -4637059.26545  24078015.776    24078028.457
  24583909.493    -5610503.64449  -4064144.07145  24583909.164    24583920.604
 03  4 10 19 52 30.0000000  0 10G30G17G29G 5G 6G26G15G10G23G18
  21371471.629   -12365406.09749  -9377480.92347  21371471.978    21371479.375
  21816044.247   -20258173.64649 -15772265.92247  21816043.787    21816052.192
  23906509.097    -8627322.71849  -6711971.90145  23906509.069    23906520.232
  23619556.589    11589475.38449   9044118.08545  23619556.151    23619567.055
  20520861.983   -26520172.25549 -20638554.21548  20520861.893    20520868.989
  23981254.552    -7455566.28349  -5779003.52145  23981254.784    23981269.000
  24444180.192    -5842072.76749  -4537871.60445  24444179.657    24444190.625
  21875531.618   -17247026.15949 -13417259.71347  21875530.815    21875539.291
  24057752.564    -6468874.77149  -4720035.51045  24057752.095    24057764.450
  24562772.559    -5721578.22549  -4150695.50945  24562772.197    24562783.593
 03  4 10 19 53  0.0000000  0 10G30G17G29G 5G 6G26G15G10G23G18
  21386254.576   -12287721.24449  -9316947.32947  21386254.924    21386262.376
  21807202.772   -20304635.67749 -15808470.07547  21807202.328    21807210.712
  23895139.281    -8687071.09349  -6758528.95445  23895139.200    23895150.404
  23639845.239    11696092.23549   9127195.94945  23639844.776    23639855.693
  20515596.303   -26547843.62549 -20660116.31848  20515596.208    20515603.303
  23964537.025    -7543416.35349  -5847457.78945  23964537.297    23964551.411
  24428300.954    -5925517.71049  -4602893.57545  24428300.520    24428311.357
  21889073.779   -17175861.41149 -13361806.68847  21889073.030    21889081.533
  24037513.256    -6575232.16749  -4802911.19245  24037512.797    24037525.285
  24541647.036    -5832593.05949  -4237200.37445  24541646.692    24541658.047
 03  4 10 19 53 30.0000000  0 10G30G17G29G 5G 6G26G15G10G23G18
  21401112.708   -12209641.60049  -9256106.10347  21401113.058    21401120.500
  21798403.798   -20350874.43249 -15844500.23847  21798403.379    21798411.777
  23883819.112    -8746558.60749  -6804882.76545  23883819.017    23883830.057
  23660149.938    11802793.02349   9210339.23045  23660149.429    23660160.357
  20510389.282   -26575206.80649 -20681438.27248  20510389.173    20510396.267
  23947837.444    -7631172.53449  -5915838.93145  23947837.597    23947851.617
  24412445.820    -6008836.98949  -4667817.61745  24412445.366    24412456.144
  21902700.842   -17104250.77149 -13306006.20547  21902700.086    21902708.627
  24017298.862    -6681458.42849  -4885684.71145  24017298.401    24017310.929
  24520533.347    -5943546.01249  -4323657.03345  24520532.959    24520544.265
 03  4 10 19 54  0.0000000  0 10G30G17G29G 5G 6G26G15G10G23G18
  21416045.494   -12131169.62449  -9194959.16847  21416045.820    21416053.253
  21789647.262   -20396890.33149 -15880356.75347  21789646.801    21789655.198
  23872549.133    -8805782.18349  -6851030.89945  23872549.068    23872560.137
  23680470.069    11909575.32249   9293546.02645  23680469.551    23680480.457
  20505241.274   -26602259.74149 -20702518.48248  20505241.177    20505248.262
  23931156.406    -7718830.91949  -5984143.79245  23931156.536    23931170.556
  24396614.621    -6092030.16649  -4732643.39345  24396614.145    24396624.960
  21916412.326   -17032196.38549 -13249859.95647  21916411.584    21916420.104
  23997110.084    -6787550.70849  -4968353.87545  23997109.647    23997121.961
  24499431.812    -6054434.44449  -4410063.50345  24499431.367    24499442.585
 03  4 10 19 54 30.0000000  0 10G30G17G29G 5G 6G26G15G10G23G18
  21431052.305   -12052308.52149  -9133509.01947  21431052.641    21431060.079
  21780932.944   -20442684.12649 -15916040.20347  21780932.504    21780940.924
  23861329.860    -8864739.65749  -6896971.68445  23861329.695    23861340.759
  23700805.113    12016435.89249   9376813.79245  23700804.594    23700815.581
  20500152.463   -26629001.56349 -20723356.26148  20500152.380    20500159.460
  23914494.409    -7806389.06749  -6052370.61145  23914494.520    23914508.300
  24380807.587    -6175097.47749  -4797371.08645  24380807.119    24380817.889
  21930207.662   -16959701.52149 -13193370.47547  21930206.933    21930215.453
  23976947.071    -6893507.35549  -5050917.32345  23976946.616    23976958.851
  24478342.723    -6165256.65849  -4496418.20945  24478342.476    24478353.793
 03  4 10 19 55  0.0000000  0 10G30G17G29G 5G 6G26G15G10G23G18
  21446132.741   -11973060.57549  -9071757.42447  21446133.081    21446140.526
  21772260.911   -20488255.54849 -15951550.37447  21772260.468    21772268.938
  23850161.760    -8923427.76749  -6942702.56945  23850161.567    23850172.626
  23721154.647    12123372.35349   9460140.70145  23721154.097    23721165.207
  20495123.206   -26655430.43149 -20743950.18248  20495123.112    20495130.201
  23897852.265    -7893843.04849  -6120516.24245  23897852.402    23897866.146
  24365024.356    -6258038.48849  -4862000.35845  24365023.815    24365034.557
  21944086.368   -16886768.68649 -13136539.72347  21944085.606    21944094.123
  23956810.398    -6999325.58949  -5133372.90145  23956809.926    23956822.310
  24457267.171    -6276009.90249  -4582719.25445  24457266.897    24457278.269
 03  4 10 19 55 30.0000000  0 10G30G17G29G 5G 6G26G15G10G23G18
  21461286.229   -11893428.38649  -9009706.42947  21461286.580    21461294.054
  21763631.170   -20533605.01949 -15986887.59447  21763630.712    21763639.154
  23839045.411    -8981843.72549  -6988221.38945  23839045.263    23839056.357
  23741517.984    12230382.14849   9543524.73845  23741517.469    23741528.617
  20490153.780   -26681544.81149 -20764299.04148  20490153.682    20490160.775
  23881230.509    -7981189.35849  -6188577.95445  23881230.669    23881244.487
  24349265.288    -6340852.74249  -4926530.89145  24349264.656    24349275.347
  21958047.895   -16813400.34749 -13079369.61547  21958047.140    21958055.663
  23936700.490    -7105002.96649  -5215718.75845  23936700.087    23936712.307
  24436204.895    -6386692.22149  -4668965.08045  24436204.668    24436215.662
 03  4 10 19 56  0.0000000  0 10G30G17G29G 5G 6G26G15G10G23G18
  21476512.412   -11813414.63549  -8947358.11247  21476512.779    21476520.230
  21755043.629   -20578732.77249 -16022052.04947  21755043.157    21755051.604
  23827981.566    -9039984.60349  -7033525.86345  23827981.422    23827992.474
  23761894.841    12337462.76049   9626963.96845  23761894.373    23761905.569
  20485244.563   -26707342.97849 -20784401.50548  20485244.450    20485251.557
  23864629.895    -8068424.48049  -6256553.07245  23864630.101    23864643.883
  24333530.357    -6423539.78549  -4990962.28245  24333529.748    24333540.412
  21972091.838   -16739599.06049 -13021862.14347  21972091.078    21972099.570
  23916617.893    -7210536.94649  -5297952.88345  23916617.511    23916629.665
  24415156.550    -6497300.93049  -4755153.50245  24415156.379    24415167.308
 03  4 10 19 56 30.0000000  0 10G30G17G29G 5G 6G26G15G10G23G18
  21491810.833   -11733021.23049  -8884713.95547  21491811.179    21491818.639
  21746498.260   -20623638.82249 -16057043.74547  21746497.793    21746506.246
  23816970.542    -9097847.23849  -7078613.52645  23816970.544    23816981.561
  23782284.852    12444611.95849   9710456.63945  23782284.357    23782295.618
  20480395.845   -26732823.12049 -20804256.15748  20480395.747    20480402.846
  23848051.180    -8155544.61649  -6324438.56045  23848051.338    23848065.104
  24317819.710    -6506098.88349  -5055293.96545  24317819.134    24317830.070
  21986217.698   -16665367.10049 -12964019.07747  21986216.949    21986225.478
  23896563.080    -7315924.74549  -5380073.07445  23896562.685    23896574.942
  24394122.772    -6607833.33049  -4841282.46645  24394122.631    24394133.623
 03  4 10 19 57  0.0000000  0 10G30G17G29G 5G 6G26G15G10G23G18
  21507180.727   -11652252.01949  -8821776.96847  21507181.068    21507188.584
  21737994.889   -20668324.10849 -16091863.41947  21737994.469    21738002.888
  23806012.880    -9155429.54249  -7123482.75145  23806012.900    23806023.909
  23802687.275    12551826.40249   9794000.13645  23802686.743    23802697.980
  20475607.751   -26757984.56449 -20823862.47548  20475607.672    20475614.781
  23831495.045    -8242547.11349  -6392232.41445  23831495.100    23831508.776
  24302133.344    -6588530.83449  -5119526.57245  24302132.694    24302143.714
  22000424.792   -16590708.23149 -12905843.36047  22000424.053    22000432.631
  23876536.535    -7421164.87849  -5462078.22045  23876536.048    23876548.196
  24373103.770    -6718288.01349  -4927350.89345  24373103.682    24373114.429
 03  4 10 19 57 30.0000000  0 10G30G17G29G 5G 6G26G15G10G23G18
  21522621.704   -11571109.19449  -8758548.85647  21522622.059    21522629.586
  21729533.618   -20712788.35349 -16126510.85447  21729533.167    21729541.622
  23795109.141    -9212728.30949  -7168131.02745  23795109.239    23795120.290
  23823101.635    12659104.13649   9877592.96645  23823101.150    23823112.497
  20470880.727   -26782825.21149 -20843218.82248  20470880.674    20470887.777
  23814961.860    -8329428.03349  -6459931.52845  23814961.986    23814975.533
  24286471.440    -6670834.68949  -5183659.38845  24286470.846    24286481.584
  22014712.738   -16515624.68949 -12847336.73847  22014711.992    22014720.616
  23856538.583    -7526254.33349  -5543965.97745  23856538.103    23856550.027
  24352100.214    -6828662.14049  -5013356.59645  24352100.092    24352110.539
 03  4 10 19 58  0.0000000  0 10G30G17G29G 5G 6G26G15G10G23G18
  21538133.172   -11489596.08349  -8695032.20147  21538133.520    21538141.046
  21721114.247   -20757032.63449 -16160986.89747  21721113.806    21721122.203
  23784259.833    -9269741.37049  -7212556.68245  23784259.920    23784270.848
  23843527.426    12766441.69549   9961232.39745  23843526.959    23843538.363
  20466214.923   -26807344.19349 -20862324.51948  20466214.854    20466221.954
  23798452.538    -8416184.61049  -6527533.78345  23798452.694    23798465.957
  24270833.805    -6753010.74649  -5247692.61045  24270833.213    24270843.943
  22029080.951   -16440119.55949 -12788501.60247  22029080.175    22029088.784
  23836569.648    -7631191.45849  -5625734.95145  23836569.117    23836581.064
  24331112.115    -6938954.17949  -5099298.23145  24331112.042    24331122.653
 03  4 10 19 58 30.0000000  0 10G30G17G29G 5G 6G26G15G10G23G18
  21553714.720   -11407714.70549  -8631228.59247  21553715.063    21553722.593
  21712736.780   -20801056.56349 -16195291.22847  21712736.296    21712744.708
  23773465.542    -9326465.37749  -7256757.09445  23773465.602    23773476.592
  23863964.314    12873836.99449  10044916.81945  23863963.801    23863975.248
  20461610.726   -26831539.40349 -20881177.92648  20461610.642    20461617.743
  23781967.448    -8502812.85449  -6595036.02345  23781967.567    23781980.855
  24255220.548    -6835058.23449  -5311625.63145  24255220.050    24255230.854
  22043528.919   -16364195.18249 -12729339.77547  22043528.153    22043536.748
  23816630.206    -7735973.28449  -5707383.02145  23816629.701    23816641.412
  24310140.328    -7049161.38449  -5185173.84045  24310140.250    24310150.849
 03  4 10 19 59  0.0000000  0 10G30G17G29G 5G 6G26G15G10G23G18
  21569365.868   -11325467.83149  -8567140.17947  21569366.188    21569373.726
  21704401.061   -20844860.76549 -16229424.34947  21704400.586    21704408.996
  23762726.731    -9382897.56649  -7300730.11045  23762726.737    23762737.697
  23884411.590    12981287.52849  10128644.28445  23884411.126    23884422.636
  20457068.441   -26855409.37049 -20899777.89748  20457068.356    20457075.451
  23765507.555    -8589309.14449  -6662435.48945  23765507.672    23765520.735
  24239631.828    -6916977.14249  -5375458.46445  24239631.342    24239642.104
  22058056.107   -16287854.25249 -12669853.37547  22058055.336    22058063.943
  23796720.757    -7840597.45549  -5788908.21345  23796720.353    23796731.829
  24289185.078    -7159281.31549  -5270981.44045  24289184.937    24289195.663
 03  4 10 19 59 30.0000000  0 10G30G17G29G 5G 6G26G15G10G23G18
  21585086.020   -11242858.19249  -8502769.09347  21585086.336    21585093.866
  21696107.222   -20888445.02049 -16263386.07547  21696106.768    21696115.161
  23752043.996    -9439035.16549  -7344473.57745  23752044.003    23752054.985
  23904869.024    13088790.79149  10212412.84145  23904868.474    23904880.071
  20452588.347   -26878952.51849 -20918123.20148  20452588.268    20452595.329
  23749073.348    -8675670.07749  -6729729.49045  23749073.469    23749086.430
  24224067.771    -6998766.97149  -5439190.73245  24224067.217    24224077.904
  22072662.134   -16211099.33549 -12610044.37647  22072661.364    22072669.973
  23776841.736    -7945061.51449  -5870308.60245  23776841.276    23776852.927
  24268246.789    -7269311.67149  -5356719.22945  24268246.753    24268257.371
 03  4 10 20  0  0.0000000  0 10G30G17G29G 5G 6G26G15G10G23G18
  21600874.627   -11159888.66349  -8438117.56847  21600874.965    21600882.500
  21687855.136   -20931810.02749 -16297176.96547  21687854.681    21687863.035
  23741417.931    -9494875.53149  -7387985.43145  23741417.918    23741428.785
  23925335.831    13196343.83549  10296220.16845  23925335.295    23925347.042
  20448170.738   -26902167.33449 -20936212.66848  20448170.646    20448177.684
  23732665.629    -8761892.30449  -6796915.40845  23732665.678    23732678.578
  24208528.194    -7080427.88549  -5502822.54545  24208527.606    24208538.243
  22087346.335   -16133933.33849 -12549915.06447  22087345.599    22087354.182
  23756993.635    -8049363.30749  -5951582.56645  23756993.156    23757004.821
  24247326.142    -7379250.31949  -5442385.59545  24247326.096    24247336.623
 03  4 10 20  0 30.0000000  0 10G30G17G29G 5G 6G26G15G10G23G18
  21616731.150   -11076562.37649  -8373188.05247  21616731.498    21616739.057
  21679644.591   -20974956.47149 -16330797.54647  21679644.155    21679652.488
  23730848.789    -9550416.26449  -7431263.80945  23730848.786    23730859.594
  23945811.568    13303943.77049  10380064.02745  23945811.020    23945822.915
  20443815.780   -26925052.81549 -20954045.50948  20443815.661    20443822.716
  23716284.891    -8847972.70749  -6863990.82445  23716284.888    23716297.851
  24193013.105    -7161959.72849  -5566353.76045  24193012.516    24193023.237
  22102108.195   -16056359.31749 -12489467.81547  22102107.429    22102116.018
  23737176.848    -8153500.78349  -6032728.49545  23737176.286    23737187.993
  24226423.207    -7489095.39449  -5527978.99445  24226423.237    24226433.551
 03  4 10 20  1  0.0000000  0 10G30G17G29G 5G 6G26G15G10G23G18
  21632655.278   -10992880.75749  -8307981.65647  21632655.614    21632663.227
  21671475.847   -21017883.45449 -16364247.11447  21671475.390    21671483.728
  23720337.377    -9605653.50849  -7474305.69845  23720337.382    23720348.214
  23966296.076    13411589.30749  10463943.43945  23966295.498    23966307.342
  20439524.000   -26947606.25149 -20971619.60948  20439523.902    20439530.953
  23699931.905    -8933906.61649  -6930952.12445  23699932.048    23699944.981
  24177522.882    -7243361.11049  -5629783.33545  24177522.350    24177533.070
  22116947.346   -15978378.94249 -12428703.92147  22116946.596    22116955.227
  23717391.933    -8257470.45949  -6113743.63845  23717391.362    23717403.112
  24205538.786    -7598843.37049  -5613496.72545  24205538.754    24205549.292
 03  4 10 20  1 30.0000000  0 10G30G17G29G 5G 6G26G15G10G23G18
  21648646.204   -10908848.04549  -8242501.67547  21648646.554    21648654.139
  21663348.559   -21060592.44349 -16397526.82547  21663348.116    21663356.458
  23709884.042    -9660585.72549  -7517109.89645  23709884.049    23709894.813
  23986788.374    13519276.52549  10547855.31545  23986787.872    23986799.721
  20435295.463   -26969827.41349 -20988934.79748  20435295.359    20435302.391
  23683607.366    -9019691.90549  -6997797.58845  23683607.441    23683620.418
  24162057.326    -7324633.15349  -5693112.10845  24162056.786    24162067.562
  22131863.111   -15899996.30649 -12367626.58147  22131862.311    22131870.964
  23697639.032    -8361271.32449  -6194627.23845  23697638.496    23697650.270
  24184673.005    -7708493.12149  -5698937.93045  24184672.930    24184683.306
 03  4 10 20  2  0.0000000  0 10G30G17G29G 5G 6G26G15G10G23G18
  21664703.562   -10824466.50249  -8176749.87847  21664703.877    21664711.460
  21655262.723   -21103083.65149 -16430636.83547  21655262.264    21655270.625
  23699489.273    -9715209.78649  -7559673.97945  23699489.295    23699500.054
  24007288.276    13627003.27749  10631798.00745  24007287.790    24007299.577
  20431130.492   -26991714.44549 -21005989.62648  20431130.403    20431137.418
  23667311.878    -9105324.55549  -7064524.15645  23667312.021    23667324.790
  24146616.506    -7405775.10049  -5756339.52245  24146615.946    24146626.585
  22146854.957   -15821213.68549 -12306237.57047  22146854.172    22146862.861
  23677918.965    -8464900.48049  -6275377.07145  23677918.379    23677930.012
  24163826.305    -7818042.11849  -5784300.65545  24163826.161    24163836.351
 03  4 10 20  2 30.0000000  0 10G30G17G29G 5G 6G26G15G10G23G18
  21680826.714   -10739738.98549  -8110728.49047  21680827.066    21680834.672
  21647218.255   -21145357.39749 -16463577.38947  21647217.823    21647226.199
  23689153.720    -9769523.03049  -7601995.86345  23689153.730    23689164.500
  24027795.270    13734766.90849  10715769.43845  24027794.753    24027806.562
  20427029.370   -27013265.87649 -21022782.94748  20427029.262    20427036.291
  23651045.913    -9190801.31649  -7131129.24745  23651046.142    23651058.954
  24131200.328    -7486786.72949  -5819465.36945  24131199.798    24131210.584
  22161922.326   -15742034.18649 -12244539.29447  22161921.601    22161930.257
  23658231.935    -8568355.74649  -6355991.36445  23658231.318    23658243.073
  24142999.488    -7927488.04449  -5869583.02945  24142999.280    24143009.603
 03  4 10 20  3  0.0000000  0 10G30G17G29G 5G 6G26G15G10G23G18
  21697015.246   -10654667.74249  -8044439.26947  21697015.599    21697023.256
  21639215.244   -21187413.43249 -16496348.29647  21639214.793    21639223.169
  23678877.860    -9823522.37449  -7644073.15745  23678877.875    23678888.672
  24048308.765    13842565.36749  10799767.98045  24048308.282    24048320.147
  20422992.507   -27034479.65549 -21039313.16448  20422992.407    20422999.450
  23634810.587    -9276117.90949  -7197609.54945  23634810.751    23634823.416
  24115809.211    -7567667.45549  -5882489.25145  24115808.733    24115819.302
  22177064.910   -15662459.86549 -12182533.37947  22177064.148    22177072.786
  23638578.592    -8671634.25749  -6436467.93245  23638578.053    23638589.732
  24122192.514    -8036828.12849  -5954782.87045  24122192.294    24122202.879
 03  4 10 20  3 30.0000000  0 10G30G17G29G 5G 6G26G15G10G23G18
  21713268.594   -10569256.04249  -7977884.75547  21713268.946    21713276.591
  21631253.510   -21229252.55649 -16528950.19147  21631253.055    21631261.424
  23668662.158    -9877205.57749  -7685904.09145  23668662.196    23668672.964
  24068828.321    13950395.58049  10883791.27145  24068827.857    24068839.773
  20419020.148   -27055354.75049 -21055579.47248  20419020.037    20419027.075
  23618606.295    -9361271.59149  -7263962.91545  23618606.460    23618619.098
  24100442.922    -7648417.64349  -5945411.38345  24100442.371    24100453.046
  22192281.950   -15582493.92349 -12120222.30347  22192281.193    22192289.823
  23618959.219    -8774734.20249  -6516805.37345  23618958.676    23618970.235
  24101406.093    -8146060.68349  -6039898.99845  24101405.804    24101416.294
 03  4 10 20  4  0.0000000  0 10G30G17G29G 5G 6G26G15G10G23G18
  21729586.128   -10483507.02149  -7911067.39547  21729586.470    21729594.132
  21623332.929   -21270875.26949 -16561383.44147  21623332.498    21623340.871
  23658507.154    -9930570.13549  -7727486.73345  23658507.177    23658517.927
  24089353.457    14058254.67649  10967837.07745  24089352.947    24089364.934
  20415112.399   -27075890.01049 -21071580.97348  20415112.292    20415119.323
  23602433.478    -9446259.06149  -7330186.78145  23602433.675    23602446.326
  24085101.449    -7729037.32949  -6008231.83745  24085100.892    24085111.504
  22207572.910   -15502139.51749 -12057608.52047  22207572.177    22207580.774
  23599374.236    -8877653.48249  -6597001.99945  23599373.654    23599385.178
  24080640.683    -8255183.57649  -6124929.63345  24080640.320    24080650.718
 03  4 10 20  4 30.0000000  0 10G30G17G29G 5G 6G26G15G10G23G18
  21745967.393   -10397423.13349  -7843989.10047  21745967.760    21745975.417
  21615453.593   -21312281.63049 -16593648.11747  21615453.113    21615461.476
  23648413.251    -9983613.12849  -7768818.79245  23648413.254    23648424.045
  24109883.545    14166140.47049  11051903.66745  24109883.045    24109895.161
  20411269.705   -27096083.48849 -21087316.15148  20411269.602    20411276.609
  23586293.307    -9531076.40449  -7396278.04945  23586293.429    23586305.909
  24069784.975    -7809525.84049  -6070950.08545  24069784.405    24069794.954
  22222937.345   -15421399.06349 -11994693.93147  22222936.581    22222945.219
  23579824.179    -8980389.50149  -6677055.85845  23579823.598    23579834.963
  24059896.298    -8364194.48649  -6209872.99445  24059896.071    24059906.595
 03  4 10 20  5  0.0000000  0 10G30G17G29G 5G 6G26G15G10G23G18
  21762411.991   -10311006.66149  -7776651.64347  21762412.325    21762419.959
  21607615.411   -21353471.47949 -16625744.08547  21607614.949    21607623.286
  23638381.335   -10036331.22349  -7809897.68845  23638381.249    23638392.011
  24130418.426    14274050.96049  11135989.53645  24130417.919    24130430.096
  20407492.424   -27115933.14349 -21102783.41248  20407492.317    20407499.334
  23570186.086    -9615719.76549  -7462233.76445  23570186.140    23570198.626
  24054493.580    -7889882.65349  -6133565.71245  24054492.962    24054503.347
  22238374.804   -15340274.86549 -11931480.31447  22238374.014    22238382.683
  23560309.314    -9082939.42049  -6756964.67945  23560308.838    23560320.255
  24039174.019    -8473090.33449  -6294726.69445  24039173.856    24039184.225
 03  4 10 20  5 30.0000000  0 10G30G17G29G 5G 6G26G15G10G23G18
  21778919.196   -10224261.09349  -7709057.75047  21778919.498    21778927.152
  21599818.225   -21394446.00649 -16657672.25847  21599817.787    21599826.070
  23628411.452   -10088722.72149  -7850722.09745  23628411.372    23628422.022
  24150957.437    14381982.82949  11220092.03145  24150956.880    24150969.105
  20403780.671   -27135438.43849 -21117982.33848  20403780.577    20403787.580
  23554112.667    -9700186.05249  -7528051.54445  23554112.826    23554124.926
  24039227.197    -7970107.80249  -6196078.74945  24039226.620    24039236.929
  22253884.659   -15258770.32049 -11867970.32146  22253883.867    22253892.522
  23540830.206    -9185301.41549  -6836727.07545  23540829.723    23540841.213
  24018473.982    -8581869.52949  -6379489.52945  24018473.777    24018483.943
 03  4 10 20  6  0.0000000  0 10G30G17G29G 5G 6G26G15G10G23G18
  21795488.444   -10137188.80049  -7641209.27747  21795488.817    21795496.526
  21592062.058   -21435205.03149 -16689432.51847  21592061.577    21592069.838
  23618504.284   -10140784.24049  -7891289.37145  23618504.270    23618514.946
  24171500.028    14489933.89449  11304209.49445  24171499.488    24171511.740
  20400134.895   -27154597.27449 -21132911.30048  20400134.781    20400141.796
  23538073.545    -9784471.43849  -7593728.30845  23538073.741    23538085.858
  24023985.844    -8050200.77949  -6258488.78245  24023985.302    24023995.598
  22269466.367   -15176887.90649 -11804165.89146  22269465.589    22269474.237
  23521387.491    -9287472.82349  -6916340.98145  23521387.093    23521398.354
  23997796.491    -8690529.57749  -6464159.48845  23997796.262    23997806.525
 03  4 10 20  6 30.0000000  0 10G30G17G29G 5G 6G26G15G10G23G18
  21812119.417   -10049792.68649  -7573108.47347  21812119.744    21812127.510
  21584346.811   -21475748.84349 -16721025.06947  21584346.338    21584354.576
  23608660.488   -10192513.33249  -7931597.60345  23608660.494    23608671.106
  24192045.645    14597901.56749  11388339.89745  24192045.255    24192057.511
  20396555.228   -27173408.40049 -21147569.31848  20396555.139    20396562.150
  23522069.558    -9868572.46349  -7659261.41645  23522069.751    23522081.855
  24008769.608    -8130161.67749  -6320795.88945  24008769.145    24008779.520
  22285119.415   -15094630.43849 -11740069.21046  22285118.663    22285127.353
  23501981.513    -9389451.42449  -6995804.63245  23501981.117    23501992.288
  23977142.177    -8799068.13349  -6548734.79045  23977141.980    23977152.134
 03  4 10 20  7  0.0000000  0 10G30G17G29G 5G 6G26G15G10G23G18
  21828811.431    -9962075.87349  -7504757.77347  21828811.748    21828819.534
  21576672.435   -21516077.69149 -16752450.11747  21576671.971    21576680.206
  23598880.437   -10243907.60249  -7971644.94545  23598880.435    23598891.001
  24212594.141    14705883.27149  11472481.21445  24212593.699    24212605.996
  20393041.969   -27191870.52749 -21161955.39448  20393041.881    20393048.900
  23506101.091    -9952485.95649  -7724648.41545  23506101.395    23506113.438
  23993578.672    -8209990.59349  -6383000.18145  23993578.142    23993588.540
  22300843.377   -15012000.75249 -11675682.49446  22300842.618    22300851.304
  23482612.672    -9491235.10349  -7075116.42745  23482612.237    23482623.292
  23956511.290    -8907483.34249  -6633213.95645  23956511.072    23956521.290
 03  4 10 20  7 30.0000000  0 10G30G17G29G 5G 6G26G15G10G23G18
  21845563.873    -9874041.15049  -7436159.34947  21845564.220    21845572.015
  21569038.852   -21556192.28449 -16783708.21647  21569038.415    21569046.645
  23589164.571   -10294964.51949  -8011429.40545  23589164.512    23589175.029
  24233144.716    14813876.30849  11556631.37945  24233144.233    24233156.597
  20389595.453   -27209982.08349 -21176068.29748  20389595.377    20389602.352
  23490169.160   -10036208.34749  -7789886.45045  23490169.294    23490181.626
  23978412.877    -8289687.35849  -6445101.49845  23978412.370    23978422.633
  22316637.574   -14929001.90049 -11611008.10646  22316636.834    22316645.535
  23463281.148    -9592821.56849  -7154274.54745  23463280.749    23463291.823
  23935904.433    -9015772.58449  -6717595.00445  23935904.179    23935914.368
 03  4 10 20  8  0.0000000  0 10G30G17G29G 5G 6G26G15G10G23G18
  21862376.231    -9785691.91449  -7367315.86147  21862376.571    21862384.402
  21561445.853   -21596093.61249 -16814800.13847  21561445.412    21561453.646
  23579513.322   -10345681.70949  -8050949.15245  23579513.283    23579523.718
  24253696.885    14921877.71149  11640788.04045  24253696.464    24253708.778
  20386215.864   -27227742.00049 -21189907.19448  20386215.777    20386222.769
  23474274.054   -10119736.59449  -7854973.24445  23474274.248    23474286.532
  23963272.222    -8369252.15449  -6507099.98045  23963271.653    23963281.936
  22332501.453   -14845637.07149 -11546048.55246  22332500.701    22332509.346
  23443987.578    -9694209.04149  -7233277.61845  23443987.215    23443998.303
  23915321.769    -9123934.17249  -6801876.57245  23915321.448    23915331.659
 03  4 10 20  8 30.0000000  0 10G30G17G29G 5G 6G26G15G10G23G18
  21879248.142    -9697029.87949  -7298228.62747  21879248.481    21879256.303
  21553893.656   -21635780.78949 -16845725.19247  21553893.190    21553901.409
  23569927.407   -10396055.74249  -8090201.50145  23569927.339    23569937.715
  24274250.385    15029885.89149  11724949.99145  24274249.936    24274262.377
  20382903.633   -27245147.87949 -21203470.22148  20382903.559    20382910.563
  23458416.760   -10203066.09249  -7919905.14845  23458417.026    23458429.271
  23948156.955    -8448683.66449  -6568994.59445  23948156.317    23948166.644
  22348434.622   -14761908.01649 -11480805.18346  22348433.861    22348442.489
  23424732.683    -9795394.12749  -7312122.99745  23424732.206    23424743.196
  23894763.939    -9231965.01149  -6886056.26645  23894763.640    23894773.751
 03  4 10 20  9  0.0000000  0 10G30G17G29G 5G 6G26G15G10G23G18
  21896178.822    -9608058.40649  -7228900.27547  21896179.151    21896187.054
  21546381.979   -21675254.72749 -16876484.07847  21546381.501    21546389.736
  23560407.149   -10446084.39749  -8129184.73146  23560407.110    23560417.340
  24294804.531    15137897.77449  11809114.81945  24294804.077    24294816.614
  20379658.981   -27262198.76349 -21216756.62548  20379658.896    20379665.894
  23442597.955   -10286193.94049  -7984679.92645  23442598.237    23442610.477
  23933066.813    -8527982.31549  -6630785.68745  23933066.143    23933076.517
  22364436.395   -14677818.27449 -11415280.75846  22364435.613    22364444.284
  23405516.475    -9896375.07749  -7390809.28145  23405515.989    23405527.073
  23874231.522    -9339863.29249  -6970132.66445  23874231.204    23874241.297
 03  4 10 20  9 30.0000000  0 10G30G17G29G 5G 6G26G15G10G23G18
  21913167.906    -9518780.27649  -7159332.96447  21913168.269    21913176.179
  21538910.947   -21714515.13249 -16907076.57847  21538910.513    21538918.715
  23550953.140   -10495765.06449  -8167896.79546  23550953.135    23550963.377
  24315359.042    15245911.05749  11893280.73945  24315358.497    24315371.172
  20376482.160   -27278893.09549 -21229765.19448  20376482.045    20376489.066
  23426818.313   -10369116.21749  -8049294.49845  23426818.601    23426830.747
  23918002.090    -8607147.59749  -6692472.86545  23918001.482    23918011.773
  22380506.303   -14593370.49949 -11349477.33946  22380505.568    22380514.220
  23386339.620    -9997149.34849  -7469334.54046  23386339.215    23386350.187
  23853724.769    -9447626.42649  -7054103.74945  23853724.460    23853734.514
 03  4 10 20 10  0.0000000  0 10G30G17G29G 5G 6G26G15G10G23G18
  21930214.928    -9429197.99749  -7089528.65547  21930215.278    21930223.209
  21531480.455   -21753562.61949 -16937503.16847  21531479.987    21531488.180
  23541565.908   -10545094.85549  -8206335.45646  23541565.823    23541576.078
  24335913.365    15353923.56849  11977446.05645  24335912.878    24335925.453
  20373373.449   -27295229.36049 -21242494.75048  20373373.347    20373380.376
  23411078.383   -10451829.47249  -8113746.21545  23411078.588    23411090.732
  23902962.691    -8686179.28449  -6754055.93045  23902962.074    23902972.411
  22396643.902   -14508567.31749 -11283396.99746  22396643.146    22396651.783
  23367202.542   -10097714.47549  -7547696.83746  23367202.143    23367213.051
  23833244.168    -9555251.99349  -7137967.68845  23833243.909    23833253.797
 03  4 10 20 10 30.0000000  0 10G30G17G29G 5G 6G26G15G10G23G18
  21947319.083    -9339315.08649  -7019490.09147  21947319.447    21947327.396
  21524090.351   -21792397.86349 -16967764.37847  21524089.873    21524098.044
  23532245.834   -10594071.62749  -8244499.04746  23532245.786    23532255.991
  24356466.991    15461932.33049  12061608.46645  24356466.389    24356479.046
  20370333.126   -27311206.47949 -21254944.44948  20370333.032    20370340.042
  23395378.778   -10534330.46149  -8178032.52845  23395379.037    23395391.145
  23887948.637    -8765077.60149  -6815535.05645  23887948.137    23887958.472
  22412848.527   -14423411.73349 -11217042.04046  22412847.748    22412856.408
  23348105.770   -10198068.51949  -7625894.64946  23348105.383    23348116.225
  23812790.018    -9662738.18849  -7221722.99745  23812789.749    23812799.707
 03  4 10 20 11  0.0000000  0 11G30G17G29G 5G 6G16G26G15G10G23G18
  21964479.899    -9249134.91249  -6949219.88847  21964480.237    21964488.160
  21516740.434   -21831021.87449 -16997860.99447  21516739.971    21516748.135
  23522993.303   -10642693.68349  -8282386.23945  23522993.251    23523003.272
  24377019.217    15569934.25849  12145765.52045  24377018.581    24377031.460
  20367361.253   -27326823.71149 -21267113.72448  20367361.159    20367368.160
  24761030.453    -6416959.40449  -4973006.41745  24761030.106    24761038.274
  23379720.182   -10616616.53149  -8242151.36045  23379720.377    23379732.434
  23872960.094    -8843843.23549  -6876910.81445  23872959.534    23872969.818
  22429119.461   -14337907.26149 -11150415.23846  22429118.714    22429127.405
  23329049.344   -10298210.15549  -7703926.93546  23329048.976    23329059.803
  23792362.758    -9770083.59049  -7305368.60845  23792362.540    23792372.382
 03  4 10 20 11 30.0000000  0 11G30G17G29G 5G 6G16G26G15G10G23G18
  21981696.255    -9158662.49649  -6878721.97347  21981696.618    21981704.566
  21509430.217   -21869437.03949 -17027794.86747  21509429.762    21509437.938
  23513808.361   -10690960.25249  -8319996.42545  23513808.349    23513818.356
  24397569.289    15677924.76649  12229913.67645  24397568.705    24397581.693
  20364457.809   -27342081.49449 -21279002.90648  20364457.709    20364464.729
  24744413.541    -6504281.60649  -5041049.67945  24744413.188    24744421.393
  23364102.716   -10698686.00749  -8306101.41945  23364102.908    23364114.892
  23857996.405    -8922477.85449  -6938184.48545  23857995.764    23858006.061
  22445455.872   -14252058.81849 -11083520.40846  22445455.105    22445463.856
  23310033.434   -10398138.94249  -7781793.38946  23310033.050    23310043.801
  23771962.419    -9877287.79349  -7388904.19345  23771962.154    23771971.907
 03  4 10 20 12  0.0000000  0 11G30G17G29G 5G 6G16G26G15G10G23G18
  21998968.453    -9067896.59649  -6807995.37247  21998968.811    21998976.810
  21502160.494   -21907639.79849 -17057563.23347  21502160.024    21502168.181
  23504692.294   -10738864.89949  -8357324.60345  23504692.271    23504702.259
  24418117.435    15785905.30049  12314054.05945  24418116.839    24418129.950
  20361623.816   -27356974.23849 -21290607.64848  20361623.711    20361630.726
  24727855.500    -6591296.00449  -5108853.11745  24727855.062    24727863.236
  23348528.227   -10780531.14749  -8369876.66445  23348528.220    23348540.101
  23843058.456    -9000977.29249  -6999352.81645  23843057.835    23843068.128
  22461858.059   -14165865.04949 -11016356.48546  22461857.319    22461866.057
  23291059.237   -10497848.56449  -7859489.05646  23291058.785    23291069.535
  23751590.065    -9984344.18549  -7472324.59845  23751589.777    23751599.503
 03  4 10 20 12 30.0000000  0 11G30G17G29G 5G 6G16G26G15G10G23G18
  22016295.918    -8976840.36449  -6737042.53447  22016296.295    22016304.307
  21494930.997   -21945630.66349 -17087166.48947  21494930.549    21494938.731
  23495645.574   -10786405.26149  -8394368.93045  23495645.523    23495655.408
  24438663.221    15893873.10649  12398184.53045  24438662.735    24438675.788
  20358859.488   -27371500.90849 -21301927.13748  20358859.405    20358866.398
  24711356.096    -6678000.49249  -5176415.04245  24711355.715    24711363.739
  23332996.638   -10862148.91549  -8433474.74445  23332996.713    23333008.542
  23828146.162    -9079341.57949  -7060415.85445  23828145.598    23828155.788
  22478325.306   -14079329.26549 -10948926.05246  22478324.560    22478333.318
  23272127.105   -10597337.12049  -7937012.45546  23272126.692    23272137.410
  23731246.134   -10091251.27649  -7555628.67445  23731245.812    23731255.525
 03  4 10 20 13  0.0000000  0 11G30G17G29G 5G 6G16G26G15G10G23G18
  22033678.015    -8885497.21749  -6665866.12747  22033678.372    22033686.399
  21487741.708   -21983410.51949 -17116605.32147  21487741.266    21487749.452
  23486668.472   -10833579.49149  -8431127.96145  23486668.468    23486678.252
  24459206.099    16001825.33549  12482302.86045  24459205.573    24459218.714
  20356164.972   -27385660.61749 -21312960.67948  20356164.870    20356171.865
  24694916.291    -6764392.80849  -5243733.71645  24694915.925    24694923.959
  23317509.066   -10943536.27049  -8496893.29445  23317509.104    23317520.899
  23813259.563    -9157570.94149  -7121373.73345  23813258.954    23813269.183
  22494857.038   -13992454.72349 -10881231.66546  22494856.245    22494865.053
  23253237.277   -10696602.80849  -8014362.19146  23253236.820    23253247.646
  23710931.013   -10198007.13549  -7638814.88245  23710930.695    23710940.532
 03  4 10 20 13 30.0000000  0 11G30G17G29G 5G 6G16G26G15G10G23G18
  22051114.017    -8793870.61249  -6594468.84547  22051114.381    22051122.406
  21480592.440   -22020979.91149 -17145880.15647  21480591.986    21480600.194
  23477761.487   -10880385.70849  -8467600.23345  23477761.474    23477771.199
  24479745.415    16109758.93849  12566406.65045  24479745.034    24479758.271
  20353540.465   -27399452.39849 -21323707.52348  20353540.377    20353547.365
  24678536.164    -6850471.23549  -5310807.75645  24678535.765    24678543.855
  23302065.729   -11024690.13449  -8560129.91245  23302065.866    23302077.518
  23798398.535    -9235665.77549  -7182226.79445  23798398.002    23798408.213
  22511452.620   -13905244.71749 -10813275.87246  22511451.776    22511460.596
  23234390.239   -10795643.83549  -8091536.88746  23234389.787    23234400.550
  23690645.076   -10304609.90049  -7721881.85345  23690644.748    23690654.407
 03  4 10 20 14  0.0000000  0 11G30G17G29G 5G 6G16G26G15G10G23G18
  22068603.539    -8701963.06149  -6522852.64247  22068603.923    22068611.895
  21473483.201   -22058339.02749 -17174991.14947  21473482.757    21473490.981
  23468925.107   -10926820.75249  -8503783.28546  23468925.102    23468934.761
  24500280.678    16217671.84149  12650494.31545  24500280.269    24500293.742
  20350986.339   -27412874.52649 -21334166.32848  20350986.245    20350993.254
  24662216.342    -6936232.60449  -5377634.85045  24662215.844    24662223.772
  23286667.637   -11105606.76849  -8623181.65145  23286667.825    23286679.440
  23783563.321    -9313625.39849  -7242974.49645  23783562.792    23783572.901
  22528111.444   -13817701.96849 -10745060.79746  22528110.623    22528119.472
  23215586.514   -10894457.65749  -8168534.54346  23215586.054    23215596.737
  23670388.741   -10411057.20649  -7804827.63845  23670388.422    23670398.064
 03  4 10 20 14 30.0000000  0 11G30G17G29G 5G 6G16G26G15G10G23G18
  22086145.895    -8609777.78749  -6451020.02947  22086146.249    22086154.247
  21466413.800   -22095488.84649 -17203939.05047  21466413.371    21466421.584
  23460159.773   -10972882.59249  -8539675.51746  23460159.730    23460169.414
  24520811.586    16325561.02649  12734563.50345  24520811.194    24520824.533
  20348502.683   -27425926.02349 -21344336.33048  20348502.585    20348509.607
  24645957.014    -7021674.84649  -5444213.12945  24645956.528    24645964.762
  23271315.362   -11186282.88049  -8686045.99345  23271315.604    23271327.158
  23768753.655    -9391450.34649  -7303617.25745  23768753.125    23768763.269
  22544833.044   -13729829.53849 -10676588.83046  22544832.237    22544841.104
  23196826.289   -10993042.48449  -8245353.73446  23196825.802    23196836.607
  23650162.383   -10517347.15249  -7887650.83045  23650162.013    23650171.637
 03  4 10 20 15  0.0000000  0 11G30G17G29G 5G 6G16G26G15G10G23G18
  22103740.505    -8517317.45449  -6378973.09247  22103740.868    22103748.956
  21459384.263   -22132429.11549 -17232723.66647  21459383.838    21459392.050
  23451465.933   -11018568.67249  -8575274.98546  23451465.849    23451475.469
  24541337.518    16433424.32149  12818612.50745  24541337.135    24541350.579
  20346089.914   -27438605.35349 -21354216.33448  20346089.815    20346096.828
  24629759.190    -7106795.11149  -5510540.64545  24629758.863    24629766.893
  23256009.524   -11266714.77749  -8748720.03245  23256009.750    23256021.348
  23753969.855    -9469140.09849  -7364154.67645  23753969.219    23753979.290
  22561616.930   -13641629.86949 -10607861.87246  22561616.118    22561624.987
  23178110.167   -11091395.87549  -8321992.61346  23178109.749    23178120.438
  23629966.390   -10623477.15249  -7970349.38445  23629966.026    23629975.589
 03  4 10 20 15 30.0000000  0 11G30G17G29G 5G 6G16G26G15G10G23G18
  22121386.850    -8424585.70849  -6306714.67047  22121387.222    22121395.298
  21452394.375   -22169161.24149 -17261346.08147  21452393.937    21452402.158
  23442843.973   -11063877.08449  -8610580.14346  23442843.887    23442853.454
  24561857.889    16541258.64649  12902638.94645  24561857.200    24561870.935
  20343748.079   -27450911.71449 -21363805.71248  20343747.986    20343754.993
  24613622.979    -7191591.60649  -5576615.80545  24613622.664    24613630.786
  23240750.750   -11346899.49949  -8811201.47045  23240751.013    23240762.595
  23739211.441    -9546695.33649  -7424587.27745  23739210.876    23739220.922
  22578462.439   -13553106.46249 -10538882.65146  22578461.576    22578470.482
  23159438.342   -11189516.34549  -8398449.99146  23159437.895    23159448.549
  23609801.123   -10729445.55649  -8052922.01245  23609800.776    23609810.340
 03  4 10 20 16  0.0000000  0 11G30G17G29G 5G 6G16G26G15G10G23G18
  22139084.406    -8331585.00149  -6234246.66547  22139084.731    22139092.811
  21445444.229   -22205684.65049 -17289805.86547  21445443.798    21445451.976
  23434294.342   -11108805.07649  -8645588.88246  23434294.276    23434303.884
  24582372.314    16649061.96149  12986641.17345  24582371.697    24582385.536
  20341477.592   -27462843.35449 -21373103.10048  20341477.498    20341484.507
  24597548.740    -7276061.82949  -5642436.70745  24597548.332    24597556.555
  23225539.763   -11426833.22349  -8873487.33445  23225539.974    23225551.473
  23724478.813    -9624115.42649  -7484914.57045  23724478.285    23724488.390
  22595369.071   -13464261.67849 -10469652.99846  22595368.222    22595377.131
  23140811.344   -11287401.08249  -8474723.68346  23140810.961    23140821.618
  23589667.107   -10835249.76849  -8135366.70745  23589666.854    23589676.360
 03  4 10 20 16 30.0000000  0 11G30G17G29G 5G 6G16G26G15G10G23G18
  22156832.467    -8238318.28149  -6161571.37547  22156832.814    22156840.897
  21438533.614   -22242000.11549 -17318103.62047  21438533.182    21438541.337
  23425817.567   -11153350.22449  -8680299.30346  23425817.544    23425827.207
  24602880.559    16756831.83849  13070617.36745  24602879.920    24602893.744
  20339278.700   -27474398.71549 -21382107.28448  20339278.580    20339285.601
  24581537.366    -7360203.11349  -5708001.40745  24581536.916    24581544.939
  23210377.201   -11506512.35649  -8935574.79945  23210377.410    23210388.920
  23709772.034    -9701400.06749  -7545136.32445  23709771.487    23709781.593
  22612336.274   -13375098.60749 -10400175.33446  22612335.436    22612344.365
  23122229.759   -11385047.88749  -8550811.97746  23122229.334    23122239.935
  23569564.717   -10940887.61549  -8217681.77645  23569564.511    23569573.966
 03  4 10 20 17  0.0000000  0 11G30G17G29G 5G 6G16G26G15G10G23G18
  22174630.640    -8144788.50849  -6088691.11647  22174631.002    22174639.146
  21431662.463   -22278108.01949 -17346239.64047  21431662.019    21431670.213
  23417414.100   -11197510.19749  -8714709.58146  23417414.062    23417423.778
  24623381.911    16864565.66849  13154565.51445  24623381.367    24623394.900
  20337151.565   -27485576.70249 -21390817.41748  20337151.453    20337158.484
  24565588.722    -7444013.09649  -5773307.80945  24565588.307    24565596.537
  23195263.724   -11585933.58949  -8997461.31845  23195263.913    23195275.372
  23695090.865    -9778549.45349  -7605252.67845  23695090.381    23695100.533
  22629363.494   -13285620.14149 -10330451.90546  22629362.648    22629371.620
  23103693.677   -11482454.88249  -8626713.40746  23103693.266    23103703.835
  23549494.536   -11046356.87549  -8299865.46446  23549494.234    23549503.764
 03  4 10 20 17 30.0000000  0 11G30G17G29G 5G 6G16G26G15G10G23G18
  22192478.352    -8050998.54949  -6015608.10947  22192478.686    22192486.874
  21424830.864   -22314008.41249 -17374213.95547  21424830.409    21424838.594
  23409084.455   -11241282.57049  -8748817.84146  23409084.408    23409094.135
  24643875.903    16972261.25449  13238483.78545  24643875.429    24643889.146
  20335096.573   -27496375.81849 -21399232.31648  20335096.456    20335103.480
  24549703.797    -7527489.01249  -5838353.98745  24549703.393    24549711.538
  23180200.117   -11665093.21649  -9059144.00645  23180200.302    23180211.595
  23680435.488    -9855563.26849  -7665263.38345  23680434.976    23680445.233
  22646450.237   -13195829.11249 -10260484.93446  22646449.379    22646458.338
  23085203.716   -11579619.61249  -8702426.06946  23085203.297    23085213.851
  23529456.770   -11151655.27849  -8381916.02546  23529456.466    23529466.064
 03  4 10 20 18  0.0000000  0 11G30G17G29G 5G 6G16G26G15G10G23G18
  22210375.053    -7956951.44049  -5942324.72647  22210375.397    22210383.511
  21418038.630   -22349701.81449 -17402026.98347  21418038.191    21418046.348
  23400828.943   -11284664.97049  -8782622.23046  23400828.923    23400838.636
  24664362.341    17079916.05749  13322370.29245  24664361.866    24664375.646
  20333113.920   -27506794.81149 -21407351.02048  20333113.808    20333120.817
  24533882.854    -7610628.61949  -5903138.07645  24533882.447    24533890.634
  23165186.768   -11743987.92049  -9120620.22745  23165186.985    23165198.249
  23665806.133    -9932441.39249  -7725168.37745  23665805.674    23665815.768
  22663595.960   -13105728.24249 -10190276.51246  22663595.060    22663604.022
  23066760.297   -11676539.99949  -8777948.32346  23066759.844    23066770.429
  23509451.980   -11256780.68549  -8463831.80746  23509451.706    23509461.173
 03  4 10 20 18 30.0000000  0 11G30G17G29G 5G 6G16G26G15G10G23G18
  22228320.086    -7862650.02449  -5868843.18347  22228320.384    22228328.610
  21411285.691   -22385188.56149 -17429678.97747  21411285.266    21411293.439
  23392648.163   -11327654.91549  -8816120.80546  23392648.067    23392657.886
  24684840.391    17187527.54849  13406223.04445  24684839.921    24684853.696
  20331203.877   -27516832.14449 -21415172.32448  20331203.771    20331210.808
  24518126.290    -7693429.24249  -5967658.00345  24518126.014    24518134.142
  23150224.615   -11822613.90249  -9181887.07445  23150224.743    23150236.019
  23651202.471   -10009183.70149  -7784967.52445  23651201.994    23651212.186
  22680799.979   -13015320.27149 -10119828.78646  22680799.170    22680808.166
  23048363.775   -11773213.77649  -8853278.43046  23048363.330    23048373.835
  23489480.442   -11361730.93549  -8545611.08046  23489480.212    23489489.658
